<?xml version="1.0" encoding="UTF-8" standalone="no" ?>
<gpx xmlns="http://www.topografix.com/GPX/1/1" creator="MapSource 6.15.11" version="1.1" xmlns:xsi="http://www.w3.org/2001/XMLSchema-instance" xsi:schemaLocation="http://www.topografix.com/GPX/1/1 http://www.topografix.com/GPX/1/1/gpx.xsd">

  <metadata>
    <link href="http://www.garmin.com">
      <text>Garmin International</text>
    </link>
    <time>2012-09-24T03:09:24Z</time>
    <bounds maxlat="37.3162171" maxlon="-109.8052028" minlat="37.2331051" minlon="-109.9932691"/>
  </metadata>

  <wpt lat="37.2708598" lon="-109.9392391">
    <time>2012-09-24T03:01:01Z</time>
    <name>Bot. Moki Dugway</name>
    <sym>Flag, Green</sym>
    <extensions>
      <gpxx:WaypointExtension xmlns:gpxx="http://www.garmin.com/xmlschemas/GpxExtensions/v3">
        <gpxx:DisplayMode>SymbolAndName</gpxx:DisplayMode>
      </gpxx:WaypointExtension>
    </extensions>
  </wpt>

  <wpt lat="37.2643033" lon="-109.9324714">
    <time>2012-09-24T03:03:16Z</time>
    <name>Hwy</name>
    <sym>Flag, Green</sym>
    <extensions>
      <gpxx:WaypointExtension xmlns:gpxx="http://www.garmin.com/xmlschemas/GpxExtensions/v3">
        <gpxx:DisplayMode>SymbolAndName</gpxx:DisplayMode>
      </gpxx:WaypointExtension>
    </extensions>
  </wpt>

  <wpt lat="37.2331051" lon="-109.9932691">
    <time>2012-09-24T03:02:20Z</time>
    <name>Muley Point</name>
    <sym>Flag, Green</sym>
    <extensions>
      <gpxx:WaypointExtension xmlns:gpxx="http://www.garmin.com/xmlschemas/GpxExtensions/v3">
        <gpxx:DisplayMode>SymbolAndName</gpxx:DisplayMode>
      </gpxx:WaypointExtension>
    </extensions>
  </wpt>

  <wpt lat="37.2770612" lon="-109.9432277">
    <time>2012-09-24T03:01:42Z</time>
    <name>Top MD</name>
    <sym>Flag, Green</sym>
    <extensions>
      <gpxx:WaypointExtension xmlns:gpxx="http://www.garmin.com/xmlschemas/GpxExtensions/v3">
        <gpxx:DisplayMode>SymbolAndName</gpxx:DisplayMode>
      </gpxx:WaypointExtension>
    </extensions>
  </wpt>

  <wpt lat="37.2386717" lon="-109.8142345">
    <time>2012-09-24T02:57:52Z</time>
    <name>Truck</name>
    <sym>Flag, Green</sym>
    <extensions>
      <gpxx:WaypointExtension xmlns:gpxx="http://www.garmin.com/xmlschemas/GpxExtensions/v3">
        <gpxx:DisplayMode>SymbolAndName</gpxx:DisplayMode>
      </gpxx:WaypointExtension>
    </extensions>
  </wpt>

  <wpt lat="37.2348851" lon="-109.8142615">
    <time>2012-09-24T02:58:24Z</time>
    <name>VotG Hwy turnoff</name>
    <sym>Flag, Green</sym>
    <extensions>
      <gpxx:WaypointExtension xmlns:gpxx="http://www.garmin.com/xmlschemas/GpxExtensions/v3">
        <gpxx:DisplayMode>SymbolAndName</gpxx:DisplayMode>
      </gpxx:WaypointExtension>
    </extensions>
  </wpt>

  <trk>
    <name>ACTIVE LOG 004</name>
    <extensions>
      <gpxx:TrackExtension xmlns:gpxx="http://www.garmin.com/xmlschemas/GpxExtensions/v3">
        <gpxx:DisplayColor>Red</gpxx:DisplayColor>
      </gpxx:TrackExtension>
    </extensions>
    <trkseg>
      <trkpt lat="37.2331051" lon="-109.9932691">
        <ele>1919.8901367</ele>
        <time>2012-09-19T19:23:34Z</time>
      </trkpt>
      <trkpt lat="37.2332435" lon="-109.9932162">
        <ele>1929.9838867</ele>
        <time>2012-09-19T19:25:27Z</time>
      </trkpt>
      <trkpt lat="37.2333844" lon="-109.9931386">
        <ele>1930.9453125</ele>
        <time>2012-09-19T19:25:35Z</time>
      </trkpt>
      <trkpt lat="37.2335326" lon="-109.9930151">
        <ele>1930.4645996</ele>
        <time>2012-09-19T19:25:56Z</time>
      </trkpt>
      <trkpt lat="37.2336946" lon="-109.9929365">
        <ele>1930.9453125</ele>
        <time>2012-09-19T19:26:00Z</time>
      </trkpt>
      <trkpt lat="37.2338754" lon="-109.9929208">
        <ele>1931.4257813</ele>
        <time>2012-09-19T19:26:04Z</time>
      </trkpt>
      <trkpt lat="37.2340604" lon="-109.9929371">
        <ele>1930.9453125</ele>
        <time>2012-09-19T19:26:08Z</time>
      </trkpt>
      <trkpt lat="37.2342556" lon="-109.9929564">
        <ele>1931.9064941</ele>
        <time>2012-09-19T19:26:12Z</time>
      </trkpt>
      <trkpt lat="37.2344483" lon="-109.9929391">
        <ele>1933.3486328</ele>
        <time>2012-09-19T19:26:16Z</time>
      </trkpt>
      <trkpt lat="37.2346171" lon="-109.9928330">
        <ele>1934.7907715</ele>
        <time>2012-09-19T19:26:20Z</time>
      </trkpt>
      <trkpt lat="37.2347736" lon="-109.9926846">
        <ele>1935.2712402</ele>
        <time>2012-09-19T19:26:24Z</time>
      </trkpt>
      <trkpt lat="37.2348954" lon="-109.9925754">
        <ele>1935.7519531</ele>
        <time>2012-09-19T19:26:27Z</time>
      </trkpt>
      <trkpt lat="37.2350206" lon="-109.9924507">
        <ele>1936.7131348</ele>
        <time>2012-09-19T19:26:30Z</time>
      </trkpt>
      <trkpt lat="37.2351528" lon="-109.9923132">
        <ele>1937.6745605</ele>
        <time>2012-09-19T19:26:33Z</time>
      </trkpt>
      <trkpt lat="37.2352717" lon="-109.9921772">
        <ele>1940.0778809</ele>
        <time>2012-09-19T19:26:36Z</time>
      </trkpt>
      <trkpt lat="37.2353871" lon="-109.9920542">
        <ele>1942.4812012</ele>
        <time>2012-09-19T19:26:39Z</time>
      </trkpt>
      <trkpt lat="37.2354986" lon="-109.9919202">
        <ele>1943.4423828</ele>
        <time>2012-09-19T19:26:42Z</time>
      </trkpt>
      <trkpt lat="37.2356282" lon="-109.9917672">
        <ele>1944.8842773</ele>
        <time>2012-09-19T19:26:46Z</time>
      </trkpt>
      <trkpt lat="37.2357635" lon="-109.9916341">
        <ele>1946.3264160</ele>
        <time>2012-09-19T19:26:50Z</time>
      </trkpt>
      <trkpt lat="37.2359050" lon="-109.9914841">
        <ele>1947.2875977</ele>
        <time>2012-09-19T19:26:54Z</time>
      </trkpt>
      <trkpt lat="37.2360505" lon="-109.9913607">
        <ele>1947.2875977</ele>
        <time>2012-09-19T19:26:58Z</time>
      </trkpt>
      <trkpt lat="37.2362119" lon="-109.9912752">
        <ele>1945.3649902</ele>
        <time>2012-09-19T19:27:02Z</time>
      </trkpt>
      <trkpt lat="37.2363954" lon="-109.9911974">
        <ele>1945.3649902</ele>
        <time>2012-09-19T19:27:06Z</time>
      </trkpt>
      <trkpt lat="37.2365324" lon="-109.9911204">
        <ele>1944.4035645</ele>
        <time>2012-09-19T19:27:09Z</time>
      </trkpt>
      <trkpt lat="37.2366745" lon="-109.9909791">
        <ele>1943.4423828</ele>
        <time>2012-09-19T19:27:12Z</time>
      </trkpt>
      <trkpt lat="37.2367826" lon="-109.9907762">
        <ele>1945.3649902</ele>
        <time>2012-09-19T19:27:15Z</time>
      </trkpt>
      <trkpt lat="37.2368369" lon="-109.9905680">
        <ele>1945.8457031</ele>
        <time>2012-09-19T19:27:18Z</time>
      </trkpt>
      <trkpt lat="37.2368440" lon="-109.9903927">
        <ele>1946.8068848</ele>
        <time>2012-09-19T19:27:21Z</time>
      </trkpt>
      <trkpt lat="37.2369175" lon="-109.9902308">
        <ele>1946.8068848</ele>
        <time>2012-09-19T19:27:25Z</time>
      </trkpt>
      <trkpt lat="37.2370643" lon="-109.9901722">
        <ele>1945.8457031</ele>
        <time>2012-09-19T19:27:28Z</time>
      </trkpt>
      <trkpt lat="37.2372476" lon="-109.9901805">
        <ele>1945.8457031</ele>
        <time>2012-09-19T19:27:31Z</time>
      </trkpt>
      <trkpt lat="37.2374315" lon="-109.9901402">
        <ele>1945.3649902</ele>
        <time>2012-09-19T19:27:34Z</time>
      </trkpt>
      <trkpt lat="37.2376132" lon="-109.9900705">
        <ele>1944.4035645</ele>
        <time>2012-09-19T19:27:37Z</time>
      </trkpt>
      <trkpt lat="37.2378024" lon="-109.9900134">
        <ele>1942.9616699</ele>
        <time>2012-09-19T19:27:40Z</time>
      </trkpt>
      <trkpt lat="37.2379986" lon="-109.9899866">
        <ele>1942.9616699</ele>
        <time>2012-09-19T19:27:43Z</time>
      </trkpt>
      <trkpt lat="37.2382002" lon="-109.9899848">
        <ele>1942.9616699</ele>
        <time>2012-09-19T19:27:46Z</time>
      </trkpt>
      <trkpt lat="37.2384096" lon="-109.9899948">
        <ele>1943.4423828</ele>
        <time>2012-09-19T19:27:49Z</time>
      </trkpt>
      <trkpt lat="37.2386184" lon="-109.9900107">
        <ele>1945.8457031</ele>
        <time>2012-09-19T19:27:52Z</time>
      </trkpt>
      <trkpt lat="37.2387659" lon="-109.9900181">
        <ele>1945.3649902</ele>
        <time>2012-09-19T19:27:54Z</time>
      </trkpt>
      <trkpt lat="37.2389193" lon="-109.9900286">
        <ele>1945.8457031</ele>
        <time>2012-09-19T19:27:56Z</time>
      </trkpt>
      <trkpt lat="37.2390701" lon="-109.9900386">
        <ele>1947.2875977</ele>
        <time>2012-09-19T19:27:58Z</time>
      </trkpt>
      <trkpt lat="37.2392887" lon="-109.9900638">
        <ele>1948.2490234</ele>
        <time>2012-09-19T19:28:01Z</time>
      </trkpt>
      <trkpt lat="37.2395015" lon="-109.9900894">
        <ele>1948.2490234</ele>
        <time>2012-09-19T19:28:04Z</time>
      </trkpt>
      <trkpt lat="37.2397002" lon="-109.9900818">
        <ele>1949.6911621</ele>
        <time>2012-09-19T19:28:07Z</time>
      </trkpt>
      <trkpt lat="37.2398846" lon="-109.9900270">
        <ele>1950.6523438</ele>
        <time>2012-09-19T19:28:10Z</time>
      </trkpt>
      <trkpt lat="37.2400481" lon="-109.9899031">
        <ele>1952.5749512</ele>
        <time>2012-09-19T19:28:13Z</time>
      </trkpt>
      <trkpt lat="37.2401894" lon="-109.9897185">
        <ele>1954.0170898</ele>
        <time>2012-09-19T19:28:16Z</time>
      </trkpt>
      <trkpt lat="37.2402816" lon="-109.9895907">
        <ele>1953.5363770</ele>
        <time>2012-09-19T19:28:18Z</time>
      </trkpt>
      <trkpt lat="37.2404187" lon="-109.9893944">
        <ele>1954.4975586</ele>
        <time>2012-09-19T19:28:21Z</time>
      </trkpt>
      <trkpt lat="37.2405639" lon="-109.9891924">
        <ele>1954.4975586</ele>
        <time>2012-09-19T19:28:24Z</time>
      </trkpt>
      <trkpt lat="37.2406650" lon="-109.9890482">
        <ele>1954.4975586</ele>
        <time>2012-09-19T19:28:26Z</time>
      </trkpt>
      <trkpt lat="37.2407678" lon="-109.9889006">
        <ele>1954.0170898</ele>
        <time>2012-09-19T19:28:28Z</time>
      </trkpt>
      <trkpt lat="37.2408716" lon="-109.9887568">
        <ele>1954.4975586</ele>
        <time>2012-09-19T19:28:30Z</time>
      </trkpt>
      <trkpt lat="37.2410222" lon="-109.9885454">
        <ele>1954.9782715</ele>
        <time>2012-09-19T19:28:33Z</time>
      </trkpt>
      <trkpt lat="37.2411188" lon="-109.9884032">
        <ele>1955.4589844</ele>
        <time>2012-09-19T19:28:35Z</time>
      </trkpt>
      <trkpt lat="37.2412187" lon="-109.9882651">
        <ele>1955.4589844</ele>
        <time>2012-09-19T19:28:37Z</time>
      </trkpt>
      <trkpt lat="37.2413243" lon="-109.9881310">
        <ele>1955.9394531</ele>
        <time>2012-09-19T19:28:39Z</time>
      </trkpt>
      <trkpt lat="37.2414306" lon="-109.9879954">
        <ele>1954.9782715</ele>
        <time>2012-09-19T19:28:41Z</time>
      </trkpt>
      <trkpt lat="37.2415395" lon="-109.9878593">
        <ele>1955.4589844</ele>
        <time>2012-09-19T19:28:43Z</time>
      </trkpt>
      <trkpt lat="37.2416397" lon="-109.9877083">
        <ele>1955.9394531</ele>
        <time>2012-09-19T19:28:45Z</time>
      </trkpt>
      <trkpt lat="37.2417210" lon="-109.9875460">
        <ele>1955.9394531</ele>
        <time>2012-09-19T19:28:47Z</time>
      </trkpt>
      <trkpt lat="37.2417826" lon="-109.9873794">
        <ele>1956.4201660</ele>
        <time>2012-09-19T19:28:49Z</time>
      </trkpt>
      <trkpt lat="37.2418363" lon="-109.9872085">
        <ele>1956.4201660</ele>
        <time>2012-09-19T19:28:51Z</time>
      </trkpt>
      <trkpt lat="37.2418879" lon="-109.9870261">
        <ele>1956.4201660</ele>
        <time>2012-09-19T19:28:53Z</time>
      </trkpt>
      <trkpt lat="37.2419475" lon="-109.9868380">
        <ele>1956.9008789</ele>
        <time>2012-09-19T19:28:55Z</time>
      </trkpt>
      <trkpt lat="37.2420056" lon="-109.9866427">
        <ele>1956.4201660</ele>
        <time>2012-09-19T19:28:57Z</time>
      </trkpt>
      <trkpt lat="37.2420609" lon="-109.9864473">
        <ele>1955.9394531</ele>
        <time>2012-09-19T19:28:59Z</time>
      </trkpt>
      <trkpt lat="37.2421112" lon="-109.9862580">
        <ele>1955.9394531</ele>
        <time>2012-09-19T19:29:01Z</time>
      </trkpt>
      <trkpt lat="37.2421641" lon="-109.9860724">
        <ele>1955.9394531</ele>
        <time>2012-09-19T19:29:03Z</time>
      </trkpt>
      <trkpt lat="37.2422198" lon="-109.9858854">
        <ele>1955.9394531</ele>
        <time>2012-09-19T19:29:05Z</time>
      </trkpt>
      <trkpt lat="37.2422638" lon="-109.9856926">
        <ele>1955.4589844</ele>
        <time>2012-09-19T19:29:07Z</time>
      </trkpt>
      <trkpt lat="37.2422848" lon="-109.9854974">
        <ele>1956.4201660</ele>
        <time>2012-09-19T19:29:09Z</time>
      </trkpt>
      <trkpt lat="37.2422785" lon="-109.9853032">
        <ele>1955.9394531</ele>
        <time>2012-09-19T19:29:11Z</time>
      </trkpt>
      <trkpt lat="37.2422463" lon="-109.9851156">
        <ele>1957.8623047</ele>
        <time>2012-09-19T19:29:13Z</time>
      </trkpt>
      <trkpt lat="37.2422009" lon="-109.9849306">
        <ele>1957.3815918</ele>
        <time>2012-09-19T19:29:15Z</time>
      </trkpt>
      <trkpt lat="37.2421506" lon="-109.9847452">
        <ele>1958.3427734</ele>
        <time>2012-09-19T19:29:17Z</time>
      </trkpt>
      <trkpt lat="37.2420983" lon="-109.9845643">
        <ele>1958.3427734</ele>
        <time>2012-09-19T19:29:19Z</time>
      </trkpt>
      <trkpt lat="37.2420345" lon="-109.9843930">
        <ele>1958.8234863</ele>
        <time>2012-09-19T19:29:21Z</time>
      </trkpt>
      <trkpt lat="37.2419237" lon="-109.9842012">
        <ele>1959.3041992</ele>
        <time>2012-09-19T19:29:24Z</time>
      </trkpt>
      <trkpt lat="37.2417984" lon="-109.9840395">
        <ele>1959.7846680</ele>
        <time>2012-09-19T19:29:27Z</time>
      </trkpt>
      <trkpt lat="37.2416545" lon="-109.9838818">
        <ele>1959.3041992</ele>
        <time>2012-09-19T19:29:30Z</time>
      </trkpt>
      <trkpt lat="37.2414954" lon="-109.9837336">
        <ele>1961.2268066</ele>
        <time>2012-09-19T19:29:33Z</time>
      </trkpt>
      <trkpt lat="37.2413250" lon="-109.9836004">
        <ele>1961.2268066</ele>
        <time>2012-09-19T19:29:36Z</time>
      </trkpt>
      <trkpt lat="37.2411383" lon="-109.9834672">
        <ele>1960.2653809</ele>
        <time>2012-09-19T19:29:39Z</time>
      </trkpt>
      <trkpt lat="37.2409976" lon="-109.9833697">
        <ele>1958.8234863</ele>
        <time>2012-09-19T19:29:41Z</time>
      </trkpt>
      <trkpt lat="37.2408271" lon="-109.9832475">
        <ele>1956.9008789</ele>
        <time>2012-09-19T19:29:43Z</time>
      </trkpt>
      <trkpt lat="37.2406650" lon="-109.9831332">
        <ele>1960.7460938</ele>
        <time>2012-09-19T19:29:45Z</time>
      </trkpt>
      <trkpt lat="37.2405230" lon="-109.9830348">
        <ele>1962.6687012</ele>
        <time>2012-09-19T19:29:47Z</time>
      </trkpt>
      <trkpt lat="37.2403918" lon="-109.9829401">
        <ele>1963.6298828</ele>
        <time>2012-09-19T19:29:49Z</time>
      </trkpt>
      <trkpt lat="37.2402737" lon="-109.9828395">
        <ele>1963.6298828</ele>
        <time>2012-09-19T19:29:51Z</time>
      </trkpt>
      <trkpt lat="37.2401191" lon="-109.9826582">
        <ele>1963.1494141</ele>
        <time>2012-09-19T19:29:54Z</time>
      </trkpt>
      <trkpt lat="37.2400267" lon="-109.9825235">
        <ele>1962.6687012</ele>
        <time>2012-09-19T19:29:56Z</time>
      </trkpt>
      <trkpt lat="37.2398973" lon="-109.9823148">
        <ele>1962.1879883</ele>
        <time>2012-09-19T19:29:59Z</time>
      </trkpt>
      <trkpt lat="37.2397766" lon="-109.9821079">
        <ele>1961.2268066</ele>
        <time>2012-09-19T19:30:02Z</time>
      </trkpt>
      <trkpt lat="37.2396541" lon="-109.9819050">
        <ele>1958.3427734</ele>
        <time>2012-09-19T19:30:05Z</time>
      </trkpt>
      <trkpt lat="37.2395195" lon="-109.9816884">
        <ele>1957.3815918</ele>
        <time>2012-09-19T19:30:08Z</time>
      </trkpt>
      <trkpt lat="37.2394329" lon="-109.9815460">
        <ele>1956.9008789</ele>
        <time>2012-09-19T19:30:10Z</time>
      </trkpt>
      <trkpt lat="37.2393166" lon="-109.9813480">
        <ele>1956.4201660</ele>
        <time>2012-09-19T19:30:13Z</time>
      </trkpt>
      <trkpt lat="37.2392045" lon="-109.9811599">
        <ele>1954.9782715</ele>
        <time>2012-09-19T19:30:16Z</time>
      </trkpt>
      <trkpt lat="37.2390932" lon="-109.9809740">
        <ele>1954.9782715</ele>
        <time>2012-09-19T19:30:19Z</time>
      </trkpt>
      <trkpt lat="37.2389746" lon="-109.9807814">
        <ele>1952.5749512</ele>
        <time>2012-09-19T19:30:22Z</time>
      </trkpt>
      <trkpt lat="37.2388540" lon="-109.9806422">
        <ele>1951.6137695</ele>
        <time>2012-09-19T19:30:25Z</time>
      </trkpt>
      <trkpt lat="37.2386937" lon="-109.9805416">
        <ele>1951.6137695</ele>
        <time>2012-09-19T19:30:29Z</time>
      </trkpt>
      <trkpt lat="37.2385374" lon="-109.9805065">
        <ele>1951.1330566</ele>
        <time>2012-09-19T19:30:33Z</time>
      </trkpt>
      <trkpt lat="37.2383891" lon="-109.9804780">
        <ele>1949.6911621</ele>
        <time>2012-09-19T19:30:37Z</time>
      </trkpt>
      <trkpt lat="37.2382479" lon="-109.9803541">
        <ele>1949.6911621</ele>
        <time>2012-09-19T19:30:42Z</time>
      </trkpt>
      <trkpt lat="37.2381757" lon="-109.9801587">
        <ele>1949.2104492</ele>
        <time>2012-09-19T19:30:47Z</time>
      </trkpt>
      <trkpt lat="37.2382069" lon="-109.9799594">
        <ele>1949.6911621</ele>
        <time>2012-09-19T19:30:51Z</time>
      </trkpt>
      <trkpt lat="37.2382988" lon="-109.9798019">
        <ele>1950.6523438</ele>
        <time>2012-09-19T19:30:54Z</time>
      </trkpt>
      <trkpt lat="37.2383980" lon="-109.9796157">
        <ele>1952.0942383</ele>
        <time>2012-09-19T19:30:57Z</time>
      </trkpt>
      <trkpt lat="37.2385005" lon="-109.9794438">
        <ele>1953.5363770</ele>
        <time>2012-09-19T19:31:00Z</time>
      </trkpt>
      <trkpt lat="37.2386100" lon="-109.9792526">
        <ele>1952.5749512</ele>
        <time>2012-09-19T19:31:03Z</time>
      </trkpt>
      <trkpt lat="37.2387293" lon="-109.9790279">
        <ele>1949.6911621</ele>
        <time>2012-09-19T19:31:06Z</time>
      </trkpt>
      <trkpt lat="37.2388527" lon="-109.9787942">
        <ele>1951.1330566</ele>
        <time>2012-09-19T19:31:09Z</time>
      </trkpt>
      <trkpt lat="37.2389793" lon="-109.9785710">
        <ele>1951.1330566</ele>
        <time>2012-09-19T19:31:12Z</time>
      </trkpt>
      <trkpt lat="37.2390698" lon="-109.9784131">
        <ele>1952.5749512</ele>
        <time>2012-09-19T19:31:14Z</time>
      </trkpt>
      <trkpt lat="37.2391594" lon="-109.9782554">
        <ele>1952.5749512</ele>
        <time>2012-09-19T19:31:16Z</time>
      </trkpt>
      <trkpt lat="37.2392502" lon="-109.9780992">
        <ele>1953.5363770</ele>
        <time>2012-09-19T19:31:18Z</time>
      </trkpt>
      <trkpt lat="37.2393480" lon="-109.9779557">
        <ele>1952.5749512</ele>
        <time>2012-09-19T19:31:20Z</time>
      </trkpt>
      <trkpt lat="37.2395044" lon="-109.9777676">
        <ele>1952.0942383</ele>
        <time>2012-09-19T19:31:23Z</time>
      </trkpt>
      <trkpt lat="37.2396699" lon="-109.9776092">
        <ele>1951.1330566</ele>
        <time>2012-09-19T19:31:26Z</time>
      </trkpt>
      <trkpt lat="37.2398439" lon="-109.9775004">
        <ele>1950.6523438</ele>
        <time>2012-09-19T19:31:29Z</time>
      </trkpt>
      <trkpt lat="37.2400014" lon="-109.9774350">
        <ele>1950.6523438</ele>
        <time>2012-09-19T19:31:32Z</time>
      </trkpt>
      <trkpt lat="37.2401449" lon="-109.9774030">
        <ele>1950.6523438</ele>
        <time>2012-09-19T19:31:35Z</time>
      </trkpt>
      <trkpt lat="37.2403288" lon="-109.9773808">
        <ele>1950.6523438</ele>
        <time>2012-09-19T19:31:39Z</time>
      </trkpt>
      <trkpt lat="37.2405230" lon="-109.9773688">
        <ele>1950.6523438</ele>
        <time>2012-09-19T19:31:43Z</time>
      </trkpt>
      <trkpt lat="37.2406746" lon="-109.9773551">
        <ele>1950.6523438</ele>
        <time>2012-09-19T19:31:46Z</time>
      </trkpt>
      <trkpt lat="37.2408306" lon="-109.9773435">
        <ele>1950.1718750</ele>
        <time>2012-09-19T19:31:49Z</time>
      </trkpt>
      <trkpt lat="37.2410206" lon="-109.9773243">
        <ele>1950.6523438</ele>
        <time>2012-09-19T19:31:53Z</time>
      </trkpt>
      <trkpt lat="37.2412209" lon="-109.9773075">
        <ele>1951.6137695</ele>
        <time>2012-09-19T19:31:57Z</time>
      </trkpt>
      <trkpt lat="37.2413807" lon="-109.9772945">
        <ele>1951.6137695</ele>
        <time>2012-09-19T19:32:00Z</time>
      </trkpt>
      <trkpt lat="37.2415581" lon="-109.9772762">
        <ele>1952.0942383</ele>
        <time>2012-09-19T19:32:03Z</time>
      </trkpt>
      <trkpt lat="37.2417583" lon="-109.9772563">
        <ele>1952.5749512</ele>
        <time>2012-09-19T19:32:06Z</time>
      </trkpt>
      <trkpt lat="37.2419004" lon="-109.9772445">
        <ele>1954.4975586</ele>
        <time>2012-09-19T19:32:08Z</time>
      </trkpt>
      <trkpt lat="37.2421086" lon="-109.9772200">
        <ele>1954.9782715</ele>
        <time>2012-09-19T19:32:11Z</time>
      </trkpt>
      <trkpt lat="37.2423182" lon="-109.9772006">
        <ele>1955.4589844</ele>
        <time>2012-09-19T19:32:14Z</time>
      </trkpt>
      <trkpt lat="37.2425308" lon="-109.9771754">
        <ele>1955.9394531</ele>
        <time>2012-09-19T19:32:17Z</time>
      </trkpt>
      <trkpt lat="37.2427391" lon="-109.9771529">
        <ele>1955.9394531</ele>
        <time>2012-09-19T19:32:20Z</time>
      </trkpt>
      <trkpt lat="37.2429281" lon="-109.9771322">
        <ele>1955.9394531</ele>
        <time>2012-09-19T19:32:23Z</time>
      </trkpt>
      <trkpt lat="37.2430949" lon="-109.9771151">
        <ele>1955.4589844</ele>
        <time>2012-09-19T19:32:26Z</time>
      </trkpt>
      <trkpt lat="37.2432716" lon="-109.9770966">
        <ele>1956.4201660</ele>
        <time>2012-09-19T19:32:29Z</time>
      </trkpt>
      <trkpt lat="37.2434535" lon="-109.9770874">
        <ele>1955.9394531</ele>
        <time>2012-09-19T19:32:33Z</time>
      </trkpt>
      <trkpt lat="37.2436140" lon="-109.9770708">
        <ele>1956.4201660</ele>
        <time>2012-09-19T19:32:37Z</time>
      </trkpt>
      <trkpt lat="37.2437704" lon="-109.9770475">
        <ele>1955.4589844</ele>
        <time>2012-09-19T19:32:40Z</time>
      </trkpt>
      <trkpt lat="37.2439595" lon="-109.9770174">
        <ele>1955.4589844</ele>
        <time>2012-09-19T19:32:43Z</time>
      </trkpt>
      <trkpt lat="37.2441578" lon="-109.9769932">
        <ele>1955.9394531</ele>
        <time>2012-09-19T19:32:46Z</time>
      </trkpt>
      <trkpt lat="37.2443773" lon="-109.9769761">
        <ele>1955.9394531</ele>
        <time>2012-09-19T19:32:49Z</time>
      </trkpt>
      <trkpt lat="37.2445323" lon="-109.9769607">
        <ele>1956.4201660</ele>
        <time>2012-09-19T19:32:51Z</time>
      </trkpt>
      <trkpt lat="37.2446938" lon="-109.9769436">
        <ele>1957.3815918</ele>
        <time>2012-09-19T19:32:53Z</time>
      </trkpt>
      <trkpt lat="37.2448576" lon="-109.9769275">
        <ele>1957.8623047</ele>
        <time>2012-09-19T19:32:55Z</time>
      </trkpt>
      <trkpt lat="37.2450213" lon="-109.9769083">
        <ele>1959.3041992</ele>
        <time>2012-09-19T19:32:57Z</time>
      </trkpt>
      <trkpt lat="37.2451804" lon="-109.9768897">
        <ele>1959.7846680</ele>
        <time>2012-09-19T19:32:59Z</time>
      </trkpt>
      <trkpt lat="37.2453333" lon="-109.9768721">
        <ele>1959.3041992</ele>
        <time>2012-09-19T19:33:01Z</time>
      </trkpt>
      <trkpt lat="37.2454820" lon="-109.9768543">
        <ele>1960.7460938</ele>
        <time>2012-09-19T19:33:03Z</time>
      </trkpt>
      <trkpt lat="37.2456283" lon="-109.9768347">
        <ele>1960.7460938</ele>
        <time>2012-09-19T19:33:05Z</time>
      </trkpt>
      <trkpt lat="37.2458528" lon="-109.9767928">
        <ele>1959.7846680</ele>
        <time>2012-09-19T19:33:08Z</time>
      </trkpt>
      <trkpt lat="37.2460003" lon="-109.9767542">
        <ele>1959.3041992</ele>
        <time>2012-09-19T19:33:10Z</time>
      </trkpt>
      <trkpt lat="37.2461445" lon="-109.9767051">
        <ele>1959.3041992</ele>
        <time>2012-09-19T19:33:12Z</time>
      </trkpt>
      <trkpt lat="37.2462974" lon="-109.9766527">
        <ele>1959.7846680</ele>
        <time>2012-09-19T19:33:14Z</time>
      </trkpt>
      <trkpt lat="37.2464542" lon="-109.9765975">
        <ele>1960.7460938</ele>
        <time>2012-09-19T19:33:16Z</time>
      </trkpt>
      <trkpt lat="37.2466002" lon="-109.9765372">
        <ele>1959.3041992</ele>
        <time>2012-09-19T19:33:18Z</time>
      </trkpt>
      <trkpt lat="37.2467349" lon="-109.9764747">
        <ele>1959.7846680</ele>
        <time>2012-09-19T19:33:20Z</time>
      </trkpt>
      <trkpt lat="37.2469313" lon="-109.9763788">
        <ele>1959.3041992</ele>
        <time>2012-09-19T19:33:23Z</time>
      </trkpt>
      <trkpt lat="37.2471354" lon="-109.9762686">
        <ele>1957.8623047</ele>
        <time>2012-09-19T19:33:26Z</time>
      </trkpt>
      <trkpt lat="37.2472769" lon="-109.9761945">
        <ele>1957.3815918</ele>
        <time>2012-09-19T19:33:28Z</time>
      </trkpt>
      <trkpt lat="37.2474142" lon="-109.9761198">
        <ele>1956.9008789</ele>
        <time>2012-09-19T19:33:30Z</time>
      </trkpt>
      <trkpt lat="37.2475488" lon="-109.9760386">
        <ele>1955.4589844</ele>
        <time>2012-09-19T19:33:32Z</time>
      </trkpt>
      <trkpt lat="37.2477528" lon="-109.9759178">
        <ele>1954.4975586</ele>
        <time>2012-09-19T19:33:35Z</time>
      </trkpt>
      <trkpt lat="37.2478880" lon="-109.9758361">
        <ele>1953.0556641</ele>
        <time>2012-09-19T19:33:37Z</time>
      </trkpt>
      <trkpt lat="37.2480228" lon="-109.9757514">
        <ele>1953.0556641</ele>
        <time>2012-09-19T19:33:39Z</time>
      </trkpt>
      <trkpt lat="37.2481637" lon="-109.9756651">
        <ele>1953.0556641</ele>
        <time>2012-09-19T19:33:41Z</time>
      </trkpt>
      <trkpt lat="37.2483073" lon="-109.9755787">
        <ele>1953.5363770</ele>
        <time>2012-09-19T19:33:43Z</time>
      </trkpt>
      <trkpt lat="37.2484500" lon="-109.9754867">
        <ele>1953.0556641</ele>
        <time>2012-09-19T19:33:45Z</time>
      </trkpt>
      <trkpt lat="37.2485967" lon="-109.9754004">
        <ele>1952.5749512</ele>
        <time>2012-09-19T19:33:47Z</time>
      </trkpt>
      <trkpt lat="37.2487473" lon="-109.9753152">
        <ele>1952.5749512</ele>
        <time>2012-09-19T19:33:49Z</time>
      </trkpt>
      <trkpt lat="37.2488978" lon="-109.9752257">
        <ele>1953.0556641</ele>
        <time>2012-09-19T19:33:51Z</time>
      </trkpt>
      <trkpt lat="37.2490458" lon="-109.9751388">
        <ele>1953.5363770</ele>
        <time>2012-09-19T19:33:53Z</time>
      </trkpt>
      <trkpt lat="37.2491888" lon="-109.9750569">
        <ele>1954.0170898</ele>
        <time>2012-09-19T19:33:55Z</time>
      </trkpt>
      <trkpt lat="37.2493291" lon="-109.9749754">
        <ele>1954.4975586</ele>
        <time>2012-09-19T19:33:57Z</time>
      </trkpt>
      <trkpt lat="37.2494711" lon="-109.9748906">
        <ele>1954.4975586</ele>
        <time>2012-09-19T19:33:59Z</time>
      </trkpt>
      <trkpt lat="37.2496156" lon="-109.9748060">
        <ele>1954.9782715</ele>
        <time>2012-09-19T19:34:01Z</time>
      </trkpt>
      <trkpt lat="37.2497586" lon="-109.9747233">
        <ele>1955.9394531</ele>
        <time>2012-09-19T19:34:03Z</time>
      </trkpt>
      <trkpt lat="37.2499027" lon="-109.9746403">
        <ele>1955.9394531</ele>
        <time>2012-09-19T19:34:05Z</time>
      </trkpt>
      <trkpt lat="37.2500478" lon="-109.9745602">
        <ele>1957.3815918</ele>
        <time>2012-09-19T19:34:07Z</time>
      </trkpt>
      <trkpt lat="37.2501942" lon="-109.9744831">
        <ele>1957.3815918</ele>
        <time>2012-09-19T19:34:09Z</time>
      </trkpt>
      <trkpt lat="37.2503419" lon="-109.9743992">
        <ele>1958.3427734</ele>
        <time>2012-09-19T19:34:11Z</time>
      </trkpt>
      <trkpt lat="37.2504852" lon="-109.9743199">
        <ele>1958.3427734</ele>
        <time>2012-09-19T19:34:13Z</time>
      </trkpt>
      <trkpt lat="37.2506267" lon="-109.9742405">
        <ele>1958.8234863</ele>
        <time>2012-09-19T19:34:15Z</time>
      </trkpt>
      <trkpt lat="37.2507697" lon="-109.9741587">
        <ele>1959.7846680</ele>
        <time>2012-09-19T19:34:17Z</time>
      </trkpt>
      <trkpt lat="37.2509096" lon="-109.9740774">
        <ele>1960.2653809</ele>
        <time>2012-09-19T19:34:19Z</time>
      </trkpt>
      <trkpt lat="37.2510418" lon="-109.9739985">
        <ele>1960.7460938</ele>
        <time>2012-09-19T19:34:21Z</time>
      </trkpt>
      <trkpt lat="37.2512340" lon="-109.9738812">
        <ele>1960.2653809</ele>
        <time>2012-09-19T19:34:24Z</time>
      </trkpt>
      <trkpt lat="37.2514358" lon="-109.9737810">
        <ele>1960.7460938</ele>
        <time>2012-09-19T19:34:27Z</time>
      </trkpt>
      <trkpt lat="37.2515727" lon="-109.9737049">
        <ele>1960.2653809</ele>
        <time>2012-09-19T19:34:29Z</time>
      </trkpt>
      <trkpt lat="37.2517114" lon="-109.9736268">
        <ele>1959.7846680</ele>
        <time>2012-09-19T19:34:31Z</time>
      </trkpt>
      <trkpt lat="37.2518512" lon="-109.9735474">
        <ele>1959.3041992</ele>
        <time>2012-09-19T19:34:33Z</time>
      </trkpt>
      <trkpt lat="37.2519924" lon="-109.9734651">
        <ele>1959.3041992</ele>
        <time>2012-09-19T19:34:35Z</time>
      </trkpt>
      <trkpt lat="37.2521330" lon="-109.9733836">
        <ele>1959.3041992</ele>
        <time>2012-09-19T19:34:37Z</time>
      </trkpt>
      <trkpt lat="37.2522695" lon="-109.9733056">
        <ele>1958.3427734</ele>
        <time>2012-09-19T19:34:39Z</time>
      </trkpt>
      <trkpt lat="37.2524031" lon="-109.9732289">
        <ele>1958.8234863</ele>
        <time>2012-09-19T19:34:41Z</time>
      </trkpt>
      <trkpt lat="37.2525371" lon="-109.9731538">
        <ele>1958.3427734</ele>
        <time>2012-09-19T19:34:43Z</time>
      </trkpt>
      <trkpt lat="37.2526703" lon="-109.9730774">
        <ele>1957.8623047</ele>
        <time>2012-09-19T19:34:45Z</time>
      </trkpt>
      <trkpt lat="37.2528085" lon="-109.9729984">
        <ele>1958.3427734</ele>
        <time>2012-09-19T19:34:47Z</time>
      </trkpt>
      <trkpt lat="37.2529490" lon="-109.9729151">
        <ele>1957.3815918</ele>
        <time>2012-09-19T19:34:49Z</time>
      </trkpt>
      <trkpt lat="37.2530868" lon="-109.9728377">
        <ele>1956.9008789</ele>
        <time>2012-09-19T19:34:51Z</time>
      </trkpt>
      <trkpt lat="37.2532774" lon="-109.9727312">
        <ele>1955.9394531</ele>
        <time>2012-09-19T19:34:54Z</time>
      </trkpt>
      <trkpt lat="37.2534696" lon="-109.9726066">
        <ele>1955.9394531</ele>
        <time>2012-09-19T19:34:57Z</time>
      </trkpt>
      <trkpt lat="37.2536536" lon="-109.9724895">
        <ele>1955.9394531</ele>
        <time>2012-09-19T19:35:00Z</time>
      </trkpt>
      <trkpt lat="37.2537846" lon="-109.9724135">
        <ele>1955.4589844</ele>
        <time>2012-09-19T19:35:02Z</time>
      </trkpt>
      <trkpt lat="37.2539882" lon="-109.9722966">
        <ele>1956.9008789</ele>
        <time>2012-09-19T19:35:05Z</time>
      </trkpt>
      <trkpt lat="37.2541296" lon="-109.9722172">
        <ele>1956.4201660</ele>
        <time>2012-09-19T19:35:07Z</time>
      </trkpt>
      <trkpt lat="37.2542709" lon="-109.9721403">
        <ele>1957.3815918</ele>
        <time>2012-09-19T19:35:09Z</time>
      </trkpt>
      <trkpt lat="37.2544037" lon="-109.9720624">
        <ele>1956.9008789</ele>
        <time>2012-09-19T19:35:11Z</time>
      </trkpt>
      <trkpt lat="37.2546003" lon="-109.9719478">
        <ele>1955.9394531</ele>
        <time>2012-09-19T19:35:14Z</time>
      </trkpt>
      <trkpt lat="37.2547402" lon="-109.9718676">
        <ele>1954.9782715</ele>
        <time>2012-09-19T19:35:16Z</time>
      </trkpt>
      <trkpt lat="37.2548764" lon="-109.9717883">
        <ele>1954.4975586</ele>
        <time>2012-09-19T19:35:18Z</time>
      </trkpt>
      <trkpt lat="37.2550097" lon="-109.9717127">
        <ele>1954.9782715</ele>
        <time>2012-09-19T19:35:20Z</time>
      </trkpt>
      <trkpt lat="37.2551464" lon="-109.9716342">
        <ele>1954.9782715</ele>
        <time>2012-09-19T19:35:22Z</time>
      </trkpt>
      <trkpt lat="37.2552858" lon="-109.9715501">
        <ele>1955.4589844</ele>
        <time>2012-09-19T19:35:24Z</time>
      </trkpt>
      <trkpt lat="37.2554258" lon="-109.9714619">
        <ele>1955.4589844</ele>
        <time>2012-09-19T19:35:26Z</time>
      </trkpt>
      <trkpt lat="37.2555708" lon="-109.9713763">
        <ele>1954.9782715</ele>
        <time>2012-09-19T19:35:28Z</time>
      </trkpt>
      <trkpt lat="37.2557219" lon="-109.9712874">
        <ele>1955.4589844</ele>
        <time>2012-09-19T19:35:30Z</time>
      </trkpt>
      <trkpt lat="37.2558722" lon="-109.9712010">
        <ele>1955.9394531</ele>
        <time>2012-09-19T19:35:32Z</time>
      </trkpt>
      <trkpt lat="37.2560204" lon="-109.9711163">
        <ele>1956.9008789</ele>
        <time>2012-09-19T19:35:34Z</time>
      </trkpt>
      <trkpt lat="37.2561689" lon="-109.9710330">
        <ele>1957.3815918</ele>
        <time>2012-09-19T19:35:36Z</time>
      </trkpt>
      <trkpt lat="37.2563185" lon="-109.9709455">
        <ele>1958.3427734</ele>
        <time>2012-09-19T19:35:38Z</time>
      </trkpt>
      <trkpt lat="37.2564674" lon="-109.9708578">
        <ele>1957.8623047</ele>
        <time>2012-09-19T19:35:40Z</time>
      </trkpt>
      <trkpt lat="37.2566185" lon="-109.9707688">
        <ele>1958.8234863</ele>
        <time>2012-09-19T19:35:42Z</time>
      </trkpt>
      <trkpt lat="37.2567714" lon="-109.9706804">
        <ele>1958.8234863</ele>
        <time>2012-09-19T19:35:44Z</time>
      </trkpt>
      <trkpt lat="37.2569248" lon="-109.9705923">
        <ele>1959.3041992</ele>
        <time>2012-09-19T19:35:46Z</time>
      </trkpt>
      <trkpt lat="37.2570786" lon="-109.9705040">
        <ele>1958.8234863</ele>
        <time>2012-09-19T19:35:48Z</time>
      </trkpt>
      <trkpt lat="37.2572366" lon="-109.9704115">
        <ele>1958.3427734</ele>
        <time>2012-09-19T19:35:50Z</time>
      </trkpt>
      <trkpt lat="37.2573961" lon="-109.9703201">
        <ele>1958.3427734</ele>
        <time>2012-09-19T19:35:52Z</time>
      </trkpt>
      <trkpt lat="37.2575562" lon="-109.9702270">
        <ele>1957.8623047</ele>
        <time>2012-09-19T19:35:54Z</time>
      </trkpt>
      <trkpt lat="37.2577204" lon="-109.9701313">
        <ele>1958.3427734</ele>
        <time>2012-09-19T19:35:56Z</time>
      </trkpt>
      <trkpt lat="37.2578894" lon="-109.9700332">
        <ele>1957.8623047</ele>
        <time>2012-09-19T19:35:58Z</time>
      </trkpt>
      <trkpt lat="37.2580614" lon="-109.9699323">
        <ele>1957.8623047</ele>
        <time>2012-09-19T19:36:00Z</time>
      </trkpt>
      <trkpt lat="37.2582338" lon="-109.9698339">
        <ele>1957.8623047</ele>
        <time>2012-09-19T19:36:02Z</time>
      </trkpt>
      <trkpt lat="37.2584025" lon="-109.9697359">
        <ele>1957.8623047</ele>
        <time>2012-09-19T19:36:04Z</time>
      </trkpt>
      <trkpt lat="37.2585695" lon="-109.9696406">
        <ele>1957.3815918</ele>
        <time>2012-09-19T19:36:06Z</time>
      </trkpt>
      <trkpt lat="37.2587290" lon="-109.9695458">
        <ele>1957.8623047</ele>
        <time>2012-09-19T19:36:08Z</time>
      </trkpt>
      <trkpt lat="37.2588778" lon="-109.9694562">
        <ele>1958.3427734</ele>
        <time>2012-09-19T19:36:10Z</time>
      </trkpt>
      <trkpt lat="37.2590262" lon="-109.9693703">
        <ele>1957.8623047</ele>
        <time>2012-09-19T19:36:12Z</time>
      </trkpt>
      <trkpt lat="37.2591749" lon="-109.9692857">
        <ele>1958.8234863</ele>
        <time>2012-09-19T19:36:14Z</time>
      </trkpt>
      <trkpt lat="37.2593257" lon="-109.9692012">
        <ele>1957.8623047</ele>
        <time>2012-09-19T19:36:16Z</time>
      </trkpt>
      <trkpt lat="37.2594783" lon="-109.9691168">
        <ele>1958.8234863</ele>
        <time>2012-09-19T19:36:18Z</time>
      </trkpt>
      <trkpt lat="37.2596308" lon="-109.9690364">
        <ele>1959.3041992</ele>
        <time>2012-09-19T19:36:20Z</time>
      </trkpt>
      <trkpt lat="37.2597806" lon="-109.9689531">
        <ele>1959.3041992</ele>
        <time>2012-09-19T19:36:22Z</time>
      </trkpt>
      <trkpt lat="37.2599228" lon="-109.9688735">
        <ele>1959.7846680</ele>
        <time>2012-09-19T19:36:24Z</time>
      </trkpt>
      <trkpt lat="37.2601196" lon="-109.9687645">
        <ele>1960.7460938</ele>
        <time>2012-09-19T19:36:27Z</time>
      </trkpt>
      <trkpt lat="37.2603056" lon="-109.9686604">
        <ele>1960.2653809</ele>
        <time>2012-09-19T19:36:30Z</time>
      </trkpt>
      <trkpt lat="37.2604308" lon="-109.9685897">
        <ele>1960.2653809</ele>
        <time>2012-09-19T19:36:32Z</time>
      </trkpt>
      <trkpt lat="37.2606245" lon="-109.9684781">
        <ele>1958.8234863</ele>
        <time>2012-09-19T19:36:35Z</time>
      </trkpt>
      <trkpt lat="37.2608192" lon="-109.9683682">
        <ele>1958.8234863</ele>
        <time>2012-09-19T19:36:38Z</time>
      </trkpt>
      <trkpt lat="37.2610117" lon="-109.9682580">
        <ele>1959.7846680</ele>
        <time>2012-09-19T19:36:41Z</time>
      </trkpt>
      <trkpt lat="37.2612083" lon="-109.9681455">
        <ele>1959.3041992</ele>
        <time>2012-09-19T19:36:44Z</time>
      </trkpt>
      <trkpt lat="37.2613419" lon="-109.9680685">
        <ele>1958.8234863</ele>
        <time>2012-09-19T19:36:46Z</time>
      </trkpt>
      <trkpt lat="37.2615475" lon="-109.9679493">
        <ele>1957.3815918</ele>
        <time>2012-09-19T19:36:49Z</time>
      </trkpt>
      <trkpt lat="37.2616890" lon="-109.9678680">
        <ele>1955.4589844</ele>
        <time>2012-09-19T19:36:51Z</time>
      </trkpt>
      <trkpt lat="37.2618337" lon="-109.9677841">
        <ele>1955.9394531</ele>
        <time>2012-09-19T19:36:53Z</time>
      </trkpt>
      <trkpt lat="37.2619790" lon="-109.9677006">
        <ele>1954.9782715</ele>
        <time>2012-09-19T19:36:55Z</time>
      </trkpt>
      <trkpt lat="37.2621218" lon="-109.9676173">
        <ele>1954.9782715</ele>
        <time>2012-09-19T19:36:57Z</time>
      </trkpt>
      <trkpt lat="37.2623241" lon="-109.9674879">
        <ele>1954.4975586</ele>
        <time>2012-09-19T19:37:00Z</time>
      </trkpt>
      <trkpt lat="37.2625075" lon="-109.9673698">
        <ele>1955.4589844</ele>
        <time>2012-09-19T19:37:03Z</time>
      </trkpt>
      <trkpt lat="37.2626945" lon="-109.9672666">
        <ele>1954.4975586</ele>
        <time>2012-09-19T19:37:06Z</time>
      </trkpt>
      <trkpt lat="37.2628868" lon="-109.9671557">
        <ele>1954.9782715</ele>
        <time>2012-09-19T19:37:09Z</time>
      </trkpt>
      <trkpt lat="37.2630699" lon="-109.9670511">
        <ele>1956.9008789</ele>
        <time>2012-09-19T19:37:12Z</time>
      </trkpt>
      <trkpt lat="37.2632481" lon="-109.9669540">
        <ele>1956.4201660</ele>
        <time>2012-09-19T19:37:15Z</time>
      </trkpt>
      <trkpt lat="37.2634278" lon="-109.9668531">
        <ele>1955.9394531</ele>
        <time>2012-09-19T19:37:18Z</time>
      </trkpt>
      <trkpt lat="37.2636095" lon="-109.9667480">
        <ele>1955.4589844</ele>
        <time>2012-09-19T19:37:21Z</time>
      </trkpt>
      <trkpt lat="37.2637956" lon="-109.9666414">
        <ele>1955.9394531</ele>
        <time>2012-09-19T19:37:24Z</time>
      </trkpt>
      <trkpt lat="37.2639847" lon="-109.9665373">
        <ele>1955.4589844</ele>
        <time>2012-09-19T19:37:27Z</time>
      </trkpt>
      <trkpt lat="37.2641722" lon="-109.9664290">
        <ele>1955.4589844</ele>
        <time>2012-09-19T19:37:30Z</time>
      </trkpt>
      <trkpt lat="37.2643555" lon="-109.9663217">
        <ele>1954.9782715</ele>
        <time>2012-09-19T19:37:33Z</time>
      </trkpt>
      <trkpt lat="37.2645554" lon="-109.9662047">
        <ele>1955.4589844</ele>
        <time>2012-09-19T19:37:36Z</time>
      </trkpt>
      <trkpt lat="37.2646955" lon="-109.9661228">
        <ele>1955.4589844</ele>
        <time>2012-09-19T19:37:38Z</time>
      </trkpt>
      <trkpt lat="37.2648462" lon="-109.9660402">
        <ele>1954.9782715</ele>
        <time>2012-09-19T19:37:40Z</time>
      </trkpt>
      <trkpt lat="37.2649972" lon="-109.9659528">
        <ele>1955.4589844</ele>
        <time>2012-09-19T19:37:42Z</time>
      </trkpt>
      <trkpt lat="37.2651414" lon="-109.9658663">
        <ele>1954.9782715</ele>
        <time>2012-09-19T19:37:44Z</time>
      </trkpt>
      <trkpt lat="37.2652807" lon="-109.9657799">
        <ele>1955.4589844</ele>
        <time>2012-09-19T19:37:46Z</time>
      </trkpt>
      <trkpt lat="37.2654731" lon="-109.9656699">
        <ele>1955.9394531</ele>
        <time>2012-09-19T19:37:49Z</time>
      </trkpt>
      <trkpt lat="37.2656574" lon="-109.9655635">
        <ele>1957.3815918</ele>
        <time>2012-09-19T19:37:52Z</time>
      </trkpt>
      <trkpt lat="37.2658405" lon="-109.9654557">
        <ele>1958.8234863</ele>
        <time>2012-09-19T19:37:55Z</time>
      </trkpt>
      <trkpt lat="37.2660241" lon="-109.9653441">
        <ele>1959.7846680</ele>
        <time>2012-09-19T19:37:58Z</time>
      </trkpt>
      <trkpt lat="37.2662224" lon="-109.9652235">
        <ele>1959.3041992</ele>
        <time>2012-09-19T19:38:01Z</time>
      </trkpt>
      <trkpt lat="37.2663613" lon="-109.9651406">
        <ele>1960.2653809</ele>
        <time>2012-09-19T19:38:03Z</time>
      </trkpt>
      <trkpt lat="37.2664977" lon="-109.9650563">
        <ele>1961.2268066</ele>
        <time>2012-09-19T19:38:05Z</time>
      </trkpt>
      <trkpt lat="37.2666306" lon="-109.9649650">
        <ele>1962.6687012</ele>
        <time>2012-09-19T19:38:07Z</time>
      </trkpt>
      <trkpt lat="37.2667654" lon="-109.9648645">
        <ele>1963.1494141</ele>
        <time>2012-09-19T19:38:09Z</time>
      </trkpt>
      <trkpt lat="37.2669032" lon="-109.9647532">
        <ele>1962.6687012</ele>
        <time>2012-09-19T19:38:11Z</time>
      </trkpt>
      <trkpt lat="37.2670382" lon="-109.9646356">
        <ele>1962.6687012</ele>
        <time>2012-09-19T19:38:13Z</time>
      </trkpt>
      <trkpt lat="37.2671694" lon="-109.9645134">
        <ele>1963.6298828</ele>
        <time>2012-09-19T19:38:15Z</time>
      </trkpt>
      <trkpt lat="37.2672956" lon="-109.9643836">
        <ele>1964.1108398</ele>
        <time>2012-09-19T19:38:17Z</time>
      </trkpt>
      <trkpt lat="37.2674187" lon="-109.9642461">
        <ele>1965.0722656</ele>
        <time>2012-09-19T19:38:19Z</time>
      </trkpt>
      <trkpt lat="37.2675379" lon="-109.9640987">
        <ele>1965.0722656</ele>
        <time>2012-09-19T19:38:21Z</time>
      </trkpt>
      <trkpt lat="37.2676526" lon="-109.9639429">
        <ele>1965.5529785</ele>
        <time>2012-09-19T19:38:23Z</time>
      </trkpt>
      <trkpt lat="37.2677604" lon="-109.9637808">
        <ele>1966.5141602</ele>
        <time>2012-09-19T19:38:25Z</time>
      </trkpt>
      <trkpt lat="37.2678626" lon="-109.9636213">
        <ele>1967.4753418</ele>
        <time>2012-09-19T19:38:27Z</time>
      </trkpt>
      <trkpt lat="37.2679625" lon="-109.9634680">
        <ele>1967.9560547</ele>
        <time>2012-09-19T19:38:29Z</time>
      </trkpt>
      <trkpt lat="37.2680661" lon="-109.9633079">
        <ele>1968.4367676</ele>
        <time>2012-09-19T19:38:31Z</time>
      </trkpt>
      <trkpt lat="37.2681674" lon="-109.9631456">
        <ele>1969.3981934</ele>
        <time>2012-09-19T19:38:33Z</time>
      </trkpt>
      <trkpt lat="37.2682677" lon="-109.9629838">
        <ele>1969.3981934</ele>
        <time>2012-09-19T19:38:35Z</time>
      </trkpt>
      <trkpt lat="37.2683708" lon="-109.9628170">
        <ele>1968.4367676</ele>
        <time>2012-09-19T19:38:37Z</time>
      </trkpt>
      <trkpt lat="37.2684753" lon="-109.9626501">
        <ele>1968.9174805</ele>
        <time>2012-09-19T19:38:39Z</time>
      </trkpt>
      <trkpt lat="37.2685805" lon="-109.9624859">
        <ele>1969.8786621</ele>
        <time>2012-09-19T19:38:41Z</time>
      </trkpt>
      <trkpt lat="37.2686878" lon="-109.9623205">
        <ele>1970.3593750</ele>
        <time>2012-09-19T19:38:43Z</time>
      </trkpt>
      <trkpt lat="37.2687953" lon="-109.9621498">
        <ele>1969.3981934</ele>
        <time>2012-09-19T19:38:45Z</time>
      </trkpt>
      <trkpt lat="37.2689058" lon="-109.9619778">
        <ele>1970.8400879</ele>
        <time>2012-09-19T19:38:47Z</time>
      </trkpt>
      <trkpt lat="37.2690182" lon="-109.9618011">
        <ele>1970.8400879</ele>
        <time>2012-09-19T19:38:49Z</time>
      </trkpt>
      <trkpt lat="37.2691300" lon="-109.9616216">
        <ele>1971.3205566</ele>
        <time>2012-09-19T19:38:51Z</time>
      </trkpt>
      <trkpt lat="37.2692399" lon="-109.9614492">
        <ele>1971.8012695</ele>
        <time>2012-09-19T19:38:53Z</time>
      </trkpt>
      <trkpt lat="37.2693473" lon="-109.9612794">
        <ele>1972.7626953</ele>
        <time>2012-09-19T19:38:55Z</time>
      </trkpt>
      <trkpt lat="37.2694580" lon="-109.9611090">
        <ele>1973.2434082</ele>
        <time>2012-09-19T19:38:57Z</time>
      </trkpt>
      <trkpt lat="37.2695688" lon="-109.9609327">
        <ele>1972.7626953</ele>
        <time>2012-09-19T19:38:59Z</time>
      </trkpt>
      <trkpt lat="37.2696824" lon="-109.9607560">
        <ele>1972.7626953</ele>
        <time>2012-09-19T19:39:01Z</time>
      </trkpt>
      <trkpt lat="37.2697974" lon="-109.9605806">
        <ele>1971.8012695</ele>
        <time>2012-09-19T19:39:03Z</time>
      </trkpt>
      <trkpt lat="37.2699100" lon="-109.9604030">
        <ele>1971.3205566</ele>
        <time>2012-09-19T19:39:05Z</time>
      </trkpt>
      <trkpt lat="37.2700196" lon="-109.9602289">
        <ele>1970.8400879</ele>
        <time>2012-09-19T19:39:07Z</time>
      </trkpt>
      <trkpt lat="37.2701299" lon="-109.9600565">
        <ele>1971.8012695</ele>
        <time>2012-09-19T19:39:09Z</time>
      </trkpt>
      <trkpt lat="37.2702416" lon="-109.9598787">
        <ele>1971.3205566</ele>
        <time>2012-09-19T19:39:11Z</time>
      </trkpt>
      <trkpt lat="37.2703553" lon="-109.9596985">
        <ele>1970.8400879</ele>
        <time>2012-09-19T19:39:13Z</time>
      </trkpt>
      <trkpt lat="37.2704717" lon="-109.9595146">
        <ele>1970.8400879</ele>
        <time>2012-09-19T19:39:15Z</time>
      </trkpt>
      <trkpt lat="37.2705897" lon="-109.9593276">
        <ele>1971.3205566</ele>
        <time>2012-09-19T19:39:17Z</time>
      </trkpt>
      <trkpt lat="37.2707095" lon="-109.9591376">
        <ele>1970.3593750</ele>
        <time>2012-09-19T19:39:19Z</time>
      </trkpt>
      <trkpt lat="37.2708262" lon="-109.9589414">
        <ele>1969.8786621</ele>
        <time>2012-09-19T19:39:21Z</time>
      </trkpt>
      <trkpt lat="37.2709468" lon="-109.9587500">
        <ele>1969.3981934</ele>
        <time>2012-09-19T19:39:23Z</time>
      </trkpt>
      <trkpt lat="37.2710650" lon="-109.9585644">
        <ele>1969.3981934</ele>
        <time>2012-09-19T19:39:25Z</time>
      </trkpt>
      <trkpt lat="37.2711820" lon="-109.9583800">
        <ele>1969.3981934</ele>
        <time>2012-09-19T19:39:27Z</time>
      </trkpt>
      <trkpt lat="37.2713011" lon="-109.9581931">
        <ele>1969.3981934</ele>
        <time>2012-09-19T19:39:29Z</time>
      </trkpt>
      <trkpt lat="37.2714226" lon="-109.9579986">
        <ele>1969.8786621</ele>
        <time>2012-09-19T19:39:31Z</time>
      </trkpt>
      <trkpt lat="37.2715476" lon="-109.9577961">
        <ele>1969.8786621</ele>
        <time>2012-09-19T19:39:33Z</time>
      </trkpt>
      <trkpt lat="37.2716746" lon="-109.9575913">
        <ele>1969.3981934</ele>
        <time>2012-09-19T19:39:35Z</time>
      </trkpt>
      <trkpt lat="37.2718036" lon="-109.9573855">
        <ele>1968.9174805</ele>
        <time>2012-09-19T19:39:37Z</time>
      </trkpt>
      <trkpt lat="37.2719321" lon="-109.9571819">
        <ele>1968.4367676</ele>
        <time>2012-09-19T19:39:39Z</time>
      </trkpt>
      <trkpt lat="37.2720579" lon="-109.9569802">
        <ele>1970.3593750</ele>
        <time>2012-09-19T19:39:41Z</time>
      </trkpt>
      <trkpt lat="37.2721823" lon="-109.9567814">
        <ele>1969.3981934</ele>
        <time>2012-09-19T19:39:43Z</time>
      </trkpt>
      <trkpt lat="37.2723046" lon="-109.9565845">
        <ele>1969.3981934</ele>
        <time>2012-09-19T19:39:45Z</time>
      </trkpt>
      <trkpt lat="37.2724268" lon="-109.9563888">
        <ele>1969.3981934</ele>
        <time>2012-09-19T19:39:47Z</time>
      </trkpt>
      <trkpt lat="37.2725506" lon="-109.9562009">
        <ele>1969.8786621</ele>
        <time>2012-09-19T19:39:49Z</time>
      </trkpt>
      <trkpt lat="37.2726775" lon="-109.9560196">
        <ele>1969.8786621</ele>
        <time>2012-09-19T19:39:51Z</time>
      </trkpt>
      <trkpt lat="37.2728109" lon="-109.9558429">
        <ele>1971.3205566</ele>
        <time>2012-09-19T19:39:53Z</time>
      </trkpt>
      <trkpt lat="37.2729539" lon="-109.9556719">
        <ele>1971.3205566</ele>
        <time>2012-09-19T19:39:55Z</time>
      </trkpt>
      <trkpt lat="37.2730991" lon="-109.9555117">
        <ele>1970.8400879</ele>
        <time>2012-09-19T19:39:57Z</time>
      </trkpt>
      <trkpt lat="37.2732400" lon="-109.9553612">
        <ele>1971.8012695</ele>
        <time>2012-09-19T19:39:59Z</time>
      </trkpt>
      <trkpt lat="37.2733747" lon="-109.9552193">
        <ele>1972.2819824</ele>
        <time>2012-09-19T19:40:01Z</time>
      </trkpt>
      <trkpt lat="37.2735030" lon="-109.9550851">
        <ele>1971.8012695</ele>
        <time>2012-09-19T19:40:03Z</time>
      </trkpt>
      <trkpt lat="37.2736299" lon="-109.9549586">
        <ele>1971.8012695</ele>
        <time>2012-09-19T19:40:05Z</time>
      </trkpt>
      <trkpt lat="37.2737553" lon="-109.9548334">
        <ele>1972.2819824</ele>
        <time>2012-09-19T19:40:07Z</time>
      </trkpt>
      <trkpt lat="37.2738790" lon="-109.9547117">
        <ele>1971.8012695</ele>
        <time>2012-09-19T19:40:09Z</time>
      </trkpt>
      <trkpt lat="37.2740065" lon="-109.9545935">
        <ele>1971.8012695</ele>
        <time>2012-09-19T19:40:11Z</time>
      </trkpt>
      <trkpt lat="37.2741287" lon="-109.9544747">
        <ele>1970.3593750</ele>
        <time>2012-09-19T19:40:13Z</time>
      </trkpt>
      <trkpt lat="37.2742408" lon="-109.9543527">
        <ele>1969.8786621</ele>
        <time>2012-09-19T19:40:15Z</time>
      </trkpt>
      <trkpt lat="37.2743523" lon="-109.9542371">
        <ele>1970.3593750</ele>
        <time>2012-09-19T19:40:17Z</time>
      </trkpt>
      <trkpt lat="37.2744712" lon="-109.9541198">
        <ele>1969.8786621</ele>
        <time>2012-09-19T19:40:19Z</time>
      </trkpt>
      <trkpt lat="37.2745977" lon="-109.9539972">
        <ele>1970.3593750</ele>
        <time>2012-09-19T19:40:21Z</time>
      </trkpt>
      <trkpt lat="37.2747267" lon="-109.9538703">
        <ele>1970.3593750</ele>
        <time>2012-09-19T19:40:23Z</time>
      </trkpt>
      <trkpt lat="37.2748560" lon="-109.9537443">
        <ele>1970.3593750</ele>
        <time>2012-09-19T19:40:25Z</time>
      </trkpt>
      <trkpt lat="37.2749806" lon="-109.9536189">
        <ele>1970.8400879</ele>
        <time>2012-09-19T19:40:27Z</time>
      </trkpt>
      <trkpt lat="37.2751041" lon="-109.9534930">
        <ele>1970.8400879</ele>
        <time>2012-09-19T19:40:29Z</time>
      </trkpt>
      <trkpt lat="37.2752290" lon="-109.9533659">
        <ele>1970.3593750</ele>
        <time>2012-09-19T19:40:31Z</time>
      </trkpt>
      <trkpt lat="37.2753571" lon="-109.9532412">
        <ele>1970.8400879</ele>
        <time>2012-09-19T19:40:33Z</time>
      </trkpt>
      <trkpt lat="37.2754903" lon="-109.9531086">
        <ele>1971.8012695</ele>
        <time>2012-09-19T19:40:35Z</time>
      </trkpt>
      <trkpt lat="37.2756337" lon="-109.9529607">
        <ele>1971.3205566</ele>
        <time>2012-09-19T19:40:37Z</time>
      </trkpt>
      <trkpt lat="37.2757892" lon="-109.9528011">
        <ele>1970.3593750</ele>
        <time>2012-09-19T19:40:39Z</time>
      </trkpt>
      <trkpt lat="37.2759466" lon="-109.9526402">
        <ele>1970.8400879</ele>
        <time>2012-09-19T19:40:41Z</time>
      </trkpt>
      <trkpt lat="37.2761042" lon="-109.9524801">
        <ele>1970.8400879</ele>
        <time>2012-09-19T19:40:43Z</time>
      </trkpt>
      <trkpt lat="37.2762636" lon="-109.9523199">
        <ele>1971.3205566</ele>
        <time>2012-09-19T19:40:45Z</time>
      </trkpt>
      <trkpt lat="37.2764251" lon="-109.9521588">
        <ele>1971.8012695</ele>
        <time>2012-09-19T19:40:47Z</time>
      </trkpt>
      <trkpt lat="37.2765861" lon="-109.9519952">
        <ele>1972.2819824</ele>
        <time>2012-09-19T19:40:49Z</time>
      </trkpt>
      <trkpt lat="37.2767454" lon="-109.9518324">
        <ele>1972.7626953</ele>
        <time>2012-09-19T19:40:51Z</time>
      </trkpt>
      <trkpt lat="37.2769050" lon="-109.9516704">
        <ele>1972.7626953</ele>
        <time>2012-09-19T19:40:53Z</time>
      </trkpt>
      <trkpt lat="37.2770672" lon="-109.9515090">
        <ele>1972.2819824</ele>
        <time>2012-09-19T19:40:55Z</time>
      </trkpt>
      <trkpt lat="37.2772301" lon="-109.9513443">
        <ele>1973.2434082</ele>
        <time>2012-09-19T19:40:57Z</time>
      </trkpt>
      <trkpt lat="37.2773953" lon="-109.9511770">
        <ele>1972.7626953</ele>
        <time>2012-09-19T19:40:59Z</time>
      </trkpt>
      <trkpt lat="37.2775592" lon="-109.9510088">
        <ele>1973.2434082</ele>
        <time>2012-09-19T19:41:01Z</time>
      </trkpt>
      <trkpt lat="37.2777152" lon="-109.9508480">
        <ele>1973.7238770</ele>
        <time>2012-09-19T19:41:03Z</time>
      </trkpt>
      <trkpt lat="37.2778632" lon="-109.9506897">
        <ele>1973.7238770</ele>
        <time>2012-09-19T19:41:05Z</time>
      </trkpt>
      <trkpt lat="37.2780031" lon="-109.9505275">
        <ele>1974.2045898</ele>
        <time>2012-09-19T19:41:07Z</time>
      </trkpt>
      <trkpt lat="37.2781260" lon="-109.9503576">
        <ele>1973.7238770</ele>
        <time>2012-09-19T19:41:09Z</time>
      </trkpt>
      <trkpt lat="37.2782326" lon="-109.9501811">
        <ele>1974.2045898</ele>
        <time>2012-09-19T19:41:11Z</time>
      </trkpt>
      <trkpt lat="37.2783218" lon="-109.9500014">
        <ele>1973.7238770</ele>
        <time>2012-09-19T19:41:13Z</time>
      </trkpt>
      <trkpt lat="37.2783921" lon="-109.9498081">
        <ele>1973.7238770</ele>
        <time>2012-09-19T19:41:15Z</time>
      </trkpt>
      <trkpt lat="37.2784434" lon="-109.9496115">
        <ele>1973.7238770</ele>
        <time>2012-09-19T19:41:17Z</time>
      </trkpt>
      <trkpt lat="37.2784684" lon="-109.9494103">
        <ele>1973.7238770</ele>
        <time>2012-09-19T19:41:19Z</time>
      </trkpt>
      <trkpt lat="37.2784694" lon="-109.9492056">
        <ele>1973.2434082</ele>
        <time>2012-09-19T19:41:21Z</time>
      </trkpt>
      <trkpt lat="37.2784596" lon="-109.9489998">
        <ele>1973.7238770</ele>
        <time>2012-09-19T19:41:23Z</time>
      </trkpt>
      <trkpt lat="37.2784443" lon="-109.9487990">
        <ele>1973.7238770</ele>
        <time>2012-09-19T19:41:25Z</time>
      </trkpt>
      <trkpt lat="37.2784249" lon="-109.9486047">
        <ele>1973.7238770</ele>
        <time>2012-09-19T19:41:27Z</time>
      </trkpt>
      <trkpt lat="37.2784010" lon="-109.9484116">
        <ele>1973.7238770</ele>
        <time>2012-09-19T19:41:29Z</time>
      </trkpt>
      <trkpt lat="37.2783769" lon="-109.9482210">
        <ele>1973.2434082</ele>
        <time>2012-09-19T19:41:31Z</time>
      </trkpt>
      <trkpt lat="37.2783528" lon="-109.9480359">
        <ele>1973.7238770</ele>
        <time>2012-09-19T19:41:33Z</time>
      </trkpt>
      <trkpt lat="37.2783156" lon="-109.9477700">
        <ele>1972.7626953</ele>
        <time>2012-09-19T19:41:36Z</time>
      </trkpt>
      <trkpt lat="37.2782885" lon="-109.9475868">
        <ele>1971.8012695</ele>
        <time>2012-09-19T19:41:38Z</time>
      </trkpt>
      <trkpt lat="37.2782598" lon="-109.9473961">
        <ele>1970.8400879</ele>
        <time>2012-09-19T19:41:40Z</time>
      </trkpt>
      <trkpt lat="37.2782321" lon="-109.9471999">
        <ele>1968.4367676</ele>
        <time>2012-09-19T19:41:42Z</time>
      </trkpt>
      <trkpt lat="37.2782082" lon="-109.9470111">
        <ele>1967.9560547</ele>
        <time>2012-09-19T19:41:44Z</time>
      </trkpt>
      <trkpt lat="37.2781723" lon="-109.9467237">
        <ele>1966.9948730</ele>
        <time>2012-09-19T19:41:47Z</time>
      </trkpt>
      <trkpt lat="37.2781454" lon="-109.9465201">
        <ele>1966.0334473</ele>
        <time>2012-09-19T19:41:49Z</time>
      </trkpt>
      <trkpt lat="37.2781161" lon="-109.9463098">
        <ele>1965.5529785</ele>
        <time>2012-09-19T19:41:51Z</time>
      </trkpt>
      <trkpt lat="37.2780839" lon="-109.9460955">
        <ele>1963.6298828</ele>
        <time>2012-09-19T19:41:53Z</time>
      </trkpt>
      <trkpt lat="37.2780518" lon="-109.9458805">
        <ele>1963.1494141</ele>
        <time>2012-09-19T19:41:55Z</time>
      </trkpt>
      <trkpt lat="37.2780213" lon="-109.9456634">
        <ele>1962.6687012</ele>
        <time>2012-09-19T19:41:57Z</time>
      </trkpt>
      <trkpt lat="37.2779870" lon="-109.9454423">
        <ele>1964.1108398</ele>
        <time>2012-09-19T19:41:59Z</time>
      </trkpt>
      <trkpt lat="37.2779487" lon="-109.9452102">
        <ele>1964.1108398</ele>
        <time>2012-09-19T19:42:01Z</time>
      </trkpt>
      <trkpt lat="37.2779159" lon="-109.9449724">
        <ele>1965.0722656</ele>
        <time>2012-09-19T19:42:03Z</time>
      </trkpt>
      <trkpt lat="37.2778853" lon="-109.9447379">
        <ele>1965.0722656</ele>
        <time>2012-09-19T19:42:05Z</time>
      </trkpt>
      <trkpt lat="37.2778560" lon="-109.9445061">
        <ele>1965.5529785</ele>
        <time>2012-09-19T19:42:07Z</time>
      </trkpt>
      <trkpt lat="37.2778284" lon="-109.9442835">
        <ele>1965.0722656</ele>
        <time>2012-09-19T19:42:09Z</time>
      </trkpt>
      <trkpt lat="37.2778040" lon="-109.9440714">
        <ele>1966.5141602</ele>
        <time>2012-09-19T19:42:11Z</time>
      </trkpt>
      <trkpt lat="37.2777779" lon="-109.9438726">
        <ele>1966.5141602</ele>
        <time>2012-09-19T19:42:13Z</time>
      </trkpt>
      <trkpt lat="37.2777545" lon="-109.9436928">
        <ele>1966.5141602</ele>
        <time>2012-09-19T19:42:15Z</time>
      </trkpt>
      <trkpt lat="37.2777227" lon="-109.9434770">
        <ele>1966.0334473</ele>
        <time>2012-09-19T19:42:18Z</time>
      </trkpt>
      <trkpt lat="37.2776892" lon="-109.9432848">
        <ele>1966.5141602</ele>
        <time>2012-09-19T19:42:22Z</time>
      </trkpt>
      <trkpt lat="37.2775722" lon="-109.9431677">
        <ele>1964.1108398</ele>
        <time>2012-09-19T19:42:35Z</time>
      </trkpt>
      <trkpt lat="37.2774202" lon="-109.9431909">
        <ele>1963.6298828</ele>
        <time>2012-09-19T19:42:39Z</time>
      </trkpt>
      <trkpt lat="37.2772446" lon="-109.9432241">
        <ele>1963.1494141</ele>
        <time>2012-09-19T19:42:43Z</time>
      </trkpt>
      <trkpt lat="37.2770612" lon="-109.9432277">
        <ele>1961.2268066</ele>
        <time>2012-09-19T19:42:47Z</time>
      </trkpt>
      <trkpt lat="37.2768786" lon="-109.9431992">
        <ele>1959.7846680</ele>
        <time>2012-09-19T19:42:51Z</time>
      </trkpt>
      <trkpt lat="37.2767366" lon="-109.9431530">
        <ele>1959.3041992</ele>
        <time>2012-09-19T19:42:54Z</time>
      </trkpt>
      <trkpt lat="37.2765536" lon="-109.9430595">
        <ele>1958.3427734</ele>
        <time>2012-09-19T19:42:58Z</time>
      </trkpt>
      <trkpt lat="37.2764121" lon="-109.9429591">
        <ele>1956.4201660</ele>
        <time>2012-09-19T19:43:01Z</time>
      </trkpt>
      <trkpt lat="37.2762777" lon="-109.9428403">
        <ele>1955.9394531</ele>
        <time>2012-09-19T19:43:04Z</time>
      </trkpt>
      <trkpt lat="37.2761574" lon="-109.9426968">
        <ele>1954.0170898</ele>
        <time>2012-09-19T19:43:07Z</time>
      </trkpt>
      <trkpt lat="37.2760595" lon="-109.9425244">
        <ele>1952.5749512</ele>
        <time>2012-09-19T19:43:10Z</time>
      </trkpt>
      <trkpt lat="37.2759849" lon="-109.9423327">
        <ele>1952.0942383</ele>
        <time>2012-09-19T19:43:13Z</time>
      </trkpt>
      <trkpt lat="37.2759146" lon="-109.9421338">
        <ele>1951.6137695</ele>
        <time>2012-09-19T19:43:16Z</time>
      </trkpt>
      <trkpt lat="37.2758503" lon="-109.9419524">
        <ele>1949.6911621</ele>
        <time>2012-09-19T19:43:19Z</time>
      </trkpt>
      <trkpt lat="37.2758206" lon="-109.9417645">
        <ele>1948.7297363</ele>
        <time>2012-09-19T19:43:22Z</time>
      </trkpt>
      <trkpt lat="37.2758472" lon="-109.9415489">
        <ele>1947.7683105</ele>
        <time>2012-09-19T19:43:25Z</time>
      </trkpt>
      <trkpt lat="37.2758886" lon="-109.9413208">
        <ele>1947.2875977</ele>
        <time>2012-09-19T19:43:28Z</time>
      </trkpt>
      <trkpt lat="37.2759181" lon="-109.9410998">
        <ele>1945.8457031</ele>
        <time>2012-09-19T19:43:31Z</time>
      </trkpt>
      <trkpt lat="37.2759020" lon="-109.9408818">
        <ele>1945.3649902</ele>
        <time>2012-09-19T19:43:34Z</time>
      </trkpt>
      <trkpt lat="37.2758413" lon="-109.9406873">
        <ele>1942.0004883</ele>
        <time>2012-09-19T19:43:37Z</time>
      </trkpt>
      <trkpt lat="37.2757459" lon="-109.9405286">
        <ele>1940.5583496</ele>
        <time>2012-09-19T19:43:40Z</time>
      </trkpt>
      <trkpt lat="37.2756287" lon="-109.9404145">
        <ele>1939.5971680</ele>
        <time>2012-09-19T19:43:43Z</time>
      </trkpt>
      <trkpt lat="37.2754833" lon="-109.9403310">
        <ele>1939.1164551</ele>
        <time>2012-09-19T19:43:46Z</time>
      </trkpt>
      <trkpt lat="37.2753321" lon="-109.9402874">
        <ele>1938.1552734</ele>
        <time>2012-09-19T19:43:49Z</time>
      </trkpt>
      <trkpt lat="37.2751694" lon="-109.9402781">
        <ele>1937.1938477</ele>
        <time>2012-09-19T19:43:52Z</time>
      </trkpt>
      <trkpt lat="37.2749680" lon="-109.9403073">
        <ele>1936.7131348</ele>
        <time>2012-09-19T19:43:56Z</time>
      </trkpt>
      <trkpt lat="37.2748231" lon="-109.9402879">
        <ele>1935.7519531</ele>
        <time>2012-09-19T19:43:59Z</time>
      </trkpt>
      <trkpt lat="37.2746452" lon="-109.9401923">
        <ele>1934.3100586</ele>
        <time>2012-09-19T19:44:03Z</time>
      </trkpt>
      <trkpt lat="37.2745107" lon="-109.9400928">
        <ele>1933.3486328</ele>
        <time>2012-09-19T19:44:06Z</time>
      </trkpt>
      <trkpt lat="37.2743787" lon="-109.9399852">
        <ele>1933.3486328</ele>
        <time>2012-09-19T19:44:09Z</time>
      </trkpt>
      <trkpt lat="37.2742290" lon="-109.9398668">
        <ele>1933.3486328</ele>
        <time>2012-09-19T19:44:13Z</time>
      </trkpt>
      <trkpt lat="37.2740769" lon="-109.9397524">
        <ele>1933.3486328</ele>
        <time>2012-09-19T19:44:18Z</time>
      </trkpt>
      <trkpt lat="37.2739832" lon="-109.9396152">
        <ele>1932.3874512</ele>
        <time>2012-09-19T19:44:24Z</time>
      </trkpt>
      <trkpt lat="37.2740404" lon="-109.9394965">
        <ele>1932.3874512</ele>
        <time>2012-09-19T19:55:45Z</time>
      </trkpt>
      <trkpt lat="37.2741857" lon="-109.9393936">
        <ele>1931.4257813</ele>
        <time>2012-09-19T19:55:51Z</time>
      </trkpt>
      <trkpt lat="37.2743295" lon="-109.9392847">
        <ele>1929.5031738</ele>
        <time>2012-09-19T19:55:56Z</time>
      </trkpt>
      <trkpt lat="37.2745100" lon="-109.9393032">
        <ele>1927.5805664</ele>
        <time>2012-09-19T19:56:01Z</time>
      </trkpt>
      <trkpt lat="37.2746650" lon="-109.9393987">
        <ele>1927.5805664</ele>
        <time>2012-09-19T19:56:05Z</time>
      </trkpt>
      <trkpt lat="37.2748306" lon="-109.9394774">
        <ele>1924.2160645</ele>
        <time>2012-09-19T19:56:09Z</time>
      </trkpt>
      <trkpt lat="37.2749756" lon="-109.9395182">
        <ele>1923.2548828</ele>
        <time>2012-09-19T19:56:12Z</time>
      </trkpt>
      <trkpt lat="37.2751353" lon="-109.9395490">
        <ele>1922.7741699</ele>
        <time>2012-09-19T19:56:15Z</time>
      </trkpt>
      <trkpt lat="37.2752982" lon="-109.9395552">
        <ele>1921.8127441</ele>
        <time>2012-09-19T19:56:18Z</time>
      </trkpt>
      <trkpt lat="37.2754704" lon="-109.9395453">
        <ele>1920.8515625</ele>
        <time>2012-09-19T19:56:21Z</time>
      </trkpt>
      <trkpt lat="37.2756519" lon="-109.9395585">
        <ele>1920.3708496</ele>
        <time>2012-09-19T19:56:24Z</time>
      </trkpt>
      <trkpt lat="37.2758255" lon="-109.9395392">
        <ele>1919.8901367</ele>
        <time>2012-09-19T19:56:27Z</time>
      </trkpt>
      <trkpt lat="37.2760078" lon="-109.9395085">
        <ele>1917.9675293</ele>
        <time>2012-09-19T19:56:30Z</time>
      </trkpt>
      <trkpt lat="37.2762046" lon="-109.9394629">
        <ele>1916.5256348</ele>
        <time>2012-09-19T19:56:33Z</time>
      </trkpt>
      <trkpt lat="37.2763890" lon="-109.9393520">
        <ele>1914.6027832</ele>
        <time>2012-09-19T19:56:36Z</time>
      </trkpt>
      <trkpt lat="37.2765657" lon="-109.9392447">
        <ele>1912.6801758</ele>
        <time>2012-09-19T19:56:39Z</time>
      </trkpt>
      <trkpt lat="37.2767509" lon="-109.9391666">
        <ele>1910.7575684</ele>
        <time>2012-09-19T19:56:42Z</time>
      </trkpt>
      <trkpt lat="37.2769355" lon="-109.9390701">
        <ele>1909.3156738</ele>
        <time>2012-09-19T19:56:45Z</time>
      </trkpt>
      <trkpt lat="37.2771107" lon="-109.9389656">
        <ele>1906.9123535</ele>
        <time>2012-09-19T19:56:48Z</time>
      </trkpt>
      <trkpt lat="37.2772675" lon="-109.9388319">
        <ele>1905.4704590</ele>
        <time>2012-09-19T19:56:51Z</time>
      </trkpt>
      <trkpt lat="37.2773924" lon="-109.9386513">
        <ele>1904.9897461</ele>
        <time>2012-09-19T19:56:54Z</time>
      </trkpt>
      <trkpt lat="37.2774696" lon="-109.9384377">
        <ele>1902.1057129</ele>
        <time>2012-09-19T19:56:57Z</time>
      </trkpt>
      <trkpt lat="37.2774859" lon="-109.9381896">
        <ele>1901.1445313</ele>
        <time>2012-09-19T19:57:00Z</time>
      </trkpt>
      <trkpt lat="37.2774528" lon="-109.9379404">
        <ele>1899.2216797</ele>
        <time>2012-09-19T19:57:03Z</time>
      </trkpt>
      <trkpt lat="37.2773789" lon="-109.9376986">
        <ele>1895.8571777</ele>
        <time>2012-09-19T19:57:06Z</time>
      </trkpt>
      <trkpt lat="37.2772995" lon="-109.9374697">
        <ele>1894.4150391</ele>
        <time>2012-09-19T19:57:09Z</time>
      </trkpt>
      <trkpt lat="37.2772327" lon="-109.9372516">
        <ele>1892.9731445</ele>
        <time>2012-09-19T19:57:12Z</time>
      </trkpt>
      <trkpt lat="37.2771756" lon="-109.9370356">
        <ele>1892.0119629</ele>
        <time>2012-09-19T19:57:15Z</time>
      </trkpt>
      <trkpt lat="37.2771324" lon="-109.9368238">
        <ele>1890.5698242</ele>
        <time>2012-09-19T19:57:18Z</time>
      </trkpt>
      <trkpt lat="37.2770976" lon="-109.9366241">
        <ele>1889.6086426</ele>
        <time>2012-09-19T19:57:21Z</time>
      </trkpt>
      <trkpt lat="37.2770664" lon="-109.9364429">
        <ele>1888.1667480</ele>
        <time>2012-09-19T19:57:24Z</time>
      </trkpt>
      <trkpt lat="37.2770360" lon="-109.9362253">
        <ele>1886.7246094</ele>
        <time>2012-09-19T19:57:28Z</time>
      </trkpt>
      <trkpt lat="37.2770255" lon="-109.9360072">
        <ele>1886.2441406</ele>
        <time>2012-09-19T19:57:33Z</time>
      </trkpt>
      <trkpt lat="37.2768936" lon="-109.9359907">
        <ele>1885.2827148</ele>
        <time>2012-09-19T19:57:40Z</time>
      </trkpt>
      <trkpt lat="37.2768674" lon="-109.9361868">
        <ele>1883.8405762</ele>
        <time>2012-09-19T19:57:45Z</time>
      </trkpt>
      <trkpt lat="37.2768965" lon="-109.9364228">
        <ele>1882.3986816</ele>
        <time>2012-09-19T19:57:49Z</time>
      </trkpt>
      <trkpt lat="37.2769101" lon="-109.9366264">
        <ele>1879.9953613</ele>
        <time>2012-09-19T19:57:52Z</time>
      </trkpt>
      <trkpt lat="37.2769166" lon="-109.9368181">
        <ele>1879.0339355</ele>
        <time>2012-09-19T19:57:55Z</time>
      </trkpt>
      <trkpt lat="37.2769209" lon="-109.9370130">
        <ele>1877.5920410</ele>
        <time>2012-09-19T19:57:58Z</time>
      </trkpt>
      <trkpt lat="37.2769174" lon="-109.9372152">
        <ele>1876.1501465</ele>
        <time>2012-09-19T19:58:01Z</time>
      </trkpt>
      <trkpt lat="37.2769210" lon="-109.9374131">
        <ele>1874.2275391</ele>
        <time>2012-09-19T19:58:04Z</time>
      </trkpt>
      <trkpt lat="37.2769350" lon="-109.9376037">
        <ele>1873.2663574</ele>
        <time>2012-09-19T19:58:07Z</time>
      </trkpt>
      <trkpt lat="37.2769615" lon="-109.9377851">
        <ele>1872.7856445</ele>
        <time>2012-09-19T19:58:10Z</time>
      </trkpt>
      <trkpt lat="37.2769883" lon="-109.9379835">
        <ele>1871.8242188</ele>
        <time>2012-09-19T19:58:13Z</time>
      </trkpt>
      <trkpt lat="37.2769592" lon="-109.9381921">
        <ele>1868.9404297</ele>
        <time>2012-09-19T19:58:16Z</time>
      </trkpt>
      <trkpt lat="37.2768522" lon="-109.9383454">
        <ele>1867.0175781</ele>
        <time>2012-09-19T19:58:19Z</time>
      </trkpt>
      <trkpt lat="37.2767050" lon="-109.9384139">
        <ele>1865.5756836</ele>
        <time>2012-09-19T19:58:22Z</time>
      </trkpt>
      <trkpt lat="37.2765491" lon="-109.9384362">
        <ele>1864.1335449</ele>
        <time>2012-09-19T19:58:25Z</time>
      </trkpt>
      <trkpt lat="37.2763812" lon="-109.9384244">
        <ele>1862.6916504</ele>
        <time>2012-09-19T19:58:28Z</time>
      </trkpt>
      <trkpt lat="37.2762095" lon="-109.9383847">
        <ele>1862.2109375</ele>
        <time>2012-09-19T19:58:31Z</time>
      </trkpt>
      <trkpt lat="37.2760174" lon="-109.9383254">
        <ele>1861.2497559</ele>
        <time>2012-09-19T19:58:34Z</time>
      </trkpt>
      <trkpt lat="37.2758317" lon="-109.9382597">
        <ele>1859.8076172</ele>
        <time>2012-09-19T19:58:37Z</time>
      </trkpt>
      <trkpt lat="37.2756560" lon="-109.9381891">
        <ele>1857.4045410</ele>
        <time>2012-09-19T19:58:40Z</time>
      </trkpt>
      <trkpt lat="37.2754789" lon="-109.9381136">
        <ele>1855.0012207</ele>
        <time>2012-09-19T19:58:43Z</time>
      </trkpt>
      <trkpt lat="37.2753037" lon="-109.9380335">
        <ele>1853.0786133</ele>
        <time>2012-09-19T19:58:46Z</time>
      </trkpt>
      <trkpt lat="37.2751488" lon="-109.9379537">
        <ele>1850.1945801</ele>
        <time>2012-09-19T19:58:49Z</time>
      </trkpt>
      <trkpt lat="37.2749977" lon="-109.9378769">
        <ele>1848.7524414</ele>
        <time>2012-09-19T19:58:52Z</time>
      </trkpt>
      <trkpt lat="37.2748323" lon="-109.9377818">
        <ele>1846.8298340</ele>
        <time>2012-09-19T19:58:55Z</time>
      </trkpt>
      <trkpt lat="37.2746718" lon="-109.9376704">
        <ele>1845.3879395</ele>
        <time>2012-09-19T19:58:58Z</time>
      </trkpt>
      <trkpt lat="37.2745278" lon="-109.9375545">
        <ele>1844.9072266</ele>
        <time>2012-09-19T19:59:01Z</time>
      </trkpt>
      <trkpt lat="37.2743901" lon="-109.9374695">
        <ele>1843.4653320</ele>
        <time>2012-09-19T19:59:04Z</time>
      </trkpt>
      <trkpt lat="37.2742137" lon="-109.9374130">
        <ele>1842.5041504</ele>
        <time>2012-09-19T19:59:08Z</time>
      </trkpt>
      <trkpt lat="37.2740108" lon="-109.9374295">
        <ele>1842.0234375</ele>
        <time>2012-09-19T19:59:12Z</time>
      </trkpt>
      <trkpt lat="37.2738559" lon="-109.9374732">
        <ele>1840.1008301</ele>
        <time>2012-09-19T19:59:15Z</time>
      </trkpt>
      <trkpt lat="37.2736625" lon="-109.9375401">
        <ele>1837.2167969</ele>
        <time>2012-09-19T19:59:19Z</time>
      </trkpt>
      <trkpt lat="37.2735092" lon="-109.9376375">
        <ele>1836.7360840</ele>
        <time>2012-09-19T19:59:23Z</time>
      </trkpt>
      <trkpt lat="37.2733372" lon="-109.9375779">
        <ele>1835.7746582</ele>
        <time>2012-09-19T19:59:28Z</time>
      </trkpt>
      <trkpt lat="37.2732228" lon="-109.9374302">
        <ele>1833.3713379</ele>
        <time>2012-09-19T19:59:32Z</time>
      </trkpt>
      <trkpt lat="37.2730794" lon="-109.9373135">
        <ele>1830.9682617</ele>
        <time>2012-09-19T19:59:36Z</time>
      </trkpt>
      <trkpt lat="37.2729587" lon="-109.9372979">
        <ele>1831.4487305</ele>
        <time>2012-09-19T19:59:39Z</time>
      </trkpt>
      <trkpt lat="37.2727604" lon="-109.9373908">
        <ele>1829.0454102</ele>
        <time>2012-09-19T19:59:44Z</time>
      </trkpt>
      <trkpt lat="37.2726509" lon="-109.9375333">
        <ele>1828.0842285</ele>
        <time>2012-09-19T19:59:48Z</time>
      </trkpt>
      <trkpt lat="37.2725809" lon="-109.9377079">
        <ele>1828.0842285</ele>
        <time>2012-09-19T19:59:52Z</time>
      </trkpt>
      <trkpt lat="37.2724336" lon="-109.9377810">
        <ele>1827.6035156</ele>
        <time>2012-09-19T19:59:57Z</time>
      </trkpt>
      <trkpt lat="37.2723642" lon="-109.9375922">
        <ele>1826.6423340</ele>
        <time>2012-09-19T20:00:02Z</time>
      </trkpt>
      <trkpt lat="37.2724231" lon="-109.9374099">
        <ele>1824.7197266</ele>
        <time>2012-09-19T20:00:06Z</time>
      </trkpt>
      <trkpt lat="37.2725272" lon="-109.9372779">
        <ele>1824.2390137</ele>
        <time>2012-09-19T20:00:09Z</time>
      </trkpt>
      <trkpt lat="37.2726701" lon="-109.9371696">
        <ele>1822.7971191</ele>
        <time>2012-09-19T20:00:12Z</time>
      </trkpt>
      <trkpt lat="37.2728286" lon="-109.9371080">
        <ele>1823.2778320</ele>
        <time>2012-09-19T20:00:15Z</time>
      </trkpt>
      <trkpt lat="37.2729777" lon="-109.9371050">
        <ele>1822.7971191</ele>
        <time>2012-09-19T20:00:18Z</time>
      </trkpt>
      <trkpt lat="37.2731621" lon="-109.9371775">
        <ele>1822.3164063</ele>
        <time>2012-09-19T20:00:22Z</time>
      </trkpt>
      <trkpt lat="37.2733058" lon="-109.9372666">
        <ele>1822.3164063</ele>
        <time>2012-09-19T20:00:25Z</time>
      </trkpt>
      <trkpt lat="37.2734515" lon="-109.9373463">
        <ele>1820.8745117</ele>
        <time>2012-09-19T20:00:28Z</time>
      </trkpt>
      <trkpt lat="37.2736311" lon="-109.9373499">
        <ele>1817.0290527</ele>
        <time>2012-09-19T20:00:32Z</time>
      </trkpt>
      <trkpt lat="37.2738044" lon="-109.9373100">
        <ele>1817.9902344</ele>
        <time>2012-09-19T20:00:35Z</time>
      </trkpt>
      <trkpt lat="37.2739663" lon="-109.9372446">
        <ele>1814.1450195</ele>
        <time>2012-09-19T20:00:38Z</time>
      </trkpt>
      <trkpt lat="37.2741433" lon="-109.9371696">
        <ele>1814.6257324</ele>
        <time>2012-09-19T20:00:41Z</time>
      </trkpt>
      <trkpt lat="37.2743214" lon="-109.9370956">
        <ele>1814.6257324</ele>
        <time>2012-09-19T20:00:44Z</time>
      </trkpt>
      <trkpt lat="37.2744879" lon="-109.9370157">
        <ele>1812.7031250</ele>
        <time>2012-09-19T20:00:47Z</time>
      </trkpt>
      <trkpt lat="37.2746635" lon="-109.9369666">
        <ele>1811.7419434</ele>
        <time>2012-09-19T20:00:50Z</time>
      </trkpt>
      <trkpt lat="37.2748280" lon="-109.9369112">
        <ele>1811.2612305</ele>
        <time>2012-09-19T20:00:53Z</time>
      </trkpt>
      <trkpt lat="37.2749970" lon="-109.9368883">
        <ele>1811.7419434</ele>
        <time>2012-09-19T20:00:56Z</time>
      </trkpt>
      <trkpt lat="37.2751597" lon="-109.9368340">
        <ele>1811.2612305</ele>
        <time>2012-09-19T20:01:00Z</time>
      </trkpt>
      <trkpt lat="37.2752264" lon="-109.9366905">
        <ele>1810.2998047</ele>
        <time>2012-09-19T20:01:04Z</time>
      </trkpt>
      <trkpt lat="37.2750922" lon="-109.9365999">
        <ele>1807.4160156</ele>
        <time>2012-09-19T20:01:08Z</time>
      </trkpt>
      <trkpt lat="37.2749400" lon="-109.9366696">
        <ele>1806.4545898</ele>
        <time>2012-09-19T20:01:12Z</time>
      </trkpt>
      <trkpt lat="37.2747763" lon="-109.9367552">
        <ele>1804.5319824</ele>
        <time>2012-09-19T20:01:17Z</time>
      </trkpt>
      <trkpt lat="37.2746325" lon="-109.9368128">
        <ele>1803.0898438</ele>
        <time>2012-09-19T20:01:22Z</time>
      </trkpt>
      <trkpt lat="37.2744656" lon="-109.9368561">
        <ele>1800.2060547</ele>
        <time>2012-09-19T20:01:26Z</time>
      </trkpt>
      <trkpt lat="37.2742829" lon="-109.9368873">
        <ele>1797.8027344</ele>
        <time>2012-09-19T20:01:30Z</time>
      </trkpt>
      <trkpt lat="37.2740924" lon="-109.9369307">
        <ele>1796.3608398</ele>
        <time>2012-09-19T20:01:34Z</time>
      </trkpt>
      <trkpt lat="37.2739020" lon="-109.9369789">
        <ele>1794.9187012</ele>
        <time>2012-09-19T20:01:38Z</time>
      </trkpt>
      <trkpt lat="37.2737084" lon="-109.9370060">
        <ele>1794.4379883</ele>
        <time>2012-09-19T20:01:42Z</time>
      </trkpt>
      <trkpt lat="37.2735224" lon="-109.9369972">
        <ele>1792.9960938</ele>
        <time>2012-09-19T20:01:46Z</time>
      </trkpt>
      <trkpt lat="37.2733322" lon="-109.9369340">
        <ele>1790.5927734</ele>
        <time>2012-09-19T20:01:50Z</time>
      </trkpt>
      <trkpt lat="37.2731970" lon="-109.9368509">
        <ele>1788.1896973</ele>
        <time>2012-09-19T20:01:53Z</time>
      </trkpt>
      <trkpt lat="37.2730550" lon="-109.9367945">
        <ele>1787.2280273</ele>
        <time>2012-09-19T20:01:56Z</time>
      </trkpt>
      <trkpt lat="37.2728648" lon="-109.9367518">
        <ele>1785.3054199</ele>
        <time>2012-09-19T20:02:00Z</time>
      </trkpt>
      <trkpt lat="37.2726780" lon="-109.9367755">
        <ele>1783.3828125</ele>
        <time>2012-09-19T20:02:04Z</time>
      </trkpt>
      <trkpt lat="37.2725003" lon="-109.9368325">
        <ele>1780.4990234</ele>
        <time>2012-09-19T20:02:08Z</time>
      </trkpt>
      <trkpt lat="37.2723334" lon="-109.9369335">
        <ele>1779.5375977</ele>
        <time>2012-09-19T20:02:12Z</time>
      </trkpt>
      <trkpt lat="37.2721200" lon="-109.9369742">
        <ele>1778.0957031</ele>
        <time>2012-09-19T20:02:16Z</time>
      </trkpt>
      <trkpt lat="37.2719715" lon="-109.9369422">
        <ele>1776.6538086</ele>
        <time>2012-09-19T20:02:19Z</time>
      </trkpt>
      <trkpt lat="37.2718232" lon="-109.9368797">
        <ele>1776.6538086</ele>
        <time>2012-09-19T20:02:22Z</time>
      </trkpt>
      <trkpt lat="37.2716734" lon="-109.9368300">
        <ele>1776.1730957</ele>
        <time>2012-09-19T20:02:25Z</time>
      </trkpt>
      <trkpt lat="37.2715026" lon="-109.9368325">
        <ele>1775.2116699</ele>
        <time>2012-09-19T20:02:29Z</time>
      </trkpt>
      <trkpt lat="37.2714322" lon="-109.9370071">
        <ele>1774.2504883</ele>
        <time>2012-09-19T20:02:34Z</time>
      </trkpt>
      <trkpt lat="37.2714601" lon="-109.9372039">
        <ele>1771.8469238</ele>
        <time>2012-09-19T20:02:38Z</time>
      </trkpt>
      <trkpt lat="37.2715399" lon="-109.9374106">
        <ele>1768.9631348</ele>
        <time>2012-09-19T20:02:42Z</time>
      </trkpt>
      <trkpt lat="37.2716450" lon="-109.9376084">
        <ele>1768.4824219</ele>
        <time>2012-09-19T20:02:46Z</time>
      </trkpt>
      <trkpt lat="37.2717124" lon="-109.9377829">
        <ele>1767.5209961</ele>
        <time>2012-09-19T20:02:49Z</time>
      </trkpt>
      <trkpt lat="37.2717834" lon="-109.9379652">
        <ele>1766.0791016</ele>
        <time>2012-09-19T20:02:52Z</time>
      </trkpt>
      <trkpt lat="37.2718667" lon="-109.9381413">
        <ele>1765.1179199</ele>
        <time>2012-09-19T20:02:55Z</time>
      </trkpt>
      <trkpt lat="37.2719565" lon="-109.9382936">
        <ele>1764.1564941</ele>
        <time>2012-09-19T20:02:58Z</time>
      </trkpt>
      <trkpt lat="37.2720466" lon="-109.9384461">
        <ele>1763.1953125</ele>
        <time>2012-09-19T20:03:02Z</time>
      </trkpt>
      <trkpt lat="37.2721282" lon="-109.9386261">
        <ele>1761.2727051</ele>
        <time>2012-09-19T20:03:06Z</time>
      </trkpt>
      <trkpt lat="37.2721951" lon="-109.9388149">
        <ele>1759.8305664</ele>
        <time>2012-09-19T20:03:09Z</time>
      </trkpt>
      <trkpt lat="37.2722716" lon="-109.9390112">
        <ele>1758.3886719</ele>
        <time>2012-09-19T20:03:12Z</time>
      </trkpt>
      <trkpt lat="37.2723608" lon="-109.9391866">
        <ele>1755.9851074</ele>
        <time>2012-09-19T20:03:15Z</time>
      </trkpt>
      <trkpt lat="37.2724496" lon="-109.9393462">
        <ele>1755.9851074</ele>
        <time>2012-09-19T20:03:18Z</time>
      </trkpt>
      <trkpt lat="37.2725413" lon="-109.9395681">
        <ele>1754.0627441</ele>
        <time>2012-09-19T20:03:22Z</time>
      </trkpt>
      <trkpt lat="37.2725966" lon="-109.9397541">
        <ele>1752.1398926</ele>
        <time>2012-09-19T20:03:25Z</time>
      </trkpt>
      <trkpt lat="37.2726631" lon="-109.9399316">
        <ele>1751.6594238</ele>
        <time>2012-09-19T20:03:28Z</time>
      </trkpt>
      <trkpt lat="37.2727389" lon="-109.9401077">
        <ele>1749.7368164</ele>
        <time>2012-09-19T20:03:31Z</time>
      </trkpt>
      <trkpt lat="37.2728177" lon="-109.9402901">
        <ele>1749.2561035</ele>
        <time>2012-09-19T20:03:34Z</time>
      </trkpt>
      <trkpt lat="37.2728966" lon="-109.9404878">
        <ele>1747.8142090</ele>
        <time>2012-09-19T20:03:37Z</time>
      </trkpt>
      <trkpt lat="37.2729639" lon="-109.9406917">
        <ele>1747.8142090</ele>
        <time>2012-09-19T20:03:40Z</time>
      </trkpt>
      <trkpt lat="37.2730262" lon="-109.9408994">
        <ele>1746.3723145</ele>
        <time>2012-09-19T20:03:43Z</time>
      </trkpt>
      <trkpt lat="37.2730949" lon="-109.9410935">
        <ele>1745.8916016</ele>
        <time>2012-09-19T20:03:46Z</time>
      </trkpt>
      <trkpt lat="37.2731841" lon="-109.9412812">
        <ele>1743.0075684</ele>
        <time>2012-09-19T20:03:49Z</time>
      </trkpt>
      <trkpt lat="37.2732856" lon="-109.9414490">
        <ele>1742.0463867</ele>
        <time>2012-09-19T20:03:52Z</time>
      </trkpt>
      <trkpt lat="37.2733576" lon="-109.9416340">
        <ele>1741.5656738</ele>
        <time>2012-09-19T20:03:55Z</time>
      </trkpt>
      <trkpt lat="37.2733960" lon="-109.9418167">
        <ele>1740.6042480</ele>
        <time>2012-09-19T20:03:58Z</time>
      </trkpt>
      <trkpt lat="37.2734071" lon="-109.9420564">
        <ele>1739.6428223</ele>
        <time>2012-09-19T20:04:02Z</time>
      </trkpt>
      <trkpt lat="37.2734043" lon="-109.9422799">
        <ele>1738.6816406</ele>
        <time>2012-09-19T20:04:06Z</time>
      </trkpt>
      <trkpt lat="37.2734185" lon="-109.9425086">
        <ele>1736.7587891</ele>
        <time>2012-09-19T20:04:10Z</time>
      </trkpt>
      <trkpt lat="37.2734168" lon="-109.9426946">
        <ele>1734.8364258</ele>
        <time>2012-09-19T20:04:13Z</time>
      </trkpt>
      <trkpt lat="37.2734103" lon="-109.9428870">
        <ele>1734.8364258</ele>
        <time>2012-09-19T20:04:16Z</time>
      </trkpt>
      <trkpt lat="37.2733953" lon="-109.9430765">
        <ele>1733.8750000</ele>
        <time>2012-09-19T20:04:19Z</time>
      </trkpt>
      <trkpt lat="37.2733674" lon="-109.9432642">
        <ele>1732.4331055</ele>
        <time>2012-09-19T20:04:22Z</time>
      </trkpt>
      <trkpt lat="37.2733292" lon="-109.9434477">
        <ele>1731.9523926</ele>
        <time>2012-09-19T20:04:25Z</time>
      </trkpt>
      <trkpt lat="37.2732745" lon="-109.9436158">
        <ele>1731.4716797</ele>
        <time>2012-09-19T20:04:28Z</time>
      </trkpt>
      <trkpt lat="37.2731792" lon="-109.9437985">
        <ele>1730.5104980</ele>
        <time>2012-09-19T20:04:32Z</time>
      </trkpt>
      <trkpt lat="37.2730415" lon="-109.9439577">
        <ele>1729.5490723</ele>
        <time>2012-09-19T20:04:36Z</time>
      </trkpt>
      <trkpt lat="37.2729301" lon="-109.9440730">
        <ele>1729.0683594</ele>
        <time>2012-09-19T20:04:39Z</time>
      </trkpt>
      <trkpt lat="37.2727957" lon="-109.9442177">
        <ele>1728.1071777</ele>
        <time>2012-09-19T20:04:43Z</time>
      </trkpt>
      <trkpt lat="37.2726913" lon="-109.9443336">
        <ele>1728.1071777</ele>
        <time>2012-09-19T20:04:47Z</time>
      </trkpt>
      <trkpt lat="37.2725640" lon="-109.9443605">
        <ele>1727.1459961</ele>
        <time>2012-09-19T20:04:53Z</time>
      </trkpt>
      <trkpt lat="37.2726161" lon="-109.9441873">
        <ele>1726.6652832</ele>
        <time>2012-09-19T20:04:58Z</time>
      </trkpt>
      <trkpt lat="37.2727322" lon="-109.9440623">
        <ele>1724.7426758</ele>
        <time>2012-09-19T20:05:01Z</time>
      </trkpt>
      <trkpt lat="37.2728775" lon="-109.9439228">
        <ele>1724.7426758</ele>
        <time>2012-09-19T20:05:04Z</time>
      </trkpt>
      <trkpt lat="37.2730083" lon="-109.9437254">
        <ele>1723.3005371</ele>
        <time>2012-09-19T20:05:07Z</time>
      </trkpt>
      <trkpt lat="37.2730919" lon="-109.9434908">
        <ele>1723.3005371</ele>
        <time>2012-09-19T20:05:10Z</time>
      </trkpt>
      <trkpt lat="37.2731566" lon="-109.9432418">
        <ele>1722.8198242</ele>
        <time>2012-09-19T20:05:13Z</time>
      </trkpt>
      <trkpt lat="37.2731647" lon="-109.9429661">
        <ele>1722.3391113</ele>
        <time>2012-09-19T20:05:16Z</time>
      </trkpt>
      <trkpt lat="37.2731326" lon="-109.9427774">
        <ele>1720.8972168</ele>
        <time>2012-09-19T20:05:18Z</time>
      </trkpt>
      <trkpt lat="37.2730706" lon="-109.9425673">
        <ele>1719.4553223</ele>
        <time>2012-09-19T20:05:20Z</time>
      </trkpt>
      <trkpt lat="37.2730226" lon="-109.9423668">
        <ele>1717.5324707</ele>
        <time>2012-09-19T20:05:22Z</time>
      </trkpt>
      <trkpt lat="37.2729721" lon="-109.9421730">
        <ele>1716.0905762</ele>
        <time>2012-09-19T20:05:24Z</time>
      </trkpt>
      <trkpt lat="37.2729093" lon="-109.9419780">
        <ele>1715.1293945</ele>
        <time>2012-09-19T20:05:26Z</time>
      </trkpt>
      <trkpt lat="37.2728155" lon="-109.9417898">
        <ele>1713.6872559</ele>
        <time>2012-09-19T20:05:28Z</time>
      </trkpt>
      <trkpt lat="37.2727014" lon="-109.9416168">
        <ele>1712.2453613</ele>
        <time>2012-09-19T20:05:30Z</time>
      </trkpt>
      <trkpt lat="37.2725796" lon="-109.9414531">
        <ele>1710.8034668</ele>
        <time>2012-09-19T20:05:32Z</time>
      </trkpt>
      <trkpt lat="37.2724625" lon="-109.9412815">
        <ele>1708.4001465</ele>
        <time>2012-09-19T20:05:34Z</time>
      </trkpt>
      <trkpt lat="37.2723526" lon="-109.9411060">
        <ele>1707.9194336</ele>
        <time>2012-09-19T20:05:36Z</time>
      </trkpt>
      <trkpt lat="37.2722454" lon="-109.9409386">
        <ele>1706.9580078</ele>
        <time>2012-09-19T20:05:38Z</time>
      </trkpt>
      <trkpt lat="37.2721401" lon="-109.9407813">
        <ele>1706.4772949</ele>
        <time>2012-09-19T20:05:40Z</time>
      </trkpt>
      <trkpt lat="37.2720341" lon="-109.9406298">
        <ele>1705.5161133</ele>
        <time>2012-09-19T20:05:42Z</time>
      </trkpt>
      <trkpt lat="37.2719270" lon="-109.9404856">
        <ele>1702.6320801</ele>
        <time>2012-09-19T20:05:44Z</time>
      </trkpt>
      <trkpt lat="37.2718191" lon="-109.9403442">
        <ele>1700.7094727</ele>
        <time>2012-09-19T20:05:46Z</time>
      </trkpt>
      <trkpt lat="37.2717004" lon="-109.9402119">
        <ele>1699.2675781</ele>
        <time>2012-09-19T20:05:48Z</time>
      </trkpt>
      <trkpt lat="37.2715811" lon="-109.9400839">
        <ele>1698.3061523</ele>
        <time>2012-09-19T20:05:50Z</time>
      </trkpt>
      <trkpt lat="37.2714679" lon="-109.9399421">
        <ele>1696.8642578</ele>
        <time>2012-09-19T20:05:52Z</time>
      </trkpt>
      <trkpt lat="37.2713522" lon="-109.9397964">
        <ele>1695.4223633</ele>
        <time>2012-09-19T20:05:54Z</time>
      </trkpt>
      <trkpt lat="37.2712338" lon="-109.9396483">
        <ele>1693.9804688</ele>
        <time>2012-09-19T20:05:56Z</time>
      </trkpt>
      <trkpt lat="37.2711166" lon="-109.9395054">
        <ele>1693.0190430</ele>
        <time>2012-09-19T20:05:58Z</time>
      </trkpt>
      <trkpt lat="37.2709949" lon="-109.9393693">
        <ele>1691.5769043</ele>
        <time>2012-09-19T20:06:00Z</time>
      </trkpt>
      <trkpt lat="37.2708598" lon="-109.9392391">
        <ele>1690.1350098</ele>
        <time>2012-09-19T20:06:02Z</time>
      </trkpt>
      <trkpt lat="37.2706981" lon="-109.9391377">
        <ele>1687.7316895</ele>
        <time>2012-09-19T20:06:04Z</time>
      </trkpt>
      <trkpt lat="37.2705221" lon="-109.9390605">
        <ele>1687.7316895</ele>
        <time>2012-09-19T20:06:06Z</time>
      </trkpt>
      <trkpt lat="37.2703511" lon="-109.9389806">
        <ele>1685.3283691</ele>
        <time>2012-09-19T20:06:08Z</time>
      </trkpt>
      <trkpt lat="37.2701905" lon="-109.9388717">
        <ele>1684.8479004</ele>
        <time>2012-09-19T20:06:10Z</time>
      </trkpt>
      <trkpt lat="37.2700428" lon="-109.9387157">
        <ele>1683.4057617</ele>
        <time>2012-09-19T20:06:12Z</time>
      </trkpt>
      <trkpt lat="37.2699061" lon="-109.9385107">
        <ele>1682.4445801</ele>
        <time>2012-09-19T20:06:14Z</time>
      </trkpt>
      <trkpt lat="37.2697656" lon="-109.9382739">
        <ele>1680.5219727</ele>
        <time>2012-09-19T20:06:16Z</time>
      </trkpt>
      <trkpt lat="37.2696247" lon="-109.9380321">
        <ele>1678.5993652</ele>
        <time>2012-09-19T20:06:18Z</time>
      </trkpt>
      <trkpt lat="37.2694709" lon="-109.9377961">
        <ele>1678.1186523</ele>
        <time>2012-09-19T20:06:20Z</time>
      </trkpt>
      <trkpt lat="37.2693081" lon="-109.9375717">
        <ele>1675.7150879</ele>
        <time>2012-09-19T20:06:22Z</time>
      </trkpt>
      <trkpt lat="37.2691522" lon="-109.9373334">
        <ele>1673.7924805</ele>
        <time>2012-09-19T20:06:24Z</time>
      </trkpt>
      <trkpt lat="37.2689984" lon="-109.9370842">
        <ele>1671.8698730</ele>
        <time>2012-09-19T20:06:26Z</time>
      </trkpt>
      <trkpt lat="37.2688440" lon="-109.9368211">
        <ele>1669.4667969</ele>
        <time>2012-09-19T20:06:28Z</time>
      </trkpt>
      <trkpt lat="37.2687084" lon="-109.9365318">
        <ele>1668.5053711</ele>
        <time>2012-09-19T20:06:30Z</time>
      </trkpt>
      <trkpt lat="37.2686034" lon="-109.9362252">
        <ele>1666.5827637</ele>
        <time>2012-09-19T20:06:32Z</time>
      </trkpt>
      <trkpt lat="37.2684970" lon="-109.9359250">
        <ele>1664.1794434</ele>
        <time>2012-09-19T20:06:34Z</time>
      </trkpt>
      <trkpt lat="37.2683646" lon="-109.9356477">
        <ele>1663.2182617</ele>
        <time>2012-09-19T20:06:36Z</time>
      </trkpt>
      <trkpt lat="37.2681994" lon="-109.9354018">
        <ele>1662.7375488</ele>
        <time>2012-09-19T20:06:38Z</time>
      </trkpt>
      <trkpt lat="37.2680023" lon="-109.9351904">
        <ele>1660.8149414</ele>
        <time>2012-09-19T20:06:40Z</time>
      </trkpt>
      <trkpt lat="37.2677729" lon="-109.9350256">
        <ele>1658.8920898</ele>
        <time>2012-09-19T20:06:42Z</time>
      </trkpt>
      <trkpt lat="37.2675336" lon="-109.9348864">
        <ele>1657.9309082</ele>
        <time>2012-09-19T20:06:44Z</time>
      </trkpt>
      <trkpt lat="37.2672918" lon="-109.9347494">
        <ele>1657.4501953</ele>
        <time>2012-09-19T20:06:46Z</time>
      </trkpt>
      <trkpt lat="37.2670466" lon="-109.9346149">
        <ele>1656.4887695</ele>
        <time>2012-09-19T20:06:48Z</time>
      </trkpt>
      <trkpt lat="37.2667960" lon="-109.9344785">
        <ele>1655.0468750</ele>
        <time>2012-09-19T20:06:50Z</time>
      </trkpt>
      <trkpt lat="37.2665406" lon="-109.9343388">
        <ele>1654.0856934</ele>
        <time>2012-09-19T20:06:52Z</time>
      </trkpt>
      <trkpt lat="37.2662786" lon="-109.9341967">
        <ele>1652.6435547</ele>
        <time>2012-09-19T20:06:54Z</time>
      </trkpt>
      <trkpt lat="37.2660138" lon="-109.9340503">
        <ele>1652.1628418</ele>
        <time>2012-09-19T20:06:56Z</time>
      </trkpt>
      <trkpt lat="37.2657504" lon="-109.9339025">
        <ele>1650.2404785</ele>
        <time>2012-09-19T20:06:58Z</time>
      </trkpt>
      <trkpt lat="37.2654925" lon="-109.9337520">
        <ele>1646.8757324</ele>
        <time>2012-09-19T20:07:00Z</time>
      </trkpt>
      <trkpt lat="37.2652408" lon="-109.9335860">
        <ele>1646.3952637</ele>
        <time>2012-09-19T20:07:02Z</time>
      </trkpt>
      <trkpt lat="37.2650029" lon="-109.9333940">
        <ele>1645.4338379</ele>
        <time>2012-09-19T20:07:04Z</time>
      </trkpt>
      <trkpt lat="37.2647914" lon="-109.9331939">
        <ele>1644.4724121</ele>
        <time>2012-09-19T20:07:06Z</time>
      </trkpt>
      <trkpt lat="37.2646255" lon="-109.9330241">
        <ele>1645.4338379</ele>
        <time>2012-09-19T20:07:08Z</time>
      </trkpt>
      <trkpt lat="37.2645043" lon="-109.9328959">
        <ele>1643.9916992</ele>
        <time>2012-09-19T20:07:10Z</time>
      </trkpt>
      <trkpt lat="37.2643753" lon="-109.9327588">
        <ele>1644.4724121</ele>
        <time>2012-09-19T20:07:13Z</time>
      </trkpt>
      <trkpt lat="37.2642879" lon="-109.9325864">
        <ele>1642.0690918</ele>
        <time>2012-09-19T20:07:18Z</time>
      </trkpt>
      <trkpt lat="37.2643443" lon="-109.9324227">
        <ele>1642.0690918</ele>
        <time>2012-09-19T20:07:58Z</time>
      </trkpt>
      <trkpt lat="37.2643696" lon="-109.9322009">
        <ele>1642.5498047</ele>
        <time>2012-09-19T20:08:02Z</time>
      </trkpt>
      <trkpt lat="37.2643704" lon="-109.9319910">
        <ele>1642.0690918</ele>
        <time>2012-09-19T20:08:05Z</time>
      </trkpt>
      <trkpt lat="37.2643888" lon="-109.9317704">
        <ele>1642.0690918</ele>
        <time>2012-09-19T20:08:08Z</time>
      </trkpt>
      <trkpt lat="37.2644401" lon="-109.9315544">
        <ele>1641.5883789</ele>
        <time>2012-09-19T20:08:11Z</time>
      </trkpt>
      <trkpt lat="37.2645545" lon="-109.9313591">
        <ele>1641.5883789</ele>
        <time>2012-09-19T20:08:14Z</time>
      </trkpt>
      <trkpt lat="37.2646963" lon="-109.9311908">
        <ele>1641.5883789</ele>
        <time>2012-09-19T20:08:17Z</time>
      </trkpt>
      <trkpt lat="37.2648107" lon="-109.9310757">
        <ele>1641.5883789</ele>
        <time>2012-09-19T20:08:20Z</time>
      </trkpt>
      <trkpt lat="37.2649636" lon="-109.9309808">
        <ele>1640.6269531</ele>
        <time>2012-09-19T20:08:24Z</time>
      </trkpt>
      <trkpt lat="37.2651294" lon="-109.9308734">
        <ele>1638.2238770</ele>
        <time>2012-09-19T20:08:28Z</time>
      </trkpt>
      <trkpt lat="37.2652285" lon="-109.9306868">
        <ele>1636.3012695</ele>
        <time>2012-09-19T20:08:31Z</time>
      </trkpt>
      <trkpt lat="37.2652689" lon="-109.9304350">
        <ele>1636.7817383</ele>
        <time>2012-09-19T20:08:34Z</time>
      </trkpt>
      <trkpt lat="37.2652610" lon="-109.9301781">
        <ele>1636.7817383</ele>
        <time>2012-09-19T20:08:37Z</time>
      </trkpt>
      <trkpt lat="37.2652601" lon="-109.9299273">
        <ele>1635.3398438</ele>
        <time>2012-09-19T20:08:40Z</time>
      </trkpt>
      <trkpt lat="37.2652661" lon="-109.9297386">
        <ele>1634.8593750</ele>
        <time>2012-09-19T20:08:43Z</time>
      </trkpt>
      <trkpt lat="37.2652865" lon="-109.9295255">
        <ele>1631.9753418</ele>
        <time>2012-09-19T20:08:47Z</time>
      </trkpt>
      <trkpt lat="37.2653205" lon="-109.9293126">
        <ele>1630.5334473</ele>
        <time>2012-09-19T20:08:51Z</time>
      </trkpt>
      <trkpt lat="37.2653915" lon="-109.9291406">
        <ele>1631.9753418</ele>
        <time>2012-09-19T20:08:54Z</time>
      </trkpt>
      <trkpt lat="37.2655222" lon="-109.9289510">
        <ele>1633.4172363</ele>
        <time>2012-09-19T20:08:57Z</time>
      </trkpt>
      <trkpt lat="37.2656339" lon="-109.9288230">
        <ele>1634.8593750</ele>
        <time>2012-09-19T20:08:59Z</time>
      </trkpt>
      <trkpt lat="37.2657580" lon="-109.9286909">
        <ele>1634.3786621</ele>
        <time>2012-09-19T20:09:01Z</time>
      </trkpt>
      <trkpt lat="37.2658818" lon="-109.9285682">
        <ele>1634.8593750</ele>
        <time>2012-09-19T20:09:03Z</time>
      </trkpt>
      <trkpt lat="37.2660025" lon="-109.9284477">
        <ele>1633.8979492</ele>
        <time>2012-09-19T20:09:05Z</time>
      </trkpt>
      <trkpt lat="37.2661241" lon="-109.9283273">
        <ele>1633.8979492</ele>
        <time>2012-09-19T20:09:07Z</time>
      </trkpt>
      <trkpt lat="37.2662443" lon="-109.9282126">
        <ele>1635.3398438</ele>
        <time>2012-09-19T20:09:09Z</time>
      </trkpt>
      <trkpt lat="37.2664156" lon="-109.9280475">
        <ele>1633.8979492</ele>
        <time>2012-09-19T20:09:12Z</time>
      </trkpt>
      <trkpt lat="37.2665855" lon="-109.9278792">
        <ele>1634.8593750</ele>
        <time>2012-09-19T20:09:15Z</time>
      </trkpt>
      <trkpt lat="37.2667481" lon="-109.9276971">
        <ele>1634.3786621</ele>
        <time>2012-09-19T20:09:18Z</time>
      </trkpt>
      <trkpt lat="37.2668488" lon="-109.9275664">
        <ele>1635.3398438</ele>
        <time>2012-09-19T20:09:20Z</time>
      </trkpt>
      <trkpt lat="37.2669957" lon="-109.9273696">
        <ele>1634.8593750</ele>
        <time>2012-09-19T20:09:23Z</time>
      </trkpt>
      <trkpt lat="37.2671254" lon="-109.9271871">
        <ele>1633.8979492</ele>
        <time>2012-09-19T20:09:26Z</time>
      </trkpt>
      <trkpt lat="37.2672359" lon="-109.9270297">
        <ele>1633.4172363</ele>
        <time>2012-09-19T20:09:29Z</time>
      </trkpt>
      <trkpt lat="37.2673623" lon="-109.9268658">
        <ele>1633.4172363</ele>
        <time>2012-09-19T20:09:33Z</time>
      </trkpt>
      <trkpt lat="37.2674640" lon="-109.9267343">
        <ele>1633.4172363</ele>
        <time>2012-09-19T20:09:40Z</time>
      </trkpt>
      <trkpt lat="37.2675481" lon="-109.9265933">
        <ele>1632.4560547</ele>
        <time>2012-09-19T20:09:55Z</time>
      </trkpt>
      <trkpt lat="37.2676678" lon="-109.9264231">
        <ele>1632.4560547</ele>
        <time>2012-09-19T20:09:59Z</time>
      </trkpt>
      <trkpt lat="37.2677702" lon="-109.9262828">
        <ele>1631.9753418</ele>
        <time>2012-09-19T20:10:02Z</time>
      </trkpt>
      <trkpt lat="37.2678857" lon="-109.9261185">
        <ele>1631.4946289</ele>
        <time>2012-09-19T20:10:05Z</time>
      </trkpt>
      <trkpt lat="37.2680059" lon="-109.9259626">
        <ele>1632.4560547</ele>
        <time>2012-09-19T20:10:08Z</time>
      </trkpt>
      <trkpt lat="37.2681011" lon="-109.9257895">
        <ele>1631.4946289</ele>
        <time>2012-09-19T20:10:11Z</time>
      </trkpt>
      <trkpt lat="37.2681277" lon="-109.9255643">
        <ele>1630.0527344</ele>
        <time>2012-09-19T20:10:14Z</time>
      </trkpt>
      <trkpt lat="37.2681542" lon="-109.9253498">
        <ele>1629.5720215</ele>
        <time>2012-09-19T20:10:17Z</time>
      </trkpt>
      <trkpt lat="37.2681816" lon="-109.9251405">
        <ele>1630.0527344</ele>
        <time>2012-09-19T20:10:20Z</time>
      </trkpt>
      <trkpt lat="37.2682163" lon="-109.9249156">
        <ele>1629.0913086</ele>
        <time>2012-09-19T20:10:23Z</time>
      </trkpt>
      <trkpt lat="37.2682241" lon="-109.9246823">
        <ele>1627.6491699</ele>
        <time>2012-09-19T20:10:26Z</time>
      </trkpt>
      <trkpt lat="37.2682101" lon="-109.9244323">
        <ele>1627.1687012</ele>
        <time>2012-09-19T20:10:29Z</time>
      </trkpt>
      <trkpt lat="37.2681883" lon="-109.9241908">
        <ele>1627.1687012</ele>
        <time>2012-09-19T20:10:32Z</time>
      </trkpt>
      <trkpt lat="37.2681719" lon="-109.9239635">
        <ele>1626.6879883</ele>
        <time>2012-09-19T20:10:35Z</time>
      </trkpt>
      <trkpt lat="37.2681578" lon="-109.9237777">
        <ele>1626.2072754</ele>
        <time>2012-09-19T20:10:37Z</time>
      </trkpt>
      <trkpt lat="37.2681377" lon="-109.9235739">
        <ele>1625.7265625</ele>
        <time>2012-09-19T20:10:39Z</time>
      </trkpt>
      <trkpt lat="37.2681190" lon="-109.9233640">
        <ele>1626.2072754</ele>
        <time>2012-09-19T20:10:41Z</time>
      </trkpt>
      <trkpt lat="37.2681072" lon="-109.9231575">
        <ele>1625.7265625</ele>
        <time>2012-09-19T20:10:43Z</time>
      </trkpt>
      <trkpt lat="37.2681131" lon="-109.9229518">
        <ele>1625.7265625</ele>
        <time>2012-09-19T20:10:45Z</time>
      </trkpt>
      <trkpt lat="37.2681327" lon="-109.9227384">
        <ele>1625.7265625</ele>
        <time>2012-09-19T20:10:47Z</time>
      </trkpt>
      <trkpt lat="37.2681661" lon="-109.9225111">
        <ele>1624.7653809</ele>
        <time>2012-09-19T20:10:49Z</time>
      </trkpt>
      <trkpt lat="37.2681988" lon="-109.9222702">
        <ele>1623.3234863</ele>
        <time>2012-09-19T20:10:51Z</time>
      </trkpt>
      <trkpt lat="37.2682355" lon="-109.9220251">
        <ele>1623.3234863</ele>
        <time>2012-09-19T20:10:53Z</time>
      </trkpt>
      <trkpt lat="37.2682737" lon="-109.9217844">
        <ele>1622.8427734</ele>
        <time>2012-09-19T20:10:55Z</time>
      </trkpt>
      <trkpt lat="37.2683136" lon="-109.9215465">
        <ele>1622.3620605</ele>
        <time>2012-09-19T20:10:57Z</time>
      </trkpt>
      <trkpt lat="37.2683458" lon="-109.9213098">
        <ele>1622.3620605</ele>
        <time>2012-09-19T20:10:59Z</time>
      </trkpt>
      <trkpt lat="37.2683785" lon="-109.9210745">
        <ele>1622.3620605</ele>
        <time>2012-09-19T20:11:01Z</time>
      </trkpt>
      <trkpt lat="37.2684121" lon="-109.9208393">
        <ele>1621.8813477</ele>
        <time>2012-09-19T20:11:03Z</time>
      </trkpt>
      <trkpt lat="37.2684451" lon="-109.9205948">
        <ele>1621.4006348</ele>
        <time>2012-09-19T20:11:05Z</time>
      </trkpt>
      <trkpt lat="37.2684774" lon="-109.9203419">
        <ele>1620.4394531</ele>
        <time>2012-09-19T20:11:07Z</time>
      </trkpt>
      <trkpt lat="37.2685081" lon="-109.9200861">
        <ele>1620.4394531</ele>
        <time>2012-09-19T20:11:09Z</time>
      </trkpt>
      <trkpt lat="37.2685363" lon="-109.9198324">
        <ele>1619.9587402</ele>
        <time>2012-09-19T20:11:11Z</time>
      </trkpt>
      <trkpt lat="37.2685609" lon="-109.9195817">
        <ele>1618.9975586</ele>
        <time>2012-09-19T20:11:13Z</time>
      </trkpt>
      <trkpt lat="37.2685851" lon="-109.9193305">
        <ele>1618.5168457</ele>
        <time>2012-09-19T20:11:15Z</time>
      </trkpt>
      <trkpt lat="37.2686065" lon="-109.9190875">
        <ele>1617.5554199</ele>
        <time>2012-09-19T20:11:17Z</time>
      </trkpt>
      <trkpt lat="37.2686262" lon="-109.9188524">
        <ele>1617.0749512</ele>
        <time>2012-09-19T20:11:19Z</time>
      </trkpt>
      <trkpt lat="37.2686432" lon="-109.9186208">
        <ele>1616.1135254</ele>
        <time>2012-09-19T20:11:21Z</time>
      </trkpt>
      <trkpt lat="37.2686555" lon="-109.9183933">
        <ele>1616.5942383</ele>
        <time>2012-09-19T20:11:23Z</time>
      </trkpt>
      <trkpt lat="37.2686629" lon="-109.9181613">
        <ele>1615.1523438</ele>
        <time>2012-09-19T20:11:25Z</time>
      </trkpt>
      <trkpt lat="37.2686568" lon="-109.9179267">
        <ele>1614.6716309</ele>
        <time>2012-09-19T20:11:27Z</time>
      </trkpt>
      <trkpt lat="37.2686349" lon="-109.9176957">
        <ele>1612.7490234</ele>
        <time>2012-09-19T20:11:29Z</time>
      </trkpt>
      <trkpt lat="37.2685976" lon="-109.9174734">
        <ele>1612.2683105</ele>
        <time>2012-09-19T20:11:31Z</time>
      </trkpt>
      <trkpt lat="37.2685453" lon="-109.9172579">
        <ele>1611.3068848</ele>
        <time>2012-09-19T20:11:33Z</time>
      </trkpt>
      <trkpt lat="37.2684862" lon="-109.9170424">
        <ele>1610.3454590</ele>
        <time>2012-09-19T20:11:35Z</time>
      </trkpt>
      <trkpt lat="37.2684275" lon="-109.9168258">
        <ele>1609.8647461</ele>
        <time>2012-09-19T20:11:37Z</time>
      </trkpt>
      <trkpt lat="37.2683664" lon="-109.9166042">
        <ele>1608.9035645</ele>
        <time>2012-09-19T20:11:39Z</time>
      </trkpt>
      <trkpt lat="37.2682993" lon="-109.9163783">
        <ele>1607.9423828</ele>
        <time>2012-09-19T20:11:41Z</time>
      </trkpt>
      <trkpt lat="37.2682307" lon="-109.9161531">
        <ele>1607.9423828</ele>
        <time>2012-09-19T20:11:43Z</time>
      </trkpt>
      <trkpt lat="37.2681592" lon="-109.9159267">
        <ele>1607.4616699</ele>
        <time>2012-09-19T20:11:45Z</time>
      </trkpt>
      <trkpt lat="37.2680854" lon="-109.9157009">
        <ele>1606.9809570</ele>
        <time>2012-09-19T20:11:47Z</time>
      </trkpt>
      <trkpt lat="37.2680129" lon="-109.9154738">
        <ele>1606.5002441</ele>
        <time>2012-09-19T20:11:49Z</time>
      </trkpt>
      <trkpt lat="37.2679375" lon="-109.9152471">
        <ele>1605.5390625</ele>
        <time>2012-09-19T20:11:51Z</time>
      </trkpt>
      <trkpt lat="37.2678613" lon="-109.9150220">
        <ele>1604.5776367</ele>
        <time>2012-09-19T20:11:53Z</time>
      </trkpt>
      <trkpt lat="37.2677843" lon="-109.9147933">
        <ele>1604.0971680</ele>
        <time>2012-09-19T20:11:55Z</time>
      </trkpt>
      <trkpt lat="37.2677061" lon="-109.9145637">
        <ele>1602.6550293</ele>
        <time>2012-09-19T20:11:57Z</time>
      </trkpt>
      <trkpt lat="37.2676247" lon="-109.9143332">
        <ele>1601.2131348</ele>
        <time>2012-09-19T20:11:59Z</time>
      </trkpt>
      <trkpt lat="37.2675378" lon="-109.9141030">
        <ele>1600.7324219</ele>
        <time>2012-09-19T20:12:01Z</time>
      </trkpt>
      <trkpt lat="37.2674491" lon="-109.9138694">
        <ele>1598.8098145</ele>
        <time>2012-09-19T20:12:03Z</time>
      </trkpt>
      <trkpt lat="37.2673596" lon="-109.9136369">
        <ele>1598.3291016</ele>
        <time>2012-09-19T20:12:05Z</time>
      </trkpt>
      <trkpt lat="37.2672705" lon="-109.9134117">
        <ele>1596.8872070</ele>
        <time>2012-09-19T20:12:07Z</time>
      </trkpt>
      <trkpt lat="37.2671758" lon="-109.9131858">
        <ele>1596.4067383</ele>
        <time>2012-09-19T20:12:09Z</time>
      </trkpt>
      <trkpt lat="37.2670813" lon="-109.9129553">
        <ele>1595.4450684</ele>
        <time>2012-09-19T20:12:11Z</time>
      </trkpt>
      <trkpt lat="37.2669938" lon="-109.9127190">
        <ele>1594.4836426</ele>
        <time>2012-09-19T20:12:13Z</time>
      </trkpt>
      <trkpt lat="37.2669084" lon="-109.9124792">
        <ele>1593.5224609</ele>
        <time>2012-09-19T20:12:15Z</time>
      </trkpt>
      <trkpt lat="37.2668259" lon="-109.9122363">
        <ele>1592.0805664</ele>
        <time>2012-09-19T20:12:17Z</time>
      </trkpt>
      <trkpt lat="37.2667405" lon="-109.9119934">
        <ele>1591.5998535</ele>
        <time>2012-09-19T20:12:19Z</time>
      </trkpt>
      <trkpt lat="37.2666559" lon="-109.9117519">
        <ele>1590.6384277</ele>
        <time>2012-09-19T20:12:21Z</time>
      </trkpt>
      <trkpt lat="37.2665726" lon="-109.9115100">
        <ele>1591.1191406</ele>
        <time>2012-09-19T20:12:23Z</time>
      </trkpt>
      <trkpt lat="37.2664927" lon="-109.9112697">
        <ele>1590.1579590</ele>
        <time>2012-09-19T20:12:25Z</time>
      </trkpt>
      <trkpt lat="37.2664179" lon="-109.9110309">
        <ele>1589.6772461</ele>
        <time>2012-09-19T20:12:27Z</time>
      </trkpt>
      <trkpt lat="37.2663511" lon="-109.9107908">
        <ele>1589.1965332</ele>
        <time>2012-09-19T20:12:29Z</time>
      </trkpt>
      <trkpt lat="37.2662897" lon="-109.9105512">
        <ele>1589.1965332</ele>
        <time>2012-09-19T20:12:31Z</time>
      </trkpt>
      <trkpt lat="37.2662358" lon="-109.9103123">
        <ele>1588.7160645</ele>
        <time>2012-09-19T20:12:33Z</time>
      </trkpt>
      <trkpt lat="37.2661992" lon="-109.9100721">
        <ele>1588.7160645</ele>
        <time>2012-09-19T20:12:35Z</time>
      </trkpt>
      <trkpt lat="37.2661738" lon="-109.9098279">
        <ele>1587.7546387</ele>
        <time>2012-09-19T20:12:37Z</time>
      </trkpt>
      <trkpt lat="37.2661619" lon="-109.9093386">
        <ele>1587.7546387</ele>
        <time>2012-09-19T20:12:41Z</time>
      </trkpt>
      <trkpt lat="37.2661662" lon="-109.9089929">
        <ele>1585.8320313</ele>
        <time>2012-09-19T20:12:44Z</time>
      </trkpt>
      <trkpt lat="37.2661672" lon="-109.9087868">
        <ele>1585.3513184</ele>
        <time>2012-09-19T20:12:46Z</time>
      </trkpt>
      <trkpt lat="37.2661762" lon="-109.9085977">
        <ele>1585.3513184</ele>
        <time>2012-09-19T20:12:48Z</time>
      </trkpt>
      <trkpt lat="37.2662013" lon="-109.9084227">
        <ele>1584.8708496</ele>
        <time>2012-09-19T20:12:50Z</time>
      </trkpt>
      <trkpt lat="37.2662857" lon="-109.9081842">
        <ele>1582.4675293</ele>
        <time>2012-09-19T20:12:53Z</time>
      </trkpt>
      <trkpt lat="37.2663860" lon="-109.9079571">
        <ele>1581.5061035</ele>
        <time>2012-09-19T20:12:56Z</time>
      </trkpt>
      <trkpt lat="37.2664603" lon="-109.9077208">
        <ele>1579.5832520</ele>
        <time>2012-09-19T20:12:59Z</time>
      </trkpt>
      <trkpt lat="37.2665054" lon="-109.9074870">
        <ele>1578.1413574</ele>
        <time>2012-09-19T20:13:02Z</time>
      </trkpt>
      <trkpt lat="37.2665101" lon="-109.9072524">
        <ele>1575.7380371</ele>
        <time>2012-09-19T20:13:05Z</time>
      </trkpt>
      <trkpt lat="37.2664696" lon="-109.9070603">
        <ele>1573.8154297</ele>
        <time>2012-09-19T20:13:08Z</time>
      </trkpt>
      <trkpt lat="37.2663664" lon="-109.9068939">
        <ele>1572.8542480</ele>
        <time>2012-09-19T20:13:11Z</time>
      </trkpt>
      <trkpt lat="37.2662293" lon="-109.9066931">
        <ele>1572.8542480</ele>
        <time>2012-09-19T20:13:14Z</time>
      </trkpt>
      <trkpt lat="37.2661329" lon="-109.9065454">
        <ele>1572.8542480</ele>
        <time>2012-09-19T20:13:16Z</time>
      </trkpt>
      <trkpt lat="37.2660356" lon="-109.9063772">
        <ele>1573.3349609</ele>
        <time>2012-09-19T20:13:18Z</time>
      </trkpt>
      <trkpt lat="37.2659408" lon="-109.9062011">
        <ele>1572.3735352</ele>
        <time>2012-09-19T20:13:20Z</time>
      </trkpt>
      <trkpt lat="37.2658607" lon="-109.9060136">
        <ele>1572.8542480</ele>
        <time>2012-09-19T20:13:22Z</time>
      </trkpt>
      <trkpt lat="37.2658059" lon="-109.9058047">
        <ele>1572.8542480</ele>
        <time>2012-09-19T20:13:24Z</time>
      </trkpt>
      <trkpt lat="37.2657598" lon="-109.9055916">
        <ele>1572.3735352</ele>
        <time>2012-09-19T20:13:26Z</time>
      </trkpt>
      <trkpt lat="37.2656941" lon="-109.9053872">
        <ele>1572.3735352</ele>
        <time>2012-09-19T20:13:28Z</time>
      </trkpt>
      <trkpt lat="37.2656222" lon="-109.9051829">
        <ele>1572.3735352</ele>
        <time>2012-09-19T20:13:30Z</time>
      </trkpt>
      <trkpt lat="37.2655548" lon="-109.9049780">
        <ele>1573.3349609</ele>
        <time>2012-09-19T20:13:32Z</time>
      </trkpt>
      <trkpt lat="37.2654928" lon="-109.9047716">
        <ele>1573.3349609</ele>
        <time>2012-09-19T20:13:34Z</time>
      </trkpt>
      <trkpt lat="37.2654284" lon="-109.9045664">
        <ele>1571.8928223</ele>
        <time>2012-09-19T20:13:36Z</time>
      </trkpt>
      <trkpt lat="37.2653488" lon="-109.9043657">
        <ele>1571.8928223</ele>
        <time>2012-09-19T20:13:38Z</time>
      </trkpt>
      <trkpt lat="37.2652513" lon="-109.9041620">
        <ele>1570.4509277</ele>
        <time>2012-09-19T20:13:40Z</time>
      </trkpt>
      <trkpt lat="37.2651438" lon="-109.9039544">
        <ele>1570.9316406</ele>
        <time>2012-09-19T20:13:42Z</time>
      </trkpt>
      <trkpt lat="37.2650285" lon="-109.9037425">
        <ele>1569.9702148</ele>
        <time>2012-09-19T20:13:44Z</time>
      </trkpt>
      <trkpt lat="37.2649090" lon="-109.9035235">
        <ele>1569.4897461</ele>
        <time>2012-09-19T20:13:46Z</time>
      </trkpt>
      <trkpt lat="37.2647856" lon="-109.9033028">
        <ele>1568.0476074</ele>
        <time>2012-09-19T20:13:48Z</time>
      </trkpt>
      <trkpt lat="37.2646623" lon="-109.9030798">
        <ele>1567.0864258</ele>
        <time>2012-09-19T20:13:50Z</time>
      </trkpt>
      <trkpt lat="37.2645359" lon="-109.9028531">
        <ele>1566.6057129</ele>
        <time>2012-09-19T20:13:52Z</time>
      </trkpt>
      <trkpt lat="37.2644125" lon="-109.9026329">
        <ele>1565.1638184</ele>
        <time>2012-09-19T20:13:54Z</time>
      </trkpt>
      <trkpt lat="37.2642990" lon="-109.9024300">
        <ele>1564.2023926</ele>
        <time>2012-09-19T20:13:56Z</time>
      </trkpt>
      <trkpt lat="37.2641925" lon="-109.9022387">
        <ele>1563.2409668</ele>
        <time>2012-09-19T20:13:58Z</time>
      </trkpt>
      <trkpt lat="37.2640923" lon="-109.9020527">
        <ele>1562.7602539</ele>
        <time>2012-09-19T20:14:00Z</time>
      </trkpt>
      <trkpt lat="37.2639916" lon="-109.9018684">
        <ele>1562.2795410</ele>
        <time>2012-09-19T20:14:02Z</time>
      </trkpt>
      <trkpt lat="37.2638897" lon="-109.9016850">
        <ele>1562.2795410</ele>
        <time>2012-09-19T20:14:04Z</time>
      </trkpt>
      <trkpt lat="37.2637906" lon="-109.9015000">
        <ele>1561.7990723</ele>
        <time>2012-09-19T20:14:06Z</time>
      </trkpt>
      <trkpt lat="37.2636889" lon="-109.9013176">
        <ele>1560.8376465</ele>
        <time>2012-09-19T20:14:08Z</time>
      </trkpt>
      <trkpt lat="37.2635838" lon="-109.9011388">
        <ele>1560.3569336</ele>
        <time>2012-09-19T20:14:10Z</time>
      </trkpt>
      <trkpt lat="37.2634785" lon="-109.9009603">
        <ele>1559.8762207</ele>
        <time>2012-09-19T20:14:12Z</time>
      </trkpt>
      <trkpt lat="37.2633718" lon="-109.9007795">
        <ele>1558.9150391</ele>
        <time>2012-09-19T20:14:14Z</time>
      </trkpt>
      <trkpt lat="37.2632607" lon="-109.9005969">
        <ele>1558.4343262</ele>
        <time>2012-09-19T20:14:16Z</time>
      </trkpt>
      <trkpt lat="37.2631474" lon="-109.9004092">
        <ele>1556.9924316</ele>
        <time>2012-09-19T20:14:18Z</time>
      </trkpt>
      <trkpt lat="37.2630298" lon="-109.9002204">
        <ele>1556.9924316</ele>
        <time>2012-09-19T20:14:20Z</time>
      </trkpt>
      <trkpt lat="37.2629120" lon="-109.9000324">
        <ele>1556.5117188</ele>
        <time>2012-09-19T20:14:22Z</time>
      </trkpt>
      <trkpt lat="37.2627964" lon="-109.8998398">
        <ele>1555.0698242</ele>
        <time>2012-09-19T20:14:24Z</time>
      </trkpt>
      <trkpt lat="37.2626835" lon="-109.8996445">
        <ele>1556.0310059</ele>
        <time>2012-09-19T20:14:26Z</time>
      </trkpt>
      <trkpt lat="37.2625733" lon="-109.8994488">
        <ele>1554.5891113</ele>
        <time>2012-09-19T20:14:28Z</time>
      </trkpt>
      <trkpt lat="37.2624638" lon="-109.8992576">
        <ele>1553.6279297</ele>
        <time>2012-09-19T20:14:30Z</time>
      </trkpt>
      <trkpt lat="37.2623587" lon="-109.8990756">
        <ele>1552.6665039</ele>
        <time>2012-09-19T20:14:32Z</time>
      </trkpt>
      <trkpt lat="37.2622607" lon="-109.8988923">
        <ele>1551.7053223</ele>
        <time>2012-09-19T20:14:34Z</time>
      </trkpt>
      <trkpt lat="37.2621691" lon="-109.8987064">
        <ele>1551.7053223</ele>
        <time>2012-09-19T20:14:36Z</time>
      </trkpt>
      <trkpt lat="37.2620852" lon="-109.8985133">
        <ele>1551.2246094</ele>
        <time>2012-09-19T20:14:38Z</time>
      </trkpt>
      <trkpt lat="37.2620070" lon="-109.8983161">
        <ele>1550.7438965</ele>
        <time>2012-09-19T20:14:40Z</time>
      </trkpt>
      <trkpt lat="37.2619314" lon="-109.8981159">
        <ele>1550.2634277</ele>
        <time>2012-09-19T20:14:42Z</time>
      </trkpt>
      <trkpt lat="37.2618571" lon="-109.8979116">
        <ele>1549.3020020</ele>
        <time>2012-09-19T20:14:44Z</time>
      </trkpt>
      <trkpt lat="37.2617810" lon="-109.8977061">
        <ele>1549.3020020</ele>
        <time>2012-09-19T20:14:46Z</time>
      </trkpt>
      <trkpt lat="37.2617095" lon="-109.8975025">
        <ele>1549.3020020</ele>
        <time>2012-09-19T20:14:48Z</time>
      </trkpt>
      <trkpt lat="37.2616483" lon="-109.8972970">
        <ele>1548.8212891</ele>
        <time>2012-09-19T20:14:50Z</time>
      </trkpt>
      <trkpt lat="37.2615982" lon="-109.8970856">
        <ele>1548.3405762</ele>
        <time>2012-09-19T20:14:52Z</time>
      </trkpt>
      <trkpt lat="37.2615557" lon="-109.8968654">
        <ele>1548.3405762</ele>
        <time>2012-09-19T20:14:54Z</time>
      </trkpt>
      <trkpt lat="37.2615195" lon="-109.8966362">
        <ele>1546.8984375</ele>
        <time>2012-09-19T20:14:56Z</time>
      </trkpt>
      <trkpt lat="37.2614843" lon="-109.8964013">
        <ele>1546.8984375</ele>
        <time>2012-09-19T20:14:58Z</time>
      </trkpt>
      <trkpt lat="37.2614470" lon="-109.8961645">
        <ele>1545.9372559</ele>
        <time>2012-09-19T20:15:00Z</time>
      </trkpt>
      <trkpt lat="37.2614030" lon="-109.8959268">
        <ele>1545.4565430</ele>
        <time>2012-09-19T20:15:02Z</time>
      </trkpt>
      <trkpt lat="37.2613551" lon="-109.8956863">
        <ele>1544.4951172</ele>
        <time>2012-09-19T20:15:04Z</time>
      </trkpt>
      <trkpt lat="37.2613044" lon="-109.8954409">
        <ele>1544.0146484</ele>
        <time>2012-09-19T20:15:06Z</time>
      </trkpt>
      <trkpt lat="37.2612530" lon="-109.8951934">
        <ele>1543.5339355</ele>
        <time>2012-09-19T20:15:08Z</time>
      </trkpt>
      <trkpt lat="37.2612035" lon="-109.8949493">
        <ele>1542.5727539</ele>
        <time>2012-09-19T20:15:10Z</time>
      </trkpt>
      <trkpt lat="37.2611558" lon="-109.8947074">
        <ele>1541.1306152</ele>
        <time>2012-09-19T20:15:12Z</time>
      </trkpt>
      <trkpt lat="37.2611080" lon="-109.8944635">
        <ele>1540.1694336</ele>
        <time>2012-09-19T20:15:14Z</time>
      </trkpt>
      <trkpt lat="37.2610564" lon="-109.8942226">
        <ele>1539.6887207</ele>
        <time>2012-09-19T20:15:16Z</time>
      </trkpt>
      <trkpt lat="37.2609871" lon="-109.8939945">
        <ele>1538.2468262</ele>
        <time>2012-09-19T20:15:18Z</time>
      </trkpt>
      <trkpt lat="37.2609029" lon="-109.8937754">
        <ele>1537.7661133</ele>
        <time>2012-09-19T20:15:20Z</time>
      </trkpt>
      <trkpt lat="37.2608136" lon="-109.8935549">
        <ele>1537.7661133</ele>
        <time>2012-09-19T20:15:22Z</time>
      </trkpt>
      <trkpt lat="37.2607260" lon="-109.8933353">
        <ele>1536.8046875</ele>
        <time>2012-09-19T20:15:24Z</time>
      </trkpt>
      <trkpt lat="37.2606389" lon="-109.8931196">
        <ele>1536.8046875</ele>
        <time>2012-09-19T20:15:26Z</time>
      </trkpt>
      <trkpt lat="37.2605508" lon="-109.8929060">
        <ele>1536.3242188</ele>
        <time>2012-09-19T20:15:28Z</time>
      </trkpt>
      <trkpt lat="37.2604589" lon="-109.8926931">
        <ele>1536.3242188</ele>
        <time>2012-09-19T20:15:30Z</time>
      </trkpt>
      <trkpt lat="37.2603652" lon="-109.8924820">
        <ele>1535.3627930</ele>
        <time>2012-09-19T20:15:32Z</time>
      </trkpt>
      <trkpt lat="37.2602738" lon="-109.8922689">
        <ele>1534.4016113</ele>
        <time>2012-09-19T20:15:34Z</time>
      </trkpt>
      <trkpt lat="37.2601861" lon="-109.8920541">
        <ele>1533.9208984</ele>
        <time>2012-09-19T20:15:36Z</time>
      </trkpt>
      <trkpt lat="37.2601111" lon="-109.8918413">
        <ele>1533.9208984</ele>
        <time>2012-09-19T20:15:38Z</time>
      </trkpt>
      <trkpt lat="37.2600462" lon="-109.8916343">
        <ele>1532.4790039</ele>
        <time>2012-09-19T20:15:40Z</time>
      </trkpt>
      <trkpt lat="37.2599846" lon="-109.8914303">
        <ele>1531.5173340</ele>
        <time>2012-09-19T20:15:42Z</time>
      </trkpt>
      <trkpt lat="37.2599198" lon="-109.8912372">
        <ele>1531.0368652</ele>
        <time>2012-09-19T20:15:44Z</time>
      </trkpt>
      <trkpt lat="37.2598577" lon="-109.8910445">
        <ele>1531.0368652</ele>
        <time>2012-09-19T20:15:46Z</time>
      </trkpt>
      <trkpt lat="37.2597967" lon="-109.8908407">
        <ele>1529.5947266</ele>
        <time>2012-09-19T20:15:48Z</time>
      </trkpt>
      <trkpt lat="37.2597381" lon="-109.8906294">
        <ele>1529.5947266</ele>
        <time>2012-09-19T20:15:50Z</time>
      </trkpt>
      <trkpt lat="37.2596801" lon="-109.8904165">
        <ele>1528.1528320</ele>
        <time>2012-09-19T20:15:52Z</time>
      </trkpt>
      <trkpt lat="37.2596218" lon="-109.8902033">
        <ele>1528.1528320</ele>
        <time>2012-09-19T20:15:54Z</time>
      </trkpt>
      <trkpt lat="37.2595638" lon="-109.8899896">
        <ele>1526.7109375</ele>
        <time>2012-09-19T20:15:56Z</time>
      </trkpt>
      <trkpt lat="37.2594971" lon="-109.8897734">
        <ele>1524.7883301</ele>
        <time>2012-09-19T20:15:58Z</time>
      </trkpt>
      <trkpt lat="37.2594314" lon="-109.8895635">
        <ele>1524.7883301</ele>
        <time>2012-09-19T20:16:00Z</time>
      </trkpt>
      <trkpt lat="37.2593624" lon="-109.8893551">
        <ele>1523.3464355</ele>
        <time>2012-09-19T20:16:02Z</time>
      </trkpt>
      <trkpt lat="37.2592874" lon="-109.8891487">
        <ele>1523.3464355</ele>
        <time>2012-09-19T20:16:04Z</time>
      </trkpt>
      <trkpt lat="37.2592057" lon="-109.8889519">
        <ele>1521.9042969</ele>
        <time>2012-09-19T20:16:06Z</time>
      </trkpt>
      <trkpt lat="37.2591189" lon="-109.8887694">
        <ele>1521.4235840</ele>
        <time>2012-09-19T20:16:08Z</time>
      </trkpt>
      <trkpt lat="37.2590363" lon="-109.8885872">
        <ele>1520.9431152</ele>
        <time>2012-09-19T20:16:10Z</time>
      </trkpt>
      <trkpt lat="37.2589624" lon="-109.8883948">
        <ele>1519.9816895</ele>
        <time>2012-09-19T20:16:12Z</time>
      </trkpt>
      <trkpt lat="37.2589019" lon="-109.8881881">
        <ele>1519.5012207</ele>
        <time>2012-09-19T20:16:14Z</time>
      </trkpt>
      <trkpt lat="37.2588424" lon="-109.8879635">
        <ele>1518.5397949</ele>
        <time>2012-09-19T20:16:16Z</time>
      </trkpt>
      <trkpt lat="37.2587808" lon="-109.8877277">
        <ele>1517.0979004</ele>
        <time>2012-09-19T20:16:18Z</time>
      </trkpt>
      <trkpt lat="37.2587186" lon="-109.8874862">
        <ele>1516.6171875</ele>
        <time>2012-09-19T20:16:20Z</time>
      </trkpt>
      <trkpt lat="37.2586568" lon="-109.8872439">
        <ele>1515.1750488</ele>
        <time>2012-09-19T20:16:22Z</time>
      </trkpt>
      <trkpt lat="37.2585958" lon="-109.8870024">
        <ele>1514.6943359</ele>
        <time>2012-09-19T20:16:24Z</time>
      </trkpt>
      <trkpt lat="37.2585356" lon="-109.8867589">
        <ele>1512.7717285</ele>
        <time>2012-09-19T20:16:26Z</time>
      </trkpt>
      <trkpt lat="37.2584775" lon="-109.8865193">
        <ele>1512.7717285</ele>
        <time>2012-09-19T20:16:28Z</time>
      </trkpt>
      <trkpt lat="37.2584208" lon="-109.8862845">
        <ele>1512.2910156</ele>
        <time>2012-09-19T20:16:30Z</time>
      </trkpt>
      <trkpt lat="37.2583644" lon="-109.8860538">
        <ele>1511.3298340</ele>
        <time>2012-09-19T20:16:32Z</time>
      </trkpt>
      <trkpt lat="37.2583077" lon="-109.8858280">
        <ele>1510.8491211</ele>
        <time>2012-09-19T20:16:34Z</time>
      </trkpt>
      <trkpt lat="37.2582555" lon="-109.8856042">
        <ele>1510.8491211</ele>
        <time>2012-09-19T20:16:36Z</time>
      </trkpt>
      <trkpt lat="37.2582110" lon="-109.8853796">
        <ele>1509.8876953</ele>
        <time>2012-09-19T20:16:38Z</time>
      </trkpt>
      <trkpt lat="37.2581769" lon="-109.8851650">
        <ele>1509.8876953</ele>
        <time>2012-09-19T20:16:40Z</time>
      </trkpt>
      <trkpt lat="37.2581548" lon="-109.8849646">
        <ele>1509.8876953</ele>
        <time>2012-09-19T20:16:42Z</time>
      </trkpt>
      <trkpt lat="37.2581412" lon="-109.8847797">
        <ele>1509.4072266</ele>
        <time>2012-09-19T20:16:44Z</time>
      </trkpt>
      <trkpt lat="37.2581281" lon="-109.8845915">
        <ele>1508.4458008</ele>
        <time>2012-09-19T20:16:46Z</time>
      </trkpt>
      <trkpt lat="37.2581136" lon="-109.8843808">
        <ele>1507.0039063</ele>
        <time>2012-09-19T20:16:48Z</time>
      </trkpt>
      <trkpt lat="37.2580948" lon="-109.8841581">
        <ele>1507.4846191</ele>
        <time>2012-09-19T20:16:50Z</time>
      </trkpt>
      <trkpt lat="37.2580726" lon="-109.8839281">
        <ele>1506.0424805</ele>
        <time>2012-09-19T20:16:52Z</time>
      </trkpt>
      <trkpt lat="37.2580488" lon="-109.8836899">
        <ele>1504.1201172</ele>
        <time>2012-09-19T20:16:54Z</time>
      </trkpt>
      <trkpt lat="37.2580239" lon="-109.8834449">
        <ele>1503.1586914</ele>
        <time>2012-09-19T20:16:56Z</time>
      </trkpt>
      <trkpt lat="37.2579975" lon="-109.8831975">
        <ele>1502.6779785</ele>
        <time>2012-09-19T20:16:58Z</time>
      </trkpt>
      <trkpt lat="37.2579742" lon="-109.8829553">
        <ele>1501.7167969</ele>
        <time>2012-09-19T20:17:00Z</time>
      </trkpt>
      <trkpt lat="37.2579518" lon="-109.8827246">
        <ele>1500.7553711</ele>
        <time>2012-09-19T20:17:02Z</time>
      </trkpt>
      <trkpt lat="37.2579281" lon="-109.8825024">
        <ele>1500.7553711</ele>
        <time>2012-09-19T20:17:04Z</time>
      </trkpt>
      <trkpt lat="37.2579048" lon="-109.8822829">
        <ele>1500.7553711</ele>
        <time>2012-09-19T20:17:06Z</time>
      </trkpt>
      <trkpt lat="37.2578805" lon="-109.8820631">
        <ele>1499.7939453</ele>
        <time>2012-09-19T20:17:08Z</time>
      </trkpt>
      <trkpt lat="37.2578594" lon="-109.8818408">
        <ele>1498.8325195</ele>
        <time>2012-09-19T20:17:10Z</time>
      </trkpt>
      <trkpt lat="37.2578365" lon="-109.8816150">
        <ele>1498.3518066</ele>
        <time>2012-09-19T20:17:12Z</time>
      </trkpt>
      <trkpt lat="37.2578188" lon="-109.8813848">
        <ele>1497.8713379</ele>
        <time>2012-09-19T20:17:14Z</time>
      </trkpt>
      <trkpt lat="37.2578069" lon="-109.8811527">
        <ele>1496.4294434</ele>
        <time>2012-09-19T20:17:16Z</time>
      </trkpt>
      <trkpt lat="37.2577914" lon="-109.8809190">
        <ele>1495.9487305</ele>
        <time>2012-09-19T20:17:18Z</time>
      </trkpt>
      <trkpt lat="37.2577692" lon="-109.8806868">
        <ele>1494.9873047</ele>
        <time>2012-09-19T20:17:20Z</time>
      </trkpt>
      <trkpt lat="37.2577453" lon="-109.8804605">
        <ele>1493.0646973</ele>
        <time>2012-09-19T20:17:22Z</time>
      </trkpt>
      <trkpt lat="37.2577290" lon="-109.8802408">
        <ele>1492.5842285</ele>
        <time>2012-09-19T20:17:24Z</time>
      </trkpt>
      <trkpt lat="37.2577140" lon="-109.8800192">
        <ele>1491.6228027</ele>
        <time>2012-09-19T20:17:26Z</time>
      </trkpt>
      <trkpt lat="37.2576987" lon="-109.8797933">
        <ele>1491.1420898</ele>
        <time>2012-09-19T20:17:28Z</time>
      </trkpt>
      <trkpt lat="37.2576874" lon="-109.8795681">
        <ele>1489.7001953</ele>
        <time>2012-09-19T20:17:30Z</time>
      </trkpt>
      <trkpt lat="37.2576786" lon="-109.8793433">
        <ele>1489.2194824</ele>
        <time>2012-09-19T20:17:32Z</time>
      </trkpt>
      <trkpt lat="37.2576609" lon="-109.8791154">
        <ele>1489.2194824</ele>
        <time>2012-09-19T20:17:34Z</time>
      </trkpt>
      <trkpt lat="37.2576423" lon="-109.8788825">
        <ele>1487.7775879</ele>
        <time>2012-09-19T20:17:36Z</time>
      </trkpt>
      <trkpt lat="37.2576199" lon="-109.8786460">
        <ele>1487.2968750</ele>
        <time>2012-09-19T20:17:38Z</time>
      </trkpt>
      <trkpt lat="37.2575955" lon="-109.8784092">
        <ele>1486.8161621</ele>
        <time>2012-09-19T20:17:40Z</time>
      </trkpt>
      <trkpt lat="37.2575705" lon="-109.8781752">
        <ele>1486.8161621</ele>
        <time>2012-09-19T20:17:42Z</time>
      </trkpt>
      <trkpt lat="37.2575473" lon="-109.8779471">
        <ele>1486.8161621</ele>
        <time>2012-09-19T20:17:44Z</time>
      </trkpt>
      <trkpt lat="37.2575239" lon="-109.8777268">
        <ele>1486.3356934</ele>
        <time>2012-09-19T20:17:46Z</time>
      </trkpt>
      <trkpt lat="37.2575009" lon="-109.8775099">
        <ele>1485.8549805</ele>
        <time>2012-09-19T20:17:48Z</time>
      </trkpt>
      <trkpt lat="37.2574754" lon="-109.8772913">
        <ele>1485.3742676</ele>
        <time>2012-09-19T20:17:50Z</time>
      </trkpt>
      <trkpt lat="37.2574480" lon="-109.8770664">
        <ele>1485.3742676</ele>
        <time>2012-09-19T20:17:52Z</time>
      </trkpt>
      <trkpt lat="37.2574170" lon="-109.8768371">
        <ele>1483.4514160</ele>
        <time>2012-09-19T20:17:54Z</time>
      </trkpt>
      <trkpt lat="37.2573888" lon="-109.8766138">
        <ele>1480.0869141</ele>
        <time>2012-09-19T20:17:56Z</time>
      </trkpt>
      <trkpt lat="37.2573542" lon="-109.8763922">
        <ele>1480.0869141</ele>
        <time>2012-09-19T20:17:58Z</time>
      </trkpt>
      <trkpt lat="37.2573107" lon="-109.8761730">
        <ele>1477.6835938</ele>
        <time>2012-09-19T20:18:00Z</time>
      </trkpt>
      <trkpt lat="37.2572621" lon="-109.8759550">
        <ele>1478.1643066</ele>
        <time>2012-09-19T20:18:02Z</time>
      </trkpt>
      <trkpt lat="37.2572072" lon="-109.8757342">
        <ele>1477.6835938</ele>
        <time>2012-09-19T20:18:04Z</time>
      </trkpt>
      <trkpt lat="37.2571445" lon="-109.8755109">
        <ele>1477.2031250</ele>
        <time>2012-09-19T20:18:06Z</time>
      </trkpt>
      <trkpt lat="37.2570750" lon="-109.8752885">
        <ele>1477.2031250</ele>
        <time>2012-09-19T20:18:08Z</time>
      </trkpt>
      <trkpt lat="37.2570028" lon="-109.8750715">
        <ele>1476.2416992</ele>
        <time>2012-09-19T20:18:10Z</time>
      </trkpt>
      <trkpt lat="37.2569349" lon="-109.8748599">
        <ele>1475.7609863</ele>
        <time>2012-09-19T20:18:12Z</time>
      </trkpt>
      <trkpt lat="37.2568860" lon="-109.8746436">
        <ele>1475.7609863</ele>
        <time>2012-09-19T20:18:14Z</time>
      </trkpt>
      <trkpt lat="37.2568630" lon="-109.8744235">
        <ele>1474.7998047</ele>
        <time>2012-09-19T20:18:16Z</time>
      </trkpt>
      <trkpt lat="37.2568674" lon="-109.8741957">
        <ele>1473.8383789</ele>
        <time>2012-09-19T20:18:18Z</time>
      </trkpt>
      <trkpt lat="37.2568756" lon="-109.8739631">
        <ele>1473.3579102</ele>
        <time>2012-09-19T20:18:20Z</time>
      </trkpt>
      <trkpt lat="37.2568900" lon="-109.8737277">
        <ele>1472.8771973</ele>
        <time>2012-09-19T20:18:22Z</time>
      </trkpt>
      <trkpt lat="37.2569077" lon="-109.8734932">
        <ele>1472.8771973</ele>
        <time>2012-09-19T20:18:24Z</time>
      </trkpt>
      <trkpt lat="37.2569236" lon="-109.8732633">
        <ele>1471.9157715</ele>
        <time>2012-09-19T20:18:26Z</time>
      </trkpt>
      <trkpt lat="37.2569458" lon="-109.8730401">
        <ele>1471.9157715</ele>
        <time>2012-09-19T20:18:28Z</time>
      </trkpt>
      <trkpt lat="37.2569807" lon="-109.8728349">
        <ele>1471.9157715</ele>
        <time>2012-09-19T20:18:30Z</time>
      </trkpt>
      <trkpt lat="37.2570557" lon="-109.8725926">
        <ele>1471.4350586</ele>
        <time>2012-09-19T20:18:33Z</time>
      </trkpt>
      <trkpt lat="37.2571416" lon="-109.8723911">
        <ele>1469.0319824</ele>
        <time>2012-09-19T20:18:36Z</time>
      </trkpt>
      <trkpt lat="37.2572547" lon="-109.8721473">
        <ele>1467.5895996</ele>
        <time>2012-09-19T20:18:39Z</time>
      </trkpt>
      <trkpt lat="37.2573480" lon="-109.8719653">
        <ele>1469.0319824</ele>
        <time>2012-09-19T20:18:41Z</time>
      </trkpt>
      <trkpt lat="37.2574273" lon="-109.8717897">
        <ele>1469.0319824</ele>
        <time>2012-09-19T20:18:43Z</time>
      </trkpt>
      <trkpt lat="37.2575034" lon="-109.8716024">
        <ele>1469.0319824</ele>
        <time>2012-09-19T20:18:45Z</time>
      </trkpt>
      <trkpt lat="37.2575852" lon="-109.8714128">
        <ele>1468.5512695</ele>
        <time>2012-09-19T20:18:47Z</time>
      </trkpt>
      <trkpt lat="37.2576692" lon="-109.8712216">
        <ele>1468.0705566</ele>
        <time>2012-09-19T20:18:49Z</time>
      </trkpt>
      <trkpt lat="37.2577527" lon="-109.8710277">
        <ele>1467.5895996</ele>
        <time>2012-09-19T20:18:51Z</time>
      </trkpt>
      <trkpt lat="37.2578342" lon="-109.8708380">
        <ele>1467.1091309</ele>
        <time>2012-09-19T20:18:53Z</time>
      </trkpt>
      <trkpt lat="37.2579117" lon="-109.8706575">
        <ele>1467.5895996</ele>
        <time>2012-09-19T20:18:55Z</time>
      </trkpt>
      <trkpt lat="37.2579804" lon="-109.8704863">
        <ele>1467.5895996</ele>
        <time>2012-09-19T20:18:57Z</time>
      </trkpt>
      <trkpt lat="37.2580342" lon="-109.8702402">
        <ele>1468.0705566</ele>
        <time>2012-09-19T20:19:00Z</time>
      </trkpt>
      <trkpt lat="37.2580333" lon="-109.8700454">
        <ele>1466.6284180</ele>
        <time>2012-09-19T20:19:03Z</time>
      </trkpt>
      <trkpt lat="37.2580375" lon="-109.8698562">
        <ele>1463.7443848</ele>
        <time>2012-09-19T20:19:07Z</time>
      </trkpt>
      <trkpt lat="37.2580364" lon="-109.8696539">
        <ele>1461.3413086</ele>
        <time>2012-09-19T20:19:11Z</time>
      </trkpt>
      <trkpt lat="37.2580144" lon="-109.8694263">
        <ele>1458.9379883</ele>
        <time>2012-09-19T20:19:15Z</time>
      </trkpt>
      <trkpt lat="37.2579883" lon="-109.8692254">
        <ele>1456.5346680</ele>
        <time>2012-09-19T20:19:18Z</time>
      </trkpt>
      <trkpt lat="37.2579770" lon="-109.8690222">
        <ele>1455.0927734</ele>
        <time>2012-09-19T20:19:21Z</time>
      </trkpt>
      <trkpt lat="37.2579937" lon="-109.8688116">
        <ele>1454.6120605</ele>
        <time>2012-09-19T20:19:24Z</time>
      </trkpt>
      <trkpt lat="37.2580293" lon="-109.8685986">
        <ele>1454.1315918</ele>
        <time>2012-09-19T20:19:27Z</time>
      </trkpt>
      <trkpt lat="37.2580695" lon="-109.8683561">
        <ele>1454.6120605</ele>
        <time>2012-09-19T20:19:30Z</time>
      </trkpt>
      <trkpt lat="37.2580994" lon="-109.8681607">
        <ele>1454.1315918</ele>
        <time>2012-09-19T20:19:32Z</time>
      </trkpt>
      <trkpt lat="37.2581291" lon="-109.8679466">
        <ele>1454.6120605</ele>
        <time>2012-09-19T20:19:34Z</time>
      </trkpt>
      <trkpt lat="37.2581588" lon="-109.8677329">
        <ele>1454.1315918</ele>
        <time>2012-09-19T20:19:36Z</time>
      </trkpt>
      <trkpt lat="37.2581954" lon="-109.8675293">
        <ele>1454.1315918</ele>
        <time>2012-09-19T20:19:38Z</time>
      </trkpt>
      <trkpt lat="37.2582413" lon="-109.8673516">
        <ele>1454.1315918</ele>
        <time>2012-09-19T20:19:40Z</time>
      </trkpt>
      <trkpt lat="37.2583021" lon="-109.8671472">
        <ele>1456.0539551</ele>
        <time>2012-09-19T20:19:43Z</time>
      </trkpt>
      <trkpt lat="37.2583823" lon="-109.8669623">
        <ele>1456.5346680</ele>
        <time>2012-09-19T20:19:47Z</time>
      </trkpt>
      <trkpt lat="37.2585138" lon="-109.8668888">
        <ele>1456.0539551</ele>
        <time>2012-09-19T20:19:50Z</time>
      </trkpt>
      <trkpt lat="37.2586602" lon="-109.8669152">
        <ele>1460.3798828</ele>
        <time>2012-09-19T20:19:53Z</time>
      </trkpt>
      <trkpt lat="37.2588097" lon="-109.8670200">
        <ele>1461.8220215</ele>
        <time>2012-09-19T20:19:56Z</time>
      </trkpt>
      <trkpt lat="37.2589704" lon="-109.8671459">
        <ele>1461.3413086</ele>
        <time>2012-09-19T20:19:59Z</time>
      </trkpt>
      <trkpt lat="37.2591377" lon="-109.8672916">
        <ele>1462.3024902</ele>
        <time>2012-09-19T20:20:02Z</time>
      </trkpt>
      <trkpt lat="37.2592563" lon="-109.8674030">
        <ele>1462.3024902</ele>
        <time>2012-09-19T20:20:04Z</time>
      </trkpt>
      <trkpt lat="37.2593882" lon="-109.8675171">
        <ele>1463.2639160</ele>
        <time>2012-09-19T20:20:06Z</time>
      </trkpt>
      <trkpt lat="37.2595310" lon="-109.8676355">
        <ele>1464.2250977</ele>
        <time>2012-09-19T20:20:08Z</time>
      </trkpt>
      <trkpt lat="37.2596811" lon="-109.8677604">
        <ele>1464.7058105</ele>
        <time>2012-09-19T20:20:10Z</time>
      </trkpt>
      <trkpt lat="37.2598363" lon="-109.8678887">
        <ele>1465.6672363</ele>
        <time>2012-09-19T20:20:12Z</time>
      </trkpt>
      <trkpt lat="37.2599945" lon="-109.8680200">
        <ele>1466.1477051</ele>
        <time>2012-09-19T20:20:14Z</time>
      </trkpt>
      <trkpt lat="37.2601554" lon="-109.8681551">
        <ele>1466.6284180</ele>
        <time>2012-09-19T20:20:16Z</time>
      </trkpt>
      <trkpt lat="37.2603180" lon="-109.8682920">
        <ele>1467.1091309</ele>
        <time>2012-09-19T20:20:18Z</time>
      </trkpt>
      <trkpt lat="37.2604791" lon="-109.8684277">
        <ele>1468.5512695</ele>
        <time>2012-09-19T20:20:20Z</time>
      </trkpt>
      <trkpt lat="37.2606402" lon="-109.8685624">
        <ele>1467.5895996</ele>
        <time>2012-09-19T20:20:22Z</time>
      </trkpt>
      <trkpt lat="37.2608030" lon="-109.8686959">
        <ele>1468.0705566</ele>
        <time>2012-09-19T20:20:24Z</time>
      </trkpt>
      <trkpt lat="37.2609685" lon="-109.8688303">
        <ele>1468.0705566</ele>
        <time>2012-09-19T20:20:26Z</time>
      </trkpt>
      <trkpt lat="37.2611323" lon="-109.8689637">
        <ele>1468.5512695</ele>
        <time>2012-09-19T20:20:28Z</time>
      </trkpt>
      <trkpt lat="37.2612941" lon="-109.8690859">
        <ele>1469.5126953</ele>
        <time>2012-09-19T20:20:30Z</time>
      </trkpt>
      <trkpt lat="37.2614677" lon="-109.8691784">
        <ele>1470.4738770</ele>
        <time>2012-09-19T20:20:32Z</time>
      </trkpt>
      <trkpt lat="37.2616532" lon="-109.8692223">
        <ele>1470.4738770</ele>
        <time>2012-09-19T20:20:34Z</time>
      </trkpt>
      <trkpt lat="37.2618428" lon="-109.8692284">
        <ele>1469.0319824</ele>
        <time>2012-09-19T20:20:36Z</time>
      </trkpt>
      <trkpt lat="37.2620402" lon="-109.8692109">
        <ele>1471.4350586</ele>
        <time>2012-09-19T20:20:38Z</time>
      </trkpt>
      <trkpt lat="37.2622419" lon="-109.8691911">
        <ele>1470.9545898</ele>
        <time>2012-09-19T20:20:40Z</time>
      </trkpt>
      <trkpt lat="37.2624512" lon="-109.8691668">
        <ele>1472.3964844</ele>
        <time>2012-09-19T20:20:42Z</time>
      </trkpt>
      <trkpt lat="37.2626556" lon="-109.8691354">
        <ele>1471.9157715</ele>
        <time>2012-09-19T20:20:44Z</time>
      </trkpt>
      <trkpt lat="37.2628317" lon="-109.8691142">
        <ele>1472.3964844</ele>
        <time>2012-09-19T20:20:46Z</time>
      </trkpt>
      <trkpt lat="37.2630013" lon="-109.8691036">
        <ele>1472.3964844</ele>
        <time>2012-09-19T20:20:48Z</time>
      </trkpt>
      <trkpt lat="37.2631823" lon="-109.8690854">
        <ele>1471.9157715</ele>
        <time>2012-09-19T20:20:50Z</time>
      </trkpt>
      <trkpt lat="37.2633705" lon="-109.8690644">
        <ele>1473.3579102</ele>
        <time>2012-09-19T20:20:52Z</time>
      </trkpt>
      <trkpt lat="37.2635668" lon="-109.8690424">
        <ele>1473.8383789</ele>
        <time>2012-09-19T20:20:54Z</time>
      </trkpt>
      <trkpt lat="37.2637613" lon="-109.8690194">
        <ele>1475.2802734</ele>
        <time>2012-09-19T20:20:56Z</time>
      </trkpt>
      <trkpt lat="37.2639408" lon="-109.8690000">
        <ele>1476.2416992</ele>
        <time>2012-09-19T20:20:58Z</time>
      </trkpt>
      <trkpt lat="37.2640913" lon="-109.8689860">
        <ele>1477.2031250</ele>
        <time>2012-09-19T20:21:00Z</time>
      </trkpt>
      <trkpt lat="37.2642915" lon="-109.8689700">
        <ele>1475.7609863</ele>
        <time>2012-09-19T20:21:03Z</time>
      </trkpt>
      <trkpt lat="37.2644722" lon="-109.8689441">
        <ele>1475.2802734</ele>
        <time>2012-09-19T20:21:06Z</time>
      </trkpt>
      <trkpt lat="37.2646638" lon="-109.8688924">
        <ele>1477.6835938</ele>
        <time>2012-09-19T20:21:09Z</time>
      </trkpt>
      <trkpt lat="37.2648121" lon="-109.8688927">
        <ele>1479.1254883</ele>
        <time>2012-09-19T20:21:11Z</time>
      </trkpt>
      <trkpt lat="37.2649734" lon="-109.8689115">
        <ele>1480.0869141</ele>
        <time>2012-09-19T20:21:13Z</time>
      </trkpt>
      <trkpt lat="37.2651374" lon="-109.8689383">
        <ele>1479.6062012</ele>
        <time>2012-09-19T20:21:15Z</time>
      </trkpt>
      <trkpt lat="37.2653086" lon="-109.8689660">
        <ele>1479.1254883</ele>
        <time>2012-09-19T20:21:17Z</time>
      </trkpt>
      <trkpt lat="37.2654836" lon="-109.8690005">
        <ele>1481.5288086</ele>
        <time>2012-09-19T20:21:19Z</time>
      </trkpt>
      <trkpt lat="37.2656584" lon="-109.8690380">
        <ele>1482.0095215</ele>
        <time>2012-09-19T20:21:21Z</time>
      </trkpt>
      <trkpt lat="37.2658334" lon="-109.8690774">
        <ele>1482.4902344</ele>
        <time>2012-09-19T20:21:23Z</time>
      </trkpt>
      <trkpt lat="37.2660130" lon="-109.8691161">
        <ele>1482.0095215</ele>
        <time>2012-09-19T20:21:25Z</time>
      </trkpt>
      <trkpt lat="37.2662003" lon="-109.8691565">
        <ele>1482.4902344</ele>
        <time>2012-09-19T20:21:27Z</time>
      </trkpt>
      <trkpt lat="37.2663907" lon="-109.8691965">
        <ele>1482.4902344</ele>
        <time>2012-09-19T20:21:29Z</time>
      </trkpt>
      <trkpt lat="37.2665836" lon="-109.8692335">
        <ele>1482.9707031</ele>
        <time>2012-09-19T20:21:31Z</time>
      </trkpt>
      <trkpt lat="37.2667785" lon="-109.8692705">
        <ele>1483.4514160</ele>
        <time>2012-09-19T20:21:33Z</time>
      </trkpt>
      <trkpt lat="37.2669783" lon="-109.8693062">
        <ele>1483.4514160</ele>
        <time>2012-09-19T20:21:35Z</time>
      </trkpt>
      <trkpt lat="37.2671799" lon="-109.8693454">
        <ele>1483.9321289</ele>
        <time>2012-09-19T20:21:37Z</time>
      </trkpt>
      <trkpt lat="37.2673792" lon="-109.8693853">
        <ele>1484.8937988</ele>
        <time>2012-09-19T20:21:39Z</time>
      </trkpt>
      <trkpt lat="37.2675751" lon="-109.8694294">
        <ele>1484.8937988</ele>
        <time>2012-09-19T20:21:41Z</time>
      </trkpt>
      <trkpt lat="37.2677719" lon="-109.8694724">
        <ele>1484.8937988</ele>
        <time>2012-09-19T20:21:43Z</time>
      </trkpt>
      <trkpt lat="37.2679687" lon="-109.8695119">
        <ele>1486.3356934</ele>
        <time>2012-09-19T20:21:45Z</time>
      </trkpt>
      <trkpt lat="37.2681656" lon="-109.8695524">
        <ele>1486.8161621</ele>
        <time>2012-09-19T20:21:47Z</time>
      </trkpt>
      <trkpt lat="37.2683705" lon="-109.8695923">
        <ele>1486.8161621</ele>
        <time>2012-09-19T20:21:49Z</time>
      </trkpt>
      <trkpt lat="37.2685798" lon="-109.8696334">
        <ele>1487.2968750</ele>
        <time>2012-09-19T20:21:51Z</time>
      </trkpt>
      <trkpt lat="37.2687888" lon="-109.8696736">
        <ele>1488.2583008</ele>
        <time>2012-09-19T20:21:53Z</time>
      </trkpt>
      <trkpt lat="37.2689980" lon="-109.8697130">
        <ele>1488.2583008</ele>
        <time>2012-09-19T20:21:55Z</time>
      </trkpt>
      <trkpt lat="37.2692021" lon="-109.8697586">
        <ele>1488.7390137</ele>
        <time>2012-09-19T20:21:57Z</time>
      </trkpt>
      <trkpt lat="37.2693907" lon="-109.8698013">
        <ele>1488.7390137</ele>
        <time>2012-09-19T20:21:59Z</time>
      </trkpt>
      <trkpt lat="37.2695651" lon="-109.8698417">
        <ele>1488.7390137</ele>
        <time>2012-09-19T20:22:01Z</time>
      </trkpt>
      <trkpt lat="37.2697331" lon="-109.8698791">
        <ele>1488.2583008</ele>
        <time>2012-09-19T20:22:03Z</time>
      </trkpt>
      <trkpt lat="37.2699112" lon="-109.8699158">
        <ele>1489.2194824</ele>
        <time>2012-09-19T20:22:05Z</time>
      </trkpt>
      <trkpt lat="37.2700939" lon="-109.8699544">
        <ele>1490.6613770</ele>
        <time>2012-09-19T20:22:07Z</time>
      </trkpt>
      <trkpt lat="37.2702848" lon="-109.8699888">
        <ele>1492.1035156</ele>
        <time>2012-09-19T20:22:09Z</time>
      </trkpt>
      <trkpt lat="37.2704857" lon="-109.8700211">
        <ele>1491.6228027</ele>
        <time>2012-09-19T20:22:11Z</time>
      </trkpt>
      <trkpt lat="37.2706848" lon="-109.8700599">
        <ele>1493.0646973</ele>
        <time>2012-09-19T20:22:13Z</time>
      </trkpt>
      <trkpt lat="37.2708784" lon="-109.8701040">
        <ele>1493.0646973</ele>
        <time>2012-09-19T20:22:15Z</time>
      </trkpt>
      <trkpt lat="37.2710732" lon="-109.8701473">
        <ele>1494.5065918</ele>
        <time>2012-09-19T20:22:17Z</time>
      </trkpt>
      <trkpt lat="37.2712739" lon="-109.8701898">
        <ele>1494.5065918</ele>
        <time>2012-09-19T20:22:19Z</time>
      </trkpt>
      <trkpt lat="37.2714760" lon="-109.8702303">
        <ele>1495.4680176</ele>
        <time>2012-09-19T20:22:21Z</time>
      </trkpt>
      <trkpt lat="37.2716731" lon="-109.8702573">
        <ele>1494.9873047</ele>
        <time>2012-09-19T20:22:23Z</time>
      </trkpt>
      <trkpt lat="37.2718726" lon="-109.8702592">
        <ele>1495.4680176</ele>
        <time>2012-09-19T20:22:25Z</time>
      </trkpt>
      <trkpt lat="37.2720719" lon="-109.8702392">
        <ele>1495.9487305</ele>
        <time>2012-09-19T20:22:27Z</time>
      </trkpt>
      <trkpt lat="37.2722694" lon="-109.8701926">
        <ele>1495.4680176</ele>
        <time>2012-09-19T20:22:29Z</time>
      </trkpt>
      <trkpt lat="37.2724672" lon="-109.8701293">
        <ele>1496.4294434</ele>
        <time>2012-09-19T20:22:31Z</time>
      </trkpt>
      <trkpt lat="37.2726577" lon="-109.8700652">
        <ele>1496.9099121</ele>
        <time>2012-09-19T20:22:33Z</time>
      </trkpt>
      <trkpt lat="37.2728462" lon="-109.8699903">
        <ele>1495.9487305</ele>
        <time>2012-09-19T20:22:35Z</time>
      </trkpt>
      <trkpt lat="37.2730406" lon="-109.8698968">
        <ele>1495.9487305</ele>
        <time>2012-09-19T20:22:37Z</time>
      </trkpt>
      <trkpt lat="37.2732363" lon="-109.8698002">
        <ele>1496.4294434</ele>
        <time>2012-09-19T20:22:39Z</time>
      </trkpt>
      <trkpt lat="37.2734275" lon="-109.8697046">
        <ele>1496.4294434</ele>
        <time>2012-09-19T20:22:41Z</time>
      </trkpt>
      <trkpt lat="37.2736089" lon="-109.8696149">
        <ele>1496.9099121</ele>
        <time>2012-09-19T20:22:43Z</time>
      </trkpt>
      <trkpt lat="37.2737786" lon="-109.8695273">
        <ele>1496.4294434</ele>
        <time>2012-09-19T20:22:45Z</time>
      </trkpt>
      <trkpt lat="37.2739393" lon="-109.8694283">
        <ele>1497.3906250</ele>
        <time>2012-09-19T20:22:47Z</time>
      </trkpt>
      <trkpt lat="37.2740988" lon="-109.8693051">
        <ele>1497.3906250</ele>
        <time>2012-09-19T20:22:49Z</time>
      </trkpt>
      <trkpt lat="37.2742551" lon="-109.8691622">
        <ele>1497.8713379</ele>
        <time>2012-09-19T20:22:51Z</time>
      </trkpt>
      <trkpt lat="37.2744164" lon="-109.8690110">
        <ele>1497.8713379</ele>
        <time>2012-09-19T20:22:53Z</time>
      </trkpt>
      <trkpt lat="37.2745773" lon="-109.8688644">
        <ele>1497.3906250</ele>
        <time>2012-09-19T20:22:55Z</time>
      </trkpt>
      <trkpt lat="37.2747355" lon="-109.8687255">
        <ele>1497.3906250</ele>
        <time>2012-09-19T20:22:57Z</time>
      </trkpt>
      <trkpt lat="37.2748914" lon="-109.8685801">
        <ele>1497.3906250</ele>
        <time>2012-09-19T20:22:59Z</time>
      </trkpt>
      <trkpt lat="37.2750508" lon="-109.8684276">
        <ele>1497.8713379</ele>
        <time>2012-09-19T20:23:01Z</time>
      </trkpt>
      <trkpt lat="37.2752117" lon="-109.8682769">
        <ele>1498.8325195</ele>
        <time>2012-09-19T20:23:03Z</time>
      </trkpt>
      <trkpt lat="37.2753756" lon="-109.8681375">
        <ele>1498.3518066</ele>
        <time>2012-09-19T20:23:05Z</time>
      </trkpt>
      <trkpt lat="37.2755307" lon="-109.8680102">
        <ele>1499.3132324</ele>
        <time>2012-09-19T20:23:07Z</time>
      </trkpt>
      <trkpt lat="37.2756765" lon="-109.8678801">
        <ele>1499.7939453</ele>
        <time>2012-09-19T20:23:09Z</time>
      </trkpt>
      <trkpt lat="37.2758244" lon="-109.8677513">
        <ele>1498.8325195</ele>
        <time>2012-09-19T20:23:11Z</time>
      </trkpt>
      <trkpt lat="37.2759749" lon="-109.8676097">
        <ele>1498.8325195</ele>
        <time>2012-09-19T20:23:13Z</time>
      </trkpt>
      <trkpt lat="37.2761230" lon="-109.8674656">
        <ele>1498.3518066</ele>
        <time>2012-09-19T20:23:15Z</time>
      </trkpt>
      <trkpt lat="37.2762619" lon="-109.8673296">
        <ele>1499.3132324</ele>
        <time>2012-09-19T20:23:17Z</time>
      </trkpt>
      <trkpt lat="37.2763895" lon="-109.8672046">
        <ele>1500.2749023</ele>
        <time>2012-09-19T20:23:19Z</time>
      </trkpt>
      <trkpt lat="37.2765169" lon="-109.8670596">
        <ele>1500.2749023</ele>
        <time>2012-09-19T20:23:21Z</time>
      </trkpt>
      <trkpt lat="37.2766390" lon="-109.8668990">
        <ele>1500.7553711</ele>
        <time>2012-09-19T20:23:23Z</time>
      </trkpt>
      <trkpt lat="37.2767444" lon="-109.8667342">
        <ele>1504.1201172</ele>
        <time>2012-09-19T20:23:25Z</time>
      </trkpt>
      <trkpt lat="37.2768527" lon="-109.8665110">
        <ele>1505.0812988</ele>
        <time>2012-09-19T20:23:28Z</time>
      </trkpt>
      <trkpt lat="37.2769427" lon="-109.8663390">
        <ele>1506.0424805</ele>
        <time>2012-09-19T20:23:31Z</time>
      </trkpt>
      <trkpt lat="37.2770428" lon="-109.8662023">
        <ele>1505.5620117</ele>
        <time>2012-09-19T20:23:35Z</time>
      </trkpt>
      <trkpt lat="37.2771505" lon="-109.8660763">
        <ele>1503.6394043</ele>
        <time>2012-09-19T20:23:39Z</time>
      </trkpt>
      <trkpt lat="37.2772666" lon="-109.8659302">
        <ele>1501.2360840</ele>
        <time>2012-09-19T20:23:43Z</time>
      </trkpt>
      <trkpt lat="37.2773727" lon="-109.8657950">
        <ele>1499.7939453</ele>
        <time>2012-09-19T20:23:46Z</time>
      </trkpt>
      <trkpt lat="37.2774960" lon="-109.8656465">
        <ele>1497.8713379</ele>
        <time>2012-09-19T20:23:49Z</time>
      </trkpt>
      <trkpt lat="37.2776348" lon="-109.8654650">
        <ele>1495.4680176</ele>
        <time>2012-09-19T20:23:52Z</time>
      </trkpt>
      <trkpt lat="37.2777880" lon="-109.8652724">
        <ele>1495.4680176</ele>
        <time>2012-09-19T20:23:55Z</time>
      </trkpt>
      <trkpt lat="37.2778941" lon="-109.8651358">
        <ele>1495.9487305</ele>
        <time>2012-09-19T20:23:57Z</time>
      </trkpt>
      <trkpt lat="37.2780084" lon="-109.8649985">
        <ele>1495.4680176</ele>
        <time>2012-09-19T20:23:59Z</time>
      </trkpt>
      <trkpt lat="37.2781202" lon="-109.8648575">
        <ele>1494.9873047</ele>
        <time>2012-09-19T20:24:01Z</time>
      </trkpt>
      <trkpt lat="37.2782262" lon="-109.8647193">
        <ele>1494.5065918</ele>
        <time>2012-09-19T20:24:03Z</time>
      </trkpt>
      <trkpt lat="37.2783638" lon="-109.8645443">
        <ele>1493.5454102</ele>
        <time>2012-09-19T20:24:06Z</time>
      </trkpt>
      <trkpt lat="37.2784900" lon="-109.8643899">
        <ele>1491.6228027</ele>
        <time>2012-09-19T20:24:09Z</time>
      </trkpt>
      <trkpt lat="37.2786432" lon="-109.8642311">
        <ele>1492.5842285</ele>
        <time>2012-09-19T20:24:12Z</time>
      </trkpt>
      <trkpt lat="37.2787511" lon="-109.8641039">
        <ele>1492.1035156</ele>
        <time>2012-09-19T20:24:14Z</time>
      </trkpt>
      <trkpt lat="37.2788613" lon="-109.8639692">
        <ele>1493.5454102</ele>
        <time>2012-09-19T20:24:16Z</time>
      </trkpt>
      <trkpt lat="37.2789771" lon="-109.8638245">
        <ele>1491.6228027</ele>
        <time>2012-09-19T20:24:18Z</time>
      </trkpt>
      <trkpt lat="37.2790980" lon="-109.8636692">
        <ele>1491.1420898</ele>
        <time>2012-09-19T20:24:20Z</time>
      </trkpt>
      <trkpt lat="37.2792151" lon="-109.8635138">
        <ele>1491.1420898</ele>
        <time>2012-09-19T20:24:22Z</time>
      </trkpt>
      <trkpt lat="37.2793241" lon="-109.8633718">
        <ele>1491.6228027</ele>
        <time>2012-09-19T20:24:24Z</time>
      </trkpt>
      <trkpt lat="37.2794261" lon="-109.8632377">
        <ele>1491.6228027</ele>
        <time>2012-09-19T20:24:26Z</time>
      </trkpt>
      <trkpt lat="37.2795478" lon="-109.8630615">
        <ele>1490.6613770</ele>
        <time>2012-09-19T20:24:29Z</time>
      </trkpt>
      <trkpt lat="37.2796297" lon="-109.8628951">
        <ele>1488.7390137</ele>
        <time>2012-09-19T20:24:32Z</time>
      </trkpt>
      <trkpt lat="37.2796752" lon="-109.8627124">
        <ele>1487.7775879</ele>
        <time>2012-09-19T20:24:35Z</time>
      </trkpt>
      <trkpt lat="37.2796816" lon="-109.8625171">
        <ele>1490.6613770</ele>
        <time>2012-09-19T20:24:38Z</time>
      </trkpt>
      <trkpt lat="37.2796922" lon="-109.8622628">
        <ele>1490.1809082</ele>
        <time>2012-09-19T20:24:41Z</time>
      </trkpt>
      <trkpt lat="37.2797015" lon="-109.8620779">
        <ele>1488.2583008</ele>
        <time>2012-09-19T20:24:43Z</time>
      </trkpt>
      <trkpt lat="37.2797369" lon="-109.8618192">
        <ele>1491.6228027</ele>
        <time>2012-09-19T20:24:46Z</time>
      </trkpt>
      <trkpt lat="37.2798395" lon="-109.8616117">
        <ele>1494.0261230</ele>
        <time>2012-09-19T20:24:49Z</time>
      </trkpt>
      <trkpt lat="37.2799936" lon="-109.8614388">
        <ele>1494.0261230</ele>
        <time>2012-09-19T20:24:52Z</time>
      </trkpt>
      <trkpt lat="37.2801547" lon="-109.8612828">
        <ele>1495.4680176</ele>
        <time>2012-09-19T20:24:55Z</time>
      </trkpt>
      <trkpt lat="37.2803030" lon="-109.8611174">
        <ele>1497.3906250</ele>
        <time>2012-09-19T20:24:58Z</time>
      </trkpt>
      <trkpt lat="37.2804651" lon="-109.8609870">
        <ele>1500.7553711</ele>
        <time>2012-09-19T20:25:01Z</time>
      </trkpt>
      <trkpt lat="37.2805885" lon="-109.8608714">
        <ele>1503.1586914</ele>
        <time>2012-09-19T20:25:04Z</time>
      </trkpt>
      <trkpt lat="37.2807074" lon="-109.8606928">
        <ele>1505.0812988</ele>
        <time>2012-09-19T20:25:08Z</time>
      </trkpt>
      <trkpt lat="37.2808053" lon="-109.8604983">
        <ele>1504.6005859</ele>
        <time>2012-09-19T20:25:11Z</time>
      </trkpt>
      <trkpt lat="37.2809377" lon="-109.8602971">
        <ele>1504.1201172</ele>
        <time>2012-09-19T20:25:14Z</time>
      </trkpt>
      <trkpt lat="37.2810374" lon="-109.8601521">
        <ele>1503.1586914</ele>
        <time>2012-09-19T20:25:16Z</time>
      </trkpt>
      <trkpt lat="37.2811427" lon="-109.8599986">
        <ele>1502.6779785</ele>
        <time>2012-09-19T20:25:18Z</time>
      </trkpt>
      <trkpt lat="37.2813541" lon="-109.8597107">
        <ele>1503.1586914</ele>
        <time>2012-09-19T20:25:22Z</time>
      </trkpt>
      <trkpt lat="37.2815019" lon="-109.8595006">
        <ele>1505.0812988</ele>
        <time>2012-09-19T20:25:25Z</time>
      </trkpt>
      <trkpt lat="37.2816095" lon="-109.8593086">
        <ele>1508.4458008</ele>
        <time>2012-09-19T20:25:28Z</time>
      </trkpt>
      <trkpt lat="37.2816478" lon="-109.8591142">
        <ele>1508.9265137</ele>
        <time>2012-09-19T20:25:31Z</time>
      </trkpt>
      <trkpt lat="37.2816085" lon="-109.8589029">
        <ele>1509.4072266</ele>
        <time>2012-09-19T20:25:34Z</time>
      </trkpt>
      <trkpt lat="37.2815651" lon="-109.8586812">
        <ele>1508.9265137</ele>
        <time>2012-09-19T20:25:37Z</time>
      </trkpt>
      <trkpt lat="37.2815282" lon="-109.8584347">
        <ele>1507.9653320</ele>
        <time>2012-09-19T20:25:40Z</time>
      </trkpt>
      <trkpt lat="37.2815380" lon="-109.8581829">
        <ele>1507.0039063</ele>
        <time>2012-09-19T20:25:43Z</time>
      </trkpt>
      <trkpt lat="37.2816126" lon="-109.8579395">
        <ele>1506.5231934</ele>
        <time>2012-09-19T20:25:46Z</time>
      </trkpt>
      <trkpt lat="37.2816852" lon="-109.8577770">
        <ele>1505.5620117</ele>
        <time>2012-09-19T20:25:48Z</time>
      </trkpt>
      <trkpt lat="37.2817663" lon="-109.8576172">
        <ele>1505.5620117</ele>
        <time>2012-09-19T20:25:50Z</time>
      </trkpt>
      <trkpt lat="37.2818800" lon="-109.8574111">
        <ele>1505.5620117</ele>
        <time>2012-09-19T20:25:53Z</time>
      </trkpt>
      <trkpt lat="37.2819662" lon="-109.8572086">
        <ele>1502.6779785</ele>
        <time>2012-09-19T20:25:56Z</time>
      </trkpt>
      <trkpt lat="37.2820198" lon="-109.8569605">
        <ele>1503.1586914</ele>
        <time>2012-09-19T20:25:59Z</time>
      </trkpt>
      <trkpt lat="37.2820595" lon="-109.8567802">
        <ele>1502.6779785</ele>
        <time>2012-09-19T20:26:01Z</time>
      </trkpt>
      <trkpt lat="37.2821110" lon="-109.8566077">
        <ele>1502.1972656</ele>
        <time>2012-09-19T20:26:03Z</time>
      </trkpt>
      <trkpt lat="37.2821902" lon="-109.8563613">
        <ele>1502.6779785</ele>
        <time>2012-09-19T20:26:06Z</time>
      </trkpt>
      <trkpt lat="37.2823100" lon="-109.8561947">
        <ele>1501.7167969</ele>
        <time>2012-09-19T20:26:09Z</time>
      </trkpt>
      <trkpt lat="37.2824482" lon="-109.8560883">
        <ele>1498.8325195</ele>
        <time>2012-09-19T20:26:12Z</time>
      </trkpt>
      <trkpt lat="37.2826205" lon="-109.8559486">
        <ele>1495.4680176</ele>
        <time>2012-09-19T20:26:15Z</time>
      </trkpt>
      <trkpt lat="37.2827958" lon="-109.8557904">
        <ele>1494.9873047</ele>
        <time>2012-09-19T20:26:18Z</time>
      </trkpt>
      <trkpt lat="37.2829133" lon="-109.8556772">
        <ele>1494.9873047</ele>
        <time>2012-09-19T20:26:20Z</time>
      </trkpt>
      <trkpt lat="37.2830330" lon="-109.8555480">
        <ele>1494.9873047</ele>
        <time>2012-09-19T20:26:22Z</time>
      </trkpt>
      <trkpt lat="37.2831464" lon="-109.8554091">
        <ele>1494.9873047</ele>
        <time>2012-09-19T20:26:24Z</time>
      </trkpt>
      <trkpt lat="37.2832574" lon="-109.8552687">
        <ele>1495.4680176</ele>
        <time>2012-09-19T20:26:26Z</time>
      </trkpt>
      <trkpt lat="37.2833691" lon="-109.8551312">
        <ele>1495.9487305</ele>
        <time>2012-09-19T20:26:28Z</time>
      </trkpt>
      <trkpt lat="37.2834786" lon="-109.8550002">
        <ele>1495.9487305</ele>
        <time>2012-09-19T20:26:30Z</time>
      </trkpt>
      <trkpt lat="37.2836329" lon="-109.8548361">
        <ele>1496.4294434</ele>
        <time>2012-09-19T20:26:33Z</time>
      </trkpt>
      <trkpt lat="37.2837972" lon="-109.8546963">
        <ele>1495.9487305</ele>
        <time>2012-09-19T20:26:36Z</time>
      </trkpt>
      <trkpt lat="37.2839353" lon="-109.8545916">
        <ele>1497.3906250</ele>
        <time>2012-09-19T20:26:39Z</time>
      </trkpt>
      <trkpt lat="37.2840794" lon="-109.8544591">
        <ele>1496.9099121</ele>
        <time>2012-09-19T20:26:43Z</time>
      </trkpt>
      <trkpt lat="37.2842352" lon="-109.8543684">
        <ele>1497.8713379</ele>
        <time>2012-09-19T20:26:46Z</time>
      </trkpt>
      <trkpt lat="37.2844027" lon="-109.8542535">
        <ele>1500.2749023</ele>
        <time>2012-09-19T20:26:49Z</time>
      </trkpt>
      <trkpt lat="37.2845739" lon="-109.8541270">
        <ele>1501.7167969</ele>
        <time>2012-09-19T20:26:52Z</time>
      </trkpt>
      <trkpt lat="37.2847678" lon="-109.8540995">
        <ele>1503.6394043</ele>
        <time>2012-09-19T20:26:55Z</time>
      </trkpt>
      <trkpt lat="37.2849526" lon="-109.8542156">
        <ele>1506.5231934</ele>
        <time>2012-09-19T20:26:58Z</time>
      </trkpt>
      <trkpt lat="37.2851221" lon="-109.8543682">
        <ele>1507.4846191</ele>
        <time>2012-09-19T20:27:01Z</time>
      </trkpt>
      <trkpt lat="37.2852877" lon="-109.8545049">
        <ele>1507.4846191</ele>
        <time>2012-09-19T20:27:04Z</time>
      </trkpt>
      <trkpt lat="37.2854604" lon="-109.8545567">
        <ele>1508.4458008</ele>
        <time>2012-09-19T20:27:07Z</time>
      </trkpt>
      <trkpt lat="37.2856000" lon="-109.8544896">
        <ele>1507.9653320</ele>
        <time>2012-09-19T20:27:10Z</time>
      </trkpt>
      <trkpt lat="37.2856845" lon="-109.8543274">
        <ele>1507.9653320</ele>
        <time>2012-09-19T20:27:13Z</time>
      </trkpt>
      <trkpt lat="37.2857746" lon="-109.8541094">
        <ele>1507.9653320</ele>
        <time>2012-09-19T20:27:16Z</time>
      </trkpt>
      <trkpt lat="37.2858673" lon="-109.8538700">
        <ele>1508.4458008</ele>
        <time>2012-09-19T20:27:19Z</time>
      </trkpt>
      <trkpt lat="37.2859248" lon="-109.8536680">
        <ele>1509.4072266</ele>
        <time>2012-09-19T20:27:22Z</time>
      </trkpt>
      <trkpt lat="37.2859697" lon="-109.8534909">
        <ele>1509.4072266</ele>
        <time>2012-09-19T20:27:25Z</time>
      </trkpt>
      <trkpt lat="37.2860727" lon="-109.8533163">
        <ele>1509.4072266</ele>
        <time>2012-09-19T20:27:28Z</time>
      </trkpt>
      <trkpt lat="37.2861954" lon="-109.8531023">
        <ele>1508.9265137</ele>
        <time>2012-09-19T20:27:31Z</time>
      </trkpt>
      <trkpt lat="37.2863111" lon="-109.8529010">
        <ele>1509.8876953</ele>
        <time>2012-09-19T20:27:34Z</time>
      </trkpt>
      <trkpt lat="37.2864242" lon="-109.8527480">
        <ele>1509.8876953</ele>
        <time>2012-09-19T20:27:37Z</time>
      </trkpt>
      <trkpt lat="37.2865445" lon="-109.8525672">
        <ele>1507.4846191</ele>
        <time>2012-09-19T20:27:40Z</time>
      </trkpt>
      <trkpt lat="37.2866395" lon="-109.8524207">
        <ele>1509.4072266</ele>
        <time>2012-09-19T20:27:42Z</time>
      </trkpt>
      <trkpt lat="37.2867383" lon="-109.8522741">
        <ele>1507.4846191</ele>
        <time>2012-09-19T20:27:44Z</time>
      </trkpt>
      <trkpt lat="37.2868449" lon="-109.8521159">
        <ele>1505.5620117</ele>
        <time>2012-09-19T20:27:46Z</time>
      </trkpt>
      <trkpt lat="37.2869543" lon="-109.8519561">
        <ele>1505.0812988</ele>
        <time>2012-09-19T20:27:48Z</time>
      </trkpt>
      <trkpt lat="37.2870651" lon="-109.8518025">
        <ele>1505.5620117</ele>
        <time>2012-09-19T20:27:50Z</time>
      </trkpt>
      <trkpt lat="37.2871746" lon="-109.8516588">
        <ele>1505.0812988</ele>
        <time>2012-09-19T20:27:52Z</time>
      </trkpt>
      <trkpt lat="37.2872719" lon="-109.8515041">
        <ele>1505.0812988</ele>
        <time>2012-09-19T20:27:54Z</time>
      </trkpt>
      <trkpt lat="37.2873615" lon="-109.8513547">
        <ele>1504.6005859</ele>
        <time>2012-09-19T20:27:56Z</time>
      </trkpt>
      <trkpt lat="37.2875120" lon="-109.8512323">
        <ele>1506.0424805</ele>
        <time>2012-09-19T20:27:59Z</time>
      </trkpt>
      <trkpt lat="37.2876976" lon="-109.8512337">
        <ele>1505.5620117</ele>
        <time>2012-09-19T20:28:02Z</time>
      </trkpt>
      <trkpt lat="37.2878541" lon="-109.8512645">
        <ele>1505.5620117</ele>
        <time>2012-09-19T20:28:04Z</time>
      </trkpt>
      <trkpt lat="37.2880239" lon="-109.8513176">
        <ele>1505.0812988</ele>
        <time>2012-09-19T20:28:06Z</time>
      </trkpt>
      <trkpt lat="37.2881887" lon="-109.8513686">
        <ele>1504.6005859</ele>
        <time>2012-09-19T20:28:08Z</time>
      </trkpt>
      <trkpt lat="37.2883368" lon="-109.8514142">
        <ele>1506.0424805</ele>
        <time>2012-09-19T20:28:10Z</time>
      </trkpt>
      <trkpt lat="37.2885472" lon="-109.8514722">
        <ele>1506.5231934</ele>
        <time>2012-09-19T20:28:13Z</time>
      </trkpt>
      <trkpt lat="37.2887513" lon="-109.8515258">
        <ele>1507.0039063</ele>
        <time>2012-09-19T20:28:16Z</time>
      </trkpt>
      <trkpt lat="37.2889279" lon="-109.8515777">
        <ele>1507.0039063</ele>
        <time>2012-09-19T20:28:19Z</time>
      </trkpt>
      <trkpt lat="37.2891275" lon="-109.8516344">
        <ele>1506.5231934</ele>
        <time>2012-09-19T20:28:22Z</time>
      </trkpt>
      <trkpt lat="37.2893170" lon="-109.8516688">
        <ele>1507.4846191</ele>
        <time>2012-09-19T20:28:25Z</time>
      </trkpt>
      <trkpt lat="37.2894594" lon="-109.8517069">
        <ele>1507.9653320</ele>
        <time>2012-09-19T20:28:30Z</time>
      </trkpt>
      <trkpt lat="37.2895920" lon="-109.8517881">
        <ele>1507.4846191</ele>
        <time>2012-09-19T20:30:27Z</time>
      </trkpt>
      <trkpt lat="37.2897569" lon="-109.8518270">
        <ele>1506.5231934</ele>
        <time>2012-09-19T20:30:31Z</time>
      </trkpt>
      <trkpt lat="37.2899080" lon="-109.8518809">
        <ele>1507.4846191</ele>
        <time>2012-09-19T20:30:38Z</time>
      </trkpt>
      <trkpt lat="37.2900499" lon="-109.8519467">
        <ele>1506.0424805</ele>
        <time>2012-09-19T20:30:41Z</time>
      </trkpt>
      <trkpt lat="37.2902436" lon="-109.8520262">
        <ele>1506.5231934</ele>
        <time>2012-09-19T20:30:44Z</time>
      </trkpt>
      <trkpt lat="37.2903876" lon="-109.8520788">
        <ele>1507.0039063</ele>
        <time>2012-09-19T20:30:46Z</time>
      </trkpt>
      <trkpt lat="37.2905280" lon="-109.8521378">
        <ele>1508.4458008</ele>
        <time>2012-09-19T20:30:48Z</time>
      </trkpt>
      <trkpt lat="37.2907187" lon="-109.8522518">
        <ele>1510.8491211</ele>
        <time>2012-09-19T20:30:51Z</time>
      </trkpt>
      <trkpt lat="37.2908917" lon="-109.8523918">
        <ele>1510.3684082</ele>
        <time>2012-09-19T20:30:54Z</time>
      </trkpt>
      <trkpt lat="37.2910343" lon="-109.8525070">
        <ele>1510.3684082</ele>
        <time>2012-09-19T20:30:57Z</time>
      </trkpt>
      <trkpt lat="37.2911979" lon="-109.8526302">
        <ele>1509.8876953</ele>
        <time>2012-09-19T20:31:00Z</time>
      </trkpt>
      <trkpt lat="37.2913269" lon="-109.8527195">
        <ele>1508.9265137</ele>
        <time>2012-09-19T20:31:02Z</time>
      </trkpt>
      <trkpt lat="37.2914626" lon="-109.8528072">
        <ele>1508.9265137</ele>
        <time>2012-09-19T20:31:04Z</time>
      </trkpt>
      <trkpt lat="37.2916014" lon="-109.8528755">
        <ele>1508.9265137</ele>
        <time>2012-09-19T20:31:06Z</time>
      </trkpt>
      <trkpt lat="37.2917500" lon="-109.8528843">
        <ele>1508.4458008</ele>
        <time>2012-09-19T20:31:08Z</time>
      </trkpt>
      <trkpt lat="37.2919039" lon="-109.8528465">
        <ele>1508.4458008</ele>
        <time>2012-09-19T20:31:10Z</time>
      </trkpt>
      <trkpt lat="37.2920562" lon="-109.8527898">
        <ele>1508.4458008</ele>
        <time>2012-09-19T20:31:12Z</time>
      </trkpt>
      <trkpt lat="37.2922639" lon="-109.8527131">
        <ele>1508.4458008</ele>
        <time>2012-09-19T20:31:15Z</time>
      </trkpt>
      <trkpt lat="37.2924675" lon="-109.8526148">
        <ele>1505.0812988</ele>
        <time>2012-09-19T20:31:18Z</time>
      </trkpt>
      <trkpt lat="37.2926198" lon="-109.8525413">
        <ele>1505.5620117</ele>
        <time>2012-09-19T20:31:20Z</time>
      </trkpt>
      <trkpt lat="37.2927833" lon="-109.8524646">
        <ele>1506.5231934</ele>
        <time>2012-09-19T20:31:22Z</time>
      </trkpt>
      <trkpt lat="37.2929435" lon="-109.8523930">
        <ele>1507.0039063</ele>
        <time>2012-09-19T20:31:24Z</time>
      </trkpt>
      <trkpt lat="37.2930917" lon="-109.8523225">
        <ele>1506.5231934</ele>
        <time>2012-09-19T20:31:26Z</time>
      </trkpt>
      <trkpt lat="37.2932254" lon="-109.8522326">
        <ele>1506.0424805</ele>
        <time>2012-09-19T20:31:28Z</time>
      </trkpt>
      <trkpt lat="37.2933493" lon="-109.8521120">
        <ele>1503.1586914</ele>
        <time>2012-09-19T20:31:30Z</time>
      </trkpt>
      <trkpt lat="37.2934719" lon="-109.8519647">
        <ele>1500.7553711</ele>
        <time>2012-09-19T20:31:32Z</time>
      </trkpt>
      <trkpt lat="37.2935878" lon="-109.8518110">
        <ele>1500.7553711</ele>
        <time>2012-09-19T20:31:34Z</time>
      </trkpt>
      <trkpt lat="37.2936939" lon="-109.8516850">
        <ele>1504.1201172</ele>
        <time>2012-09-19T20:31:36Z</time>
      </trkpt>
      <trkpt lat="37.2938105" lon="-109.8515748">
        <ele>1506.0424805</ele>
        <time>2012-09-19T20:31:38Z</time>
      </trkpt>
      <trkpt lat="37.2939504" lon="-109.8514872">
        <ele>1505.5620117</ele>
        <time>2012-09-19T20:31:40Z</time>
      </trkpt>
      <trkpt lat="37.2941254" lon="-109.8514298">
        <ele>1505.5620117</ele>
        <time>2012-09-19T20:31:42Z</time>
      </trkpt>
      <trkpt lat="37.2943212" lon="-109.8514146">
        <ele>1506.0424805</ele>
        <time>2012-09-19T20:31:44Z</time>
      </trkpt>
      <trkpt lat="37.2945166" lon="-109.8514036">
        <ele>1506.5231934</ele>
        <time>2012-09-19T20:31:46Z</time>
      </trkpt>
      <trkpt lat="37.2947058" lon="-109.8513955">
        <ele>1506.5231934</ele>
        <time>2012-09-19T20:31:48Z</time>
      </trkpt>
      <trkpt lat="37.2948763" lon="-109.8513717">
        <ele>1508.9265137</ele>
        <time>2012-09-19T20:31:50Z</time>
      </trkpt>
      <trkpt lat="37.2950261" lon="-109.8513415">
        <ele>1509.8876953</ele>
        <time>2012-09-19T20:31:52Z</time>
      </trkpt>
      <trkpt lat="37.2951726" lon="-109.8513267">
        <ele>1510.3684082</ele>
        <time>2012-09-19T20:31:54Z</time>
      </trkpt>
      <trkpt lat="37.2953291" lon="-109.8513339">
        <ele>1511.8105469</ele>
        <time>2012-09-19T20:31:56Z</time>
      </trkpt>
      <trkpt lat="37.2954977" lon="-109.8513519">
        <ele>1511.8105469</ele>
        <time>2012-09-19T20:31:58Z</time>
      </trkpt>
      <trkpt lat="37.2956704" lon="-109.8513772">
        <ele>1511.3298340</ele>
        <time>2012-09-19T20:32:00Z</time>
      </trkpt>
      <trkpt lat="37.2958469" lon="-109.8513972">
        <ele>1512.2910156</ele>
        <time>2012-09-19T20:32:02Z</time>
      </trkpt>
      <trkpt lat="37.2960193" lon="-109.8514234">
        <ele>1513.2524414</ele>
        <time>2012-09-19T20:32:04Z</time>
      </trkpt>
      <trkpt lat="37.2961759" lon="-109.8514616">
        <ele>1513.2524414</ele>
        <time>2012-09-19T20:32:06Z</time>
      </trkpt>
      <trkpt lat="37.2963518" lon="-109.8515515">
        <ele>1514.6943359</ele>
        <time>2012-09-19T20:32:09Z</time>
      </trkpt>
      <trkpt lat="37.2965278" lon="-109.8516115">
        <ele>1515.6557617</ele>
        <time>2012-09-19T20:32:12Z</time>
      </trkpt>
      <trkpt lat="37.2967008" lon="-109.8516409">
        <ele>1519.0205078</ele>
        <time>2012-09-19T20:32:15Z</time>
      </trkpt>
      <trkpt lat="37.2968684" lon="-109.8516471">
        <ele>1519.5012207</ele>
        <time>2012-09-19T20:32:18Z</time>
      </trkpt>
      <trkpt lat="37.2970424" lon="-109.8516328">
        <ele>1519.0205078</ele>
        <time>2012-09-19T20:32:21Z</time>
      </trkpt>
      <trkpt lat="37.2972217" lon="-109.8515665">
        <ele>1520.4624023</ele>
        <time>2012-09-19T20:32:24Z</time>
      </trkpt>
      <trkpt lat="37.2973843" lon="-109.8515302">
        <ele>1521.9042969</ele>
        <time>2012-09-19T20:32:27Z</time>
      </trkpt>
      <trkpt lat="37.2975694" lon="-109.8514855">
        <ele>1521.4235840</ele>
        <time>2012-09-19T20:32:30Z</time>
      </trkpt>
      <trkpt lat="37.2977402" lon="-109.8514212">
        <ele>1522.3850098</ele>
        <time>2012-09-19T20:32:33Z</time>
      </trkpt>
      <trkpt lat="37.2978938" lon="-109.8514385">
        <ele>1522.8657227</ele>
        <time>2012-09-19T20:32:36Z</time>
      </trkpt>
      <trkpt lat="37.2980621" lon="-109.8514417">
        <ele>1522.3850098</ele>
        <time>2012-09-19T20:32:39Z</time>
      </trkpt>
      <trkpt lat="37.2982224" lon="-109.8513479">
        <ele>1522.8657227</ele>
        <time>2012-09-19T20:32:42Z</time>
      </trkpt>
      <trkpt lat="37.2983578" lon="-109.8511696">
        <ele>1521.9042969</ele>
        <time>2012-09-19T20:32:45Z</time>
      </trkpt>
      <trkpt lat="37.2985240" lon="-109.8510159">
        <ele>1522.3850098</ele>
        <time>2012-09-19T20:32:48Z</time>
      </trkpt>
      <trkpt lat="37.2986562" lon="-109.8509312">
        <ele>1521.9042969</ele>
        <time>2012-09-19T20:32:50Z</time>
      </trkpt>
      <trkpt lat="37.2987887" lon="-109.8508395">
        <ele>1521.9042969</ele>
        <time>2012-09-19T20:32:52Z</time>
      </trkpt>
      <trkpt lat="37.2989121" lon="-109.8507439">
        <ele>1522.3850098</ele>
        <time>2012-09-19T20:32:54Z</time>
      </trkpt>
      <trkpt lat="37.2990753" lon="-109.8506122">
        <ele>1521.9042969</ele>
        <time>2012-09-19T20:32:57Z</time>
      </trkpt>
      <trkpt lat="37.2992451" lon="-109.8505568">
        <ele>1521.9042969</ele>
        <time>2012-09-19T20:33:00Z</time>
      </trkpt>
      <trkpt lat="37.2994291" lon="-109.8506316">
        <ele>1522.8657227</ele>
        <time>2012-09-19T20:33:03Z</time>
      </trkpt>
      <trkpt lat="37.2995594" lon="-109.8507257">
        <ele>1522.3850098</ele>
        <time>2012-09-19T20:33:05Z</time>
      </trkpt>
      <trkpt lat="37.2996989" lon="-109.8508380">
        <ele>1522.3850098</ele>
        <time>2012-09-19T20:33:07Z</time>
      </trkpt>
      <trkpt lat="37.2998466" lon="-109.8509591">
        <ele>1522.3850098</ele>
        <time>2012-09-19T20:33:09Z</time>
      </trkpt>
      <trkpt lat="37.2999858" lon="-109.8510630">
        <ele>1522.3850098</ele>
        <time>2012-09-19T20:33:11Z</time>
      </trkpt>
      <trkpt lat="37.3001266" lon="-109.8511597">
        <ele>1522.8657227</ele>
        <time>2012-09-19T20:33:13Z</time>
      </trkpt>
      <trkpt lat="37.3002732" lon="-109.8512505">
        <ele>1524.7883301</ele>
        <time>2012-09-19T20:33:15Z</time>
      </trkpt>
      <trkpt lat="37.3004162" lon="-109.8513431">
        <ele>1525.2687988</ele>
        <time>2012-09-19T20:33:17Z</time>
      </trkpt>
      <trkpt lat="37.3006007" lon="-109.8514774">
        <ele>1522.8657227</ele>
        <time>2012-09-19T20:33:20Z</time>
      </trkpt>
      <trkpt lat="37.3007422" lon="-109.8515747">
        <ele>1522.8657227</ele>
        <time>2012-09-19T20:33:22Z</time>
      </trkpt>
      <trkpt lat="37.3008940" lon="-109.8516694">
        <ele>1524.7883301</ele>
        <time>2012-09-19T20:33:24Z</time>
      </trkpt>
      <trkpt lat="37.3010466" lon="-109.8517562">
        <ele>1525.2687988</ele>
        <time>2012-09-19T20:33:26Z</time>
      </trkpt>
      <trkpt lat="37.3011987" lon="-109.8518296">
        <ele>1523.3464355</ele>
        <time>2012-09-19T20:33:28Z</time>
      </trkpt>
      <trkpt lat="37.3013504" lon="-109.8518938">
        <ele>1521.9042969</ele>
        <time>2012-09-19T20:33:30Z</time>
      </trkpt>
      <trkpt lat="37.3015021" lon="-109.8519529">
        <ele>1521.4235840</ele>
        <time>2012-09-19T20:33:32Z</time>
      </trkpt>
      <trkpt lat="37.3016490" lon="-109.8520079">
        <ele>1521.4235840</ele>
        <time>2012-09-19T20:33:34Z</time>
      </trkpt>
      <trkpt lat="37.3017989" lon="-109.8520519">
        <ele>1521.4235840</ele>
        <time>2012-09-19T20:33:36Z</time>
      </trkpt>
      <trkpt lat="37.3019586" lon="-109.8520564">
        <ele>1520.4624023</ele>
        <time>2012-09-19T20:33:38Z</time>
      </trkpt>
      <trkpt lat="37.3021087" lon="-109.8520119">
        <ele>1520.4624023</ele>
        <time>2012-09-19T20:33:40Z</time>
      </trkpt>
      <trkpt lat="37.3022834" lon="-109.8518902">
        <ele>1519.9816895</ele>
        <time>2012-09-19T20:33:43Z</time>
      </trkpt>
      <trkpt lat="37.3024262" lon="-109.8517042">
        <ele>1519.0205078</ele>
        <time>2012-09-19T20:33:46Z</time>
      </trkpt>
      <trkpt lat="37.3025445" lon="-109.8515624">
        <ele>1519.9816895</ele>
        <time>2012-09-19T20:33:49Z</time>
      </trkpt>
      <trkpt lat="37.3026739" lon="-109.8514298">
        <ele>1520.4624023</ele>
        <time>2012-09-19T20:33:52Z</time>
      </trkpt>
      <trkpt lat="37.3028333" lon="-109.8513461">
        <ele>1519.9816895</ele>
        <time>2012-09-19T20:33:55Z</time>
      </trkpt>
      <trkpt lat="37.3030018" lon="-109.8513765">
        <ele>1521.4235840</ele>
        <time>2012-09-19T20:33:58Z</time>
      </trkpt>
      <trkpt lat="37.3031313" lon="-109.8515341">
        <ele>1521.9042969</ele>
        <time>2012-09-19T20:34:01Z</time>
      </trkpt>
      <trkpt lat="37.3032463" lon="-109.8517473">
        <ele>1523.3464355</ele>
        <time>2012-09-19T20:34:04Z</time>
      </trkpt>
      <trkpt lat="37.3033581" lon="-109.8519371">
        <ele>1527.1916504</ele>
        <time>2012-09-19T20:34:07Z</time>
      </trkpt>
      <trkpt lat="37.3034743" lon="-109.8520943">
        <ele>1527.6721191</ele>
        <time>2012-09-19T20:34:10Z</time>
      </trkpt>
      <trkpt lat="37.3036000" lon="-109.8522139">
        <ele>1527.1916504</ele>
        <time>2012-09-19T20:34:18Z</time>
      </trkpt>
      <trkpt lat="37.3037682" lon="-109.8522673">
        <ele>1525.2687988</ele>
        <time>2012-09-19T20:34:21Z</time>
      </trkpt>
      <trkpt lat="37.3039591" lon="-109.8523098">
        <ele>1526.2302246</ele>
        <time>2012-09-19T20:34:24Z</time>
      </trkpt>
      <trkpt lat="37.3041507" lon="-109.8523339">
        <ele>1525.7495117</ele>
        <time>2012-09-19T20:34:27Z</time>
      </trkpt>
      <trkpt lat="37.3043437" lon="-109.8523802">
        <ele>1524.3076172</ele>
        <time>2012-09-19T20:34:30Z</time>
      </trkpt>
      <trkpt lat="37.3045385" lon="-109.8524441">
        <ele>1524.3076172</ele>
        <time>2012-09-19T20:34:33Z</time>
      </trkpt>
      <trkpt lat="37.3047189" lon="-109.8525062">
        <ele>1524.3076172</ele>
        <time>2012-09-19T20:34:36Z</time>
      </trkpt>
      <trkpt lat="37.3048614" lon="-109.8525512">
        <ele>1523.3464355</ele>
        <time>2012-09-19T20:34:39Z</time>
      </trkpt>
      <trkpt lat="37.3050313" lon="-109.8526083">
        <ele>1524.3076172</ele>
        <time>2012-09-19T20:34:43Z</time>
      </trkpt>
      <trkpt lat="37.3051940" lon="-109.8526606">
        <ele>1525.2687988</ele>
        <time>2012-09-19T20:34:46Z</time>
      </trkpt>
      <trkpt lat="37.3053723" lon="-109.8527181">
        <ele>1526.7109375</ele>
        <time>2012-09-19T20:34:49Z</time>
      </trkpt>
      <trkpt lat="37.3055416" lon="-109.8527557">
        <ele>1528.6335449</ele>
        <time>2012-09-19T20:34:52Z</time>
      </trkpt>
      <trkpt lat="37.3057306" lon="-109.8527450">
        <ele>1530.5561523</ele>
        <time>2012-09-19T20:34:56Z</time>
      </trkpt>
      <trkpt lat="37.3058906" lon="-109.8527469">
        <ele>1531.5173340</ele>
        <time>2012-09-19T20:34:59Z</time>
      </trkpt>
      <trkpt lat="37.3060703" lon="-109.8527719">
        <ele>1531.0368652</ele>
        <time>2012-09-19T20:35:02Z</time>
      </trkpt>
      <trkpt lat="37.3062588" lon="-109.8528207">
        <ele>1531.0368652</ele>
        <time>2012-09-19T20:35:05Z</time>
      </trkpt>
      <trkpt lat="37.3064526" lon="-109.8528739">
        <ele>1532.4790039</ele>
        <time>2012-09-19T20:35:08Z</time>
      </trkpt>
      <trkpt lat="37.3066283" lon="-109.8529193">
        <ele>1532.9594727</ele>
        <time>2012-09-19T20:35:11Z</time>
      </trkpt>
      <trkpt lat="37.3067749" lon="-109.8529248">
        <ele>1534.4016113</ele>
        <time>2012-09-19T20:35:15Z</time>
      </trkpt>
      <trkpt lat="37.3069273" lon="-109.8529283">
        <ele>1535.3627930</ele>
        <time>2012-09-19T20:35:24Z</time>
      </trkpt>
      <trkpt lat="37.3070427" lon="-109.8529142">
        <ele>1534.4016113</ele>
        <time>2012-09-19T20:36:46Z</time>
      </trkpt>
      <trkpt lat="37.3071887" lon="-109.8529608">
        <ele>1534.4016113</ele>
        <time>2012-09-19T20:36:50Z</time>
      </trkpt>
      <trkpt lat="37.3073375" lon="-109.8530003">
        <ele>1537.7661133</ele>
        <time>2012-09-19T20:36:54Z</time>
      </trkpt>
      <trkpt lat="37.3074861" lon="-109.8531091">
        <ele>1538.2468262</ele>
        <time>2012-09-19T20:36:58Z</time>
      </trkpt>
      <trkpt lat="37.3076092" lon="-109.8532548">
        <ele>1537.7661133</ele>
        <time>2012-09-19T20:37:01Z</time>
      </trkpt>
      <trkpt lat="37.3077695" lon="-109.8533953">
        <ele>1539.2080078</ele>
        <time>2012-09-19T20:37:04Z</time>
      </trkpt>
      <trkpt lat="37.3079511" lon="-109.8534962">
        <ele>1540.6499023</ele>
        <time>2012-09-19T20:37:07Z</time>
      </trkpt>
      <trkpt lat="37.3081497" lon="-109.8535878">
        <ele>1540.1694336</ele>
        <time>2012-09-19T20:37:10Z</time>
      </trkpt>
      <trkpt lat="37.3083440" lon="-109.8536902">
        <ele>1541.1306152</ele>
        <time>2012-09-19T20:37:13Z</time>
      </trkpt>
      <trkpt lat="37.3084871" lon="-109.8538154">
        <ele>1542.5727539</ele>
        <time>2012-09-19T20:37:16Z</time>
      </trkpt>
      <trkpt lat="37.3086117" lon="-109.8539669">
        <ele>1541.6113281</ele>
        <time>2012-09-19T20:37:19Z</time>
      </trkpt>
      <trkpt lat="37.3087729" lon="-109.8540679">
        <ele>1541.6113281</ele>
        <time>2012-09-19T20:37:22Z</time>
      </trkpt>
      <trkpt lat="37.3089592" lon="-109.8541227">
        <ele>1542.5727539</ele>
        <time>2012-09-19T20:37:25Z</time>
      </trkpt>
      <trkpt lat="37.3091372" lon="-109.8541871">
        <ele>1542.5727539</ele>
        <time>2012-09-19T20:37:28Z</time>
      </trkpt>
      <trkpt lat="37.3093338" lon="-109.8542612">
        <ele>1540.6499023</ele>
        <time>2012-09-19T20:37:31Z</time>
      </trkpt>
      <trkpt lat="37.3094987" lon="-109.8543252">
        <ele>1543.5339355</ele>
        <time>2012-09-19T20:37:34Z</time>
      </trkpt>
      <trkpt lat="37.3096355" lon="-109.8544228">
        <ele>1544.0146484</ele>
        <time>2012-09-19T20:37:37Z</time>
      </trkpt>
      <trkpt lat="37.3097510" lon="-109.8545771">
        <ele>1543.5339355</ele>
        <time>2012-09-19T20:37:40Z</time>
      </trkpt>
      <trkpt lat="37.3098784" lon="-109.8547434">
        <ele>1544.4951172</ele>
        <time>2012-09-19T20:37:43Z</time>
      </trkpt>
      <trkpt lat="37.3100726" lon="-109.8548513">
        <ele>1544.0146484</ele>
        <time>2012-09-19T20:37:47Z</time>
      </trkpt>
      <trkpt lat="37.3102767" lon="-109.8548812">
        <ele>1545.9372559</ele>
        <time>2012-09-19T20:37:51Z</time>
      </trkpt>
      <trkpt lat="37.3103931" lon="-109.8550433">
        <ele>1545.9372559</ele>
        <time>2012-09-19T20:37:54Z</time>
      </trkpt>
      <trkpt lat="37.3104930" lon="-109.8552887">
        <ele>1546.4179688</ele>
        <time>2012-09-19T20:37:57Z</time>
      </trkpt>
      <trkpt lat="37.3105579" lon="-109.8555327">
        <ele>1546.8984375</ele>
        <time>2012-09-19T20:38:00Z</time>
      </trkpt>
      <trkpt lat="37.3106304" lon="-109.8557005">
        <ele>1546.4179688</ele>
        <time>2012-09-19T20:38:03Z</time>
      </trkpt>
      <trkpt lat="37.3108038" lon="-109.8557411">
        <ele>1547.8598633</ele>
        <time>2012-09-19T20:38:08Z</time>
      </trkpt>
      <trkpt lat="37.3109185" lon="-109.8558887">
        <ele>1548.3405762</ele>
        <time>2012-09-19T20:38:13Z</time>
      </trkpt>
      <trkpt lat="37.3109763" lon="-109.8561095">
        <ele>1549.7827148</ele>
        <time>2012-09-19T20:38:18Z</time>
      </trkpt>
      <trkpt lat="37.3110594" lon="-109.8562941">
        <ele>1550.2634277</ele>
        <time>2012-09-19T20:38:22Z</time>
      </trkpt>
      <trkpt lat="37.3111297" lon="-109.8564824">
        <ele>1550.2634277</ele>
        <time>2012-09-19T20:38:26Z</time>
      </trkpt>
      <trkpt lat="37.3112578" lon="-109.8566361">
        <ele>1550.2634277</ele>
        <time>2012-09-19T20:38:30Z</time>
      </trkpt>
      <trkpt lat="37.3114169" lon="-109.8566916">
        <ele>1549.7827148</ele>
        <time>2012-09-19T20:38:33Z</time>
      </trkpt>
      <trkpt lat="37.3115935" lon="-109.8567595">
        <ele>1548.8212891</ele>
        <time>2012-09-19T20:38:36Z</time>
      </trkpt>
      <trkpt lat="37.3117945" lon="-109.8568007">
        <ele>1547.8598633</ele>
        <time>2012-09-19T20:38:39Z</time>
      </trkpt>
      <trkpt lat="37.3119942" lon="-109.8568777">
        <ele>1547.8598633</ele>
        <time>2012-09-19T20:38:42Z</time>
      </trkpt>
      <trkpt lat="37.3122063" lon="-109.8569325">
        <ele>1547.3791504</ele>
        <time>2012-09-19T20:38:45Z</time>
      </trkpt>
      <trkpt lat="37.3123690" lon="-109.8569460">
        <ele>1545.4565430</ele>
        <time>2012-09-19T20:38:47Z</time>
      </trkpt>
      <trkpt lat="37.3125403" lon="-109.8569482">
        <ele>1547.3791504</ele>
        <time>2012-09-19T20:38:49Z</time>
      </trkpt>
      <trkpt lat="37.3127109" lon="-109.8569691">
        <ele>1547.3791504</ele>
        <time>2012-09-19T20:38:51Z</time>
      </trkpt>
      <trkpt lat="37.3128812" lon="-109.8570026">
        <ele>1548.3405762</ele>
        <time>2012-09-19T20:38:53Z</time>
      </trkpt>
      <trkpt lat="37.3130480" lon="-109.8570367">
        <ele>1548.3405762</ele>
        <time>2012-09-19T20:38:55Z</time>
      </trkpt>
      <trkpt lat="37.3131997" lon="-109.8570758">
        <ele>1548.3405762</ele>
        <time>2012-09-19T20:38:57Z</time>
      </trkpt>
      <trkpt lat="37.3133752" lon="-109.8571678">
        <ele>1547.8598633</ele>
        <time>2012-09-19T20:39:00Z</time>
      </trkpt>
      <trkpt lat="37.3135376" lon="-109.8573004">
        <ele>1547.8598633</ele>
        <time>2012-09-19T20:39:03Z</time>
      </trkpt>
      <trkpt lat="37.3136974" lon="-109.8574598">
        <ele>1547.8598633</ele>
        <time>2012-09-19T20:39:06Z</time>
      </trkpt>
      <trkpt lat="37.3138606" lon="-109.8576148">
        <ele>1549.7827148</ele>
        <time>2012-09-19T20:39:09Z</time>
      </trkpt>
      <trkpt lat="37.3140379" lon="-109.8577572">
        <ele>1552.6665039</ele>
        <time>2012-09-19T20:39:12Z</time>
      </trkpt>
      <trkpt lat="37.3141686" lon="-109.8578555">
        <ele>1553.6279297</ele>
        <time>2012-09-19T20:39:14Z</time>
      </trkpt>
      <trkpt lat="37.3143005" lon="-109.8579467">
        <ele>1555.0698242</ele>
        <time>2012-09-19T20:39:16Z</time>
      </trkpt>
      <trkpt lat="37.3144814" lon="-109.8580716">
        <ele>1556.0310059</ele>
        <time>2012-09-19T20:39:19Z</time>
      </trkpt>
      <trkpt lat="37.3146395" lon="-109.8581362">
        <ele>1559.8762207</ele>
        <time>2012-09-19T20:39:22Z</time>
      </trkpt>
      <trkpt lat="37.3147772" lon="-109.8580114">
        <ele>1559.8762207</ele>
        <time>2012-09-19T20:39:26Z</time>
      </trkpt>
      <trkpt lat="37.3148130" lon="-109.8578090">
        <ele>1560.3569336</ele>
        <time>2012-09-19T20:39:29Z</time>
      </trkpt>
      <trkpt lat="37.3148957" lon="-109.8576386">
        <ele>1561.7990723</ele>
        <time>2012-09-19T20:39:32Z</time>
      </trkpt>
      <trkpt lat="37.3150067" lon="-109.8575018">
        <ele>1565.1638184</ele>
        <time>2012-09-19T20:39:35Z</time>
      </trkpt>
      <trkpt lat="37.3151273" lon="-109.8573992">
        <ele>1566.6057129</ele>
        <time>2012-09-19T20:39:38Z</time>
      </trkpt>
      <trkpt lat="37.3152882" lon="-109.8573698">
        <ele>1569.0090332</ele>
        <time>2012-09-19T20:39:41Z</time>
      </trkpt>
      <trkpt lat="37.3154693" lon="-109.8573335">
        <ele>1568.5283203</ele>
        <time>2012-09-19T20:39:44Z</time>
      </trkpt>
      <trkpt lat="37.3156320" lon="-109.8573190">
        <ele>1572.3735352</ele>
        <time>2012-09-19T20:39:47Z</time>
      </trkpt>
      <trkpt lat="37.3157738" lon="-109.8573822">
        <ele>1575.2573242</ele>
        <time>2012-09-19T20:39:50Z</time>
      </trkpt>
      <trkpt lat="37.3159577" lon="-109.8574298">
        <ele>1576.6994629</ele>
        <time>2012-09-19T20:39:54Z</time>
      </trkpt>
      <trkpt lat="37.3161126" lon="-109.8573899">
        <ele>1576.6994629</ele>
        <time>2012-09-19T20:39:58Z</time>
      </trkpt>
      <trkpt lat="37.3160982" lon="-109.8571504">
        <ele>1576.2187500</ele>
        <time>2012-09-19T20:40:02Z</time>
      </trkpt>
      <trkpt lat="37.3160181" lon="-109.8569325">
        <ele>1575.7380371</ele>
        <time>2012-09-19T20:40:05Z</time>
      </trkpt>
      <trkpt lat="37.3158993" lon="-109.8567393">
        <ele>1575.7380371</ele>
        <time>2012-09-19T20:40:08Z</time>
      </trkpt>
      <trkpt lat="37.3158076" lon="-109.8565813">
        <ele>1576.6994629</ele>
        <time>2012-09-19T20:40:11Z</time>
      </trkpt>
      <trkpt lat="37.3157624" lon="-109.8564004">
        <ele>1578.6220703</ele>
        <time>2012-09-19T20:40:14Z</time>
      </trkpt>
      <trkpt lat="37.3157444" lon="-109.8561985">
        <ele>1581.5061035</ele>
        <time>2012-09-19T20:40:18Z</time>
      </trkpt>
      <trkpt lat="37.3157581" lon="-109.8559975">
        <ele>1579.1025391</ele>
        <time>2012-09-19T20:40:23Z</time>
      </trkpt>
      <trkpt lat="37.3157899" lon="-109.8558006">
        <ele>1576.2187500</ele>
        <time>2012-09-19T20:40:27Z</time>
      </trkpt>
      <trkpt lat="37.3158356" lon="-109.8556120">
        <ele>1575.2573242</ele>
        <time>2012-09-19T20:40:31Z</time>
      </trkpt>
      <trkpt lat="37.3159557" lon="-109.8554374">
        <ele>1574.2961426</ele>
        <time>2012-09-19T20:40:35Z</time>
      </trkpt>
      <trkpt lat="37.3160590" lon="-109.8552598">
        <ele>1574.2961426</ele>
        <time>2012-09-19T20:40:39Z</time>
      </trkpt>
      <trkpt lat="37.3161155" lon="-109.8550603">
        <ele>1570.9316406</ele>
        <time>2012-09-19T20:40:44Z</time>
      </trkpt>
      <trkpt lat="37.3161409" lon="-109.8548304">
        <ele>1569.9702148</ele>
        <time>2012-09-19T20:40:49Z</time>
      </trkpt>
      <trkpt lat="37.3161911" lon="-109.8546016">
        <ele>1569.4897461</ele>
        <time>2012-09-19T20:40:53Z</time>
      </trkpt>
      <trkpt lat="37.3162171" lon="-109.8544176">
        <ele>1568.0476074</ele>
        <time>2012-09-19T20:40:56Z</time>
      </trkpt>
      <trkpt lat="37.3162115" lon="-109.8542077">
        <ele>1566.6057129</ele>
        <time>2012-09-19T20:40:59Z</time>
      </trkpt>
      <trkpt lat="37.3161873" lon="-109.8539734">
        <ele>1565.1638184</ele>
        <time>2012-09-19T20:41:02Z</time>
      </trkpt>
      <trkpt lat="37.3161671" lon="-109.8537452">
        <ele>1565.1638184</ele>
        <time>2012-09-19T20:41:05Z</time>
      </trkpt>
      <trkpt lat="37.3161556" lon="-109.8535536">
        <ele>1566.1250000</ele>
        <time>2012-09-19T20:41:08Z</time>
      </trkpt>
      <trkpt lat="37.3161395" lon="-109.8533722">
        <ele>1564.2023926</ele>
        <time>2012-09-19T20:41:11Z</time>
      </trkpt>
      <trkpt lat="37.3161106" lon="-109.8531562">
        <ele>1562.2795410</ele>
        <time>2012-09-19T20:41:14Z</time>
      </trkpt>
      <trkpt lat="37.3160783" lon="-109.8529082">
        <ele>1560.8376465</ele>
        <time>2012-09-19T20:41:17Z</time>
      </trkpt>
      <trkpt lat="37.3160637" lon="-109.8526439">
        <ele>1560.8376465</ele>
        <time>2012-09-19T20:41:20Z</time>
      </trkpt>
      <trkpt lat="37.3160393" lon="-109.8524598">
        <ele>1561.3183594</ele>
        <time>2012-09-19T20:41:22Z</time>
      </trkpt>
      <trkpt lat="37.3160070" lon="-109.8522674">
        <ele>1560.3569336</ele>
        <time>2012-09-19T20:41:24Z</time>
      </trkpt>
      <trkpt lat="37.3159694" lon="-109.8520751">
        <ele>1559.8762207</ele>
        <time>2012-09-19T20:41:26Z</time>
      </trkpt>
      <trkpt lat="37.3159306" lon="-109.8518822">
        <ele>1559.3957520</ele>
        <time>2012-09-19T20:41:28Z</time>
      </trkpt>
      <trkpt lat="37.3159023" lon="-109.8516825">
        <ele>1559.3957520</ele>
        <time>2012-09-19T20:41:30Z</time>
      </trkpt>
      <trkpt lat="37.3158681" lon="-109.8514856">
        <ele>1559.3957520</ele>
        <time>2012-09-19T20:41:32Z</time>
      </trkpt>
      <trkpt lat="37.3158197" lon="-109.8512914">
        <ele>1558.4343262</ele>
        <time>2012-09-19T20:41:34Z</time>
      </trkpt>
      <trkpt lat="37.3157458" lon="-109.8511006">
        <ele>1557.9538574</ele>
        <time>2012-09-19T20:41:36Z</time>
      </trkpt>
      <trkpt lat="37.3156402" lon="-109.8509256">
        <ele>1557.4731445</ele>
        <time>2012-09-19T20:41:38Z</time>
      </trkpt>
      <trkpt lat="37.3155184" lon="-109.8507525">
        <ele>1557.4731445</ele>
        <time>2012-09-19T20:41:40Z</time>
      </trkpt>
      <trkpt lat="37.3153821" lon="-109.8505888">
        <ele>1556.9924316</ele>
        <time>2012-09-19T20:41:42Z</time>
      </trkpt>
      <trkpt lat="37.3152309" lon="-109.8504350">
        <ele>1556.5117188</ele>
        <time>2012-09-19T20:41:44Z</time>
      </trkpt>
      <trkpt lat="37.3150798" lon="-109.8502808">
        <ele>1556.5117188</ele>
        <time>2012-09-19T20:41:46Z</time>
      </trkpt>
      <trkpt lat="37.3149410" lon="-109.8501128">
        <ele>1555.5505371</ele>
        <time>2012-09-19T20:41:48Z</time>
      </trkpt>
      <trkpt lat="37.3148098" lon="-109.8499321">
        <ele>1554.1086426</ele>
        <time>2012-09-19T20:41:50Z</time>
      </trkpt>
      <trkpt lat="37.3146837" lon="-109.8497515">
        <ele>1553.1472168</ele>
        <time>2012-09-19T20:41:52Z</time>
      </trkpt>
      <trkpt lat="37.3145595" lon="-109.8495724">
        <ele>1552.6665039</ele>
        <time>2012-09-19T20:41:54Z</time>
      </trkpt>
      <trkpt lat="37.3144322" lon="-109.8493971">
        <ele>1552.1857910</ele>
        <time>2012-09-19T20:41:56Z</time>
      </trkpt>
      <trkpt lat="37.3143016" lon="-109.8492385">
        <ele>1550.7438965</ele>
        <time>2012-09-19T20:41:58Z</time>
      </trkpt>
      <trkpt lat="37.3141752" lon="-109.8490896">
        <ele>1550.2634277</ele>
        <time>2012-09-19T20:42:00Z</time>
      </trkpt>
      <trkpt lat="37.3140540" lon="-109.8489454">
        <ele>1550.2634277</ele>
        <time>2012-09-19T20:42:02Z</time>
      </trkpt>
      <trkpt lat="37.3139426" lon="-109.8487977">
        <ele>1549.3020020</ele>
        <time>2012-09-19T20:42:04Z</time>
      </trkpt>
      <trkpt lat="37.3138375" lon="-109.8486537">
        <ele>1548.8212891</ele>
        <time>2012-09-19T20:42:06Z</time>
      </trkpt>
      <trkpt lat="37.3137375" lon="-109.8485079">
        <ele>1548.3405762</ele>
        <time>2012-09-19T20:42:08Z</time>
      </trkpt>
      <trkpt lat="37.3136330" lon="-109.8483619">
        <ele>1547.8598633</ele>
        <time>2012-09-19T20:42:10Z</time>
      </trkpt>
      <trkpt lat="37.3135244" lon="-109.8482102">
        <ele>1546.8984375</ele>
        <time>2012-09-19T20:42:12Z</time>
      </trkpt>
      <trkpt lat="37.3134112" lon="-109.8480598">
        <ele>1546.4179688</ele>
        <time>2012-09-19T20:42:14Z</time>
      </trkpt>
      <trkpt lat="37.3133029" lon="-109.8479096">
        <ele>1547.8598633</ele>
        <time>2012-09-19T20:42:16Z</time>
      </trkpt>
      <trkpt lat="37.3132024" lon="-109.8477358">
        <ele>1547.8598633</ele>
        <time>2012-09-19T20:42:18Z</time>
      </trkpt>
      <trkpt lat="37.3131080" lon="-109.8475353">
        <ele>1546.4179688</ele>
        <time>2012-09-19T20:42:20Z</time>
      </trkpt>
      <trkpt lat="37.3130127" lon="-109.8473094">
        <ele>1544.9758301</ele>
        <time>2012-09-19T20:42:22Z</time>
      </trkpt>
      <trkpt lat="37.3129163" lon="-109.8470678">
        <ele>1545.4565430</ele>
        <time>2012-09-19T20:42:24Z</time>
      </trkpt>
      <trkpt lat="37.3128118" lon="-109.8468090">
        <ele>1544.9758301</ele>
        <time>2012-09-19T20:42:26Z</time>
      </trkpt>
      <trkpt lat="37.3127030" lon="-109.8465417">
        <ele>1543.5339355</ele>
        <time>2012-09-19T20:42:28Z</time>
      </trkpt>
      <trkpt lat="37.3125918" lon="-109.8462855">
        <ele>1544.0146484</ele>
        <time>2012-09-19T20:42:30Z</time>
      </trkpt>
      <trkpt lat="37.3124751" lon="-109.8460572">
        <ele>1543.5339355</ele>
        <time>2012-09-19T20:42:32Z</time>
      </trkpt>
      <trkpt lat="37.3123441" lon="-109.8458655">
        <ele>1543.0532227</ele>
        <time>2012-09-19T20:42:34Z</time>
      </trkpt>
      <trkpt lat="37.3121913" lon="-109.8457016">
        <ele>1543.0532227</ele>
        <time>2012-09-19T20:42:36Z</time>
      </trkpt>
      <trkpt lat="37.3120229" lon="-109.8455416">
        <ele>1540.6499023</ele>
        <time>2012-09-19T20:42:38Z</time>
      </trkpt>
      <trkpt lat="37.3118499" lon="-109.8453813">
        <ele>1540.1694336</ele>
        <time>2012-09-19T20:42:40Z</time>
      </trkpt>
      <trkpt lat="37.3116787" lon="-109.8452130">
        <ele>1540.1694336</ele>
        <time>2012-09-19T20:42:42Z</time>
      </trkpt>
      <trkpt lat="37.3115181" lon="-109.8450412">
        <ele>1538.7275391</ele>
        <time>2012-09-19T20:42:44Z</time>
      </trkpt>
      <trkpt lat="37.3113638" lon="-109.8448774">
        <ele>1538.7275391</ele>
        <time>2012-09-19T20:42:46Z</time>
      </trkpt>
      <trkpt lat="37.3112065" lon="-109.8447153">
        <ele>1538.7275391</ele>
        <time>2012-09-19T20:42:48Z</time>
      </trkpt>
      <trkpt lat="37.3110444" lon="-109.8445427">
        <ele>1539.2080078</ele>
        <time>2012-09-19T20:42:50Z</time>
      </trkpt>
      <trkpt lat="37.3108811" lon="-109.8443647">
        <ele>1538.2468262</ele>
        <time>2012-09-19T20:42:52Z</time>
      </trkpt>
      <trkpt lat="37.3107133" lon="-109.8441893">
        <ele>1538.2468262</ele>
        <time>2012-09-19T20:42:54Z</time>
      </trkpt>
      <trkpt lat="37.3105329" lon="-109.8440152">
        <ele>1537.7661133</ele>
        <time>2012-09-19T20:42:56Z</time>
      </trkpt>
      <trkpt lat="37.3103410" lon="-109.8438475">
        <ele>1536.8046875</ele>
        <time>2012-09-19T20:42:58Z</time>
      </trkpt>
      <trkpt lat="37.3101457" lon="-109.8436871">
        <ele>1536.8046875</ele>
        <time>2012-09-19T20:43:00Z</time>
      </trkpt>
      <trkpt lat="37.3099544" lon="-109.8435350">
        <ele>1534.8823242</ele>
        <time>2012-09-19T20:43:02Z</time>
      </trkpt>
      <trkpt lat="37.3097662" lon="-109.8433872">
        <ele>1533.9208984</ele>
        <time>2012-09-19T20:43:04Z</time>
      </trkpt>
      <trkpt lat="37.3095782" lon="-109.8432378">
        <ele>1533.4401855</ele>
        <time>2012-09-19T20:43:06Z</time>
      </trkpt>
      <trkpt lat="37.3093881" lon="-109.8430849">
        <ele>1533.4401855</ele>
        <time>2012-09-19T20:43:08Z</time>
      </trkpt>
      <trkpt lat="37.3091916" lon="-109.8429290">
        <ele>1531.0368652</ele>
        <time>2012-09-19T20:43:10Z</time>
      </trkpt>
      <trkpt lat="37.3089937" lon="-109.8427702">
        <ele>1530.0754395</ele>
        <time>2012-09-19T20:43:12Z</time>
      </trkpt>
      <trkpt lat="37.3087983" lon="-109.8426132">
        <ele>1529.5947266</ele>
        <time>2012-09-19T20:43:14Z</time>
      </trkpt>
      <trkpt lat="37.3086025" lon="-109.8424573">
        <ele>1528.6335449</ele>
        <time>2012-09-19T20:43:16Z</time>
      </trkpt>
      <trkpt lat="37.3084045" lon="-109.8422981">
        <ele>1528.1528320</ele>
        <time>2012-09-19T20:43:18Z</time>
      </trkpt>
      <trkpt lat="37.3082041" lon="-109.8421402">
        <ele>1528.1528320</ele>
        <time>2012-09-19T20:43:20Z</time>
      </trkpt>
      <trkpt lat="37.3080006" lon="-109.8419800">
        <ele>1528.1528320</ele>
        <time>2012-09-19T20:43:22Z</time>
      </trkpt>
      <trkpt lat="37.3077990" lon="-109.8418178">
        <ele>1527.6721191</ele>
        <time>2012-09-19T20:43:24Z</time>
      </trkpt>
      <trkpt lat="37.3076186" lon="-109.8416652">
        <ele>1528.1528320</ele>
        <time>2012-09-19T20:43:26Z</time>
      </trkpt>
      <trkpt lat="37.3074590" lon="-109.8415275">
        <ele>1526.7109375</ele>
        <time>2012-09-19T20:43:28Z</time>
      </trkpt>
      <trkpt lat="37.3073115" lon="-109.8414089">
        <ele>1526.2302246</ele>
        <time>2012-09-19T20:43:30Z</time>
      </trkpt>
      <trkpt lat="37.3071741" lon="-109.8413119">
        <ele>1526.7109375</ele>
        <time>2012-09-19T20:43:32Z</time>
      </trkpt>
      <trkpt lat="37.3069850" lon="-109.8411918">
        <ele>1525.7495117</ele>
        <time>2012-09-19T20:43:35Z</time>
      </trkpt>
      <trkpt lat="37.3068443" lon="-109.8411031">
        <ele>1525.2687988</ele>
        <time>2012-09-19T20:43:37Z</time>
      </trkpt>
      <trkpt lat="37.3066827" lon="-109.8410124">
        <ele>1524.7883301</ele>
        <time>2012-09-19T20:43:39Z</time>
      </trkpt>
      <trkpt lat="37.3065169" lon="-109.8409068">
        <ele>1524.3076172</ele>
        <time>2012-09-19T20:43:41Z</time>
      </trkpt>
      <trkpt lat="37.3063375" lon="-109.8407990">
        <ele>1523.8269043</ele>
        <time>2012-09-19T20:43:43Z</time>
      </trkpt>
      <trkpt lat="37.3061532" lon="-109.8406912">
        <ele>1522.8657227</ele>
        <time>2012-09-19T20:43:45Z</time>
      </trkpt>
      <trkpt lat="37.3059736" lon="-109.8405877">
        <ele>1521.9042969</ele>
        <time>2012-09-19T20:43:47Z</time>
      </trkpt>
      <trkpt lat="37.3057938" lon="-109.8404853">
        <ele>1520.9431152</ele>
        <time>2012-09-19T20:43:49Z</time>
      </trkpt>
      <trkpt lat="37.3056094" lon="-109.8403801">
        <ele>1521.4235840</ele>
        <time>2012-09-19T20:43:51Z</time>
      </trkpt>
      <trkpt lat="37.3054222" lon="-109.8402737">
        <ele>1519.5012207</ele>
        <time>2012-09-19T20:43:53Z</time>
      </trkpt>
      <trkpt lat="37.3052546" lon="-109.8401758">
        <ele>1519.9816895</ele>
        <time>2012-09-19T20:43:55Z</time>
      </trkpt>
      <trkpt lat="37.3051041" lon="-109.8400842">
        <ele>1519.9816895</ele>
        <time>2012-09-19T20:43:57Z</time>
      </trkpt>
      <trkpt lat="37.3049553" lon="-109.8399941">
        <ele>1519.9816895</ele>
        <time>2012-09-19T20:43:59Z</time>
      </trkpt>
      <trkpt lat="37.3047977" lon="-109.8398977">
        <ele>1519.9816895</ele>
        <time>2012-09-19T20:44:01Z</time>
      </trkpt>
      <trkpt lat="37.3046344" lon="-109.8397937">
        <ele>1519.9816895</ele>
        <time>2012-09-19T20:44:03Z</time>
      </trkpt>
      <trkpt lat="37.3044719" lon="-109.8396745">
        <ele>1519.0205078</ele>
        <time>2012-09-19T20:44:05Z</time>
      </trkpt>
      <trkpt lat="37.3043071" lon="-109.8395482">
        <ele>1519.0205078</ele>
        <time>2012-09-19T20:44:07Z</time>
      </trkpt>
      <trkpt lat="37.3041363" lon="-109.8394174">
        <ele>1518.5397949</ele>
        <time>2012-09-19T20:44:09Z</time>
      </trkpt>
      <trkpt lat="37.3039601" lon="-109.8392777">
        <ele>1517.0979004</ele>
        <time>2012-09-19T20:44:11Z</time>
      </trkpt>
      <trkpt lat="37.3037767" lon="-109.8391316">
        <ele>1516.6171875</ele>
        <time>2012-09-19T20:44:13Z</time>
      </trkpt>
      <trkpt lat="37.3035864" lon="-109.8389788">
        <ele>1515.1750488</ele>
        <time>2012-09-19T20:44:15Z</time>
      </trkpt>
      <trkpt lat="37.3033903" lon="-109.8388234">
        <ele>1515.1750488</ele>
        <time>2012-09-19T20:44:17Z</time>
      </trkpt>
      <trkpt lat="37.3031876" lon="-109.8386623">
        <ele>1514.2136230</ele>
        <time>2012-09-19T20:44:19Z</time>
      </trkpt>
      <trkpt lat="37.3029779" lon="-109.8384967">
        <ele>1513.2524414</ele>
        <time>2012-09-19T20:44:21Z</time>
      </trkpt>
      <trkpt lat="37.3027605" lon="-109.8383239">
        <ele>1512.7717285</ele>
        <time>2012-09-19T20:44:23Z</time>
      </trkpt>
      <trkpt lat="37.3025449" lon="-109.8381525">
        <ele>1512.7717285</ele>
        <time>2012-09-19T20:44:25Z</time>
      </trkpt>
      <trkpt lat="37.3023366" lon="-109.8379878">
        <ele>1512.2910156</ele>
        <time>2012-09-19T20:44:27Z</time>
      </trkpt>
      <trkpt lat="37.3021298" lon="-109.8378225">
        <ele>1511.8105469</ele>
        <time>2012-09-19T20:44:29Z</time>
      </trkpt>
      <trkpt lat="37.3019232" lon="-109.8376592">
        <ele>1511.3298340</ele>
        <time>2012-09-19T20:44:31Z</time>
      </trkpt>
      <trkpt lat="37.3017218" lon="-109.8374952">
        <ele>1509.4072266</ele>
        <time>2012-09-19T20:44:33Z</time>
      </trkpt>
      <trkpt lat="37.3015259" lon="-109.8373401">
        <ele>1507.9653320</ele>
        <time>2012-09-19T20:44:35Z</time>
      </trkpt>
      <trkpt lat="37.3013384" lon="-109.8371909">
        <ele>1507.4846191</ele>
        <time>2012-09-19T20:44:37Z</time>
      </trkpt>
      <trkpt lat="37.3011618" lon="-109.8370497">
        <ele>1507.0039063</ele>
        <time>2012-09-19T20:44:39Z</time>
      </trkpt>
      <trkpt lat="37.3010022" lon="-109.8369228">
        <ele>1506.0424805</ele>
        <time>2012-09-19T20:44:41Z</time>
      </trkpt>
      <trkpt lat="37.3008747" lon="-109.8368141">
        <ele>1506.0424805</ele>
        <time>2012-09-19T20:44:43Z</time>
      </trkpt>
      <trkpt lat="37.3007645" lon="-109.8366732">
        <ele>1506.0424805</ele>
        <time>2012-09-19T20:44:46Z</time>
      </trkpt>
      <trkpt lat="37.3006628" lon="-109.8364981">
        <ele>1504.1201172</ele>
        <time>2012-09-19T20:44:49Z</time>
      </trkpt>
      <trkpt lat="37.3005593" lon="-109.8363106">
        <ele>1501.7167969</ele>
        <time>2012-09-19T20:44:52Z</time>
      </trkpt>
      <trkpt lat="37.3004697" lon="-109.8361317">
        <ele>1499.7939453</ele>
        <time>2012-09-19T20:44:55Z</time>
      </trkpt>
      <trkpt lat="37.3003779" lon="-109.8359522">
        <ele>1499.3132324</ele>
        <time>2012-09-19T20:44:58Z</time>
      </trkpt>
      <trkpt lat="37.3002785" lon="-109.8357796">
        <ele>1498.3518066</ele>
        <time>2012-09-19T20:45:01Z</time>
      </trkpt>
      <trkpt lat="37.3001568" lon="-109.8356062">
        <ele>1497.3906250</ele>
        <time>2012-09-19T20:45:04Z</time>
      </trkpt>
      <trkpt lat="37.3000180" lon="-109.8354368">
        <ele>1494.9873047</ele>
        <time>2012-09-19T20:45:07Z</time>
      </trkpt>
      <trkpt lat="37.2999377" lon="-109.8352506">
        <ele>1494.9873047</ele>
        <time>2012-09-19T20:45:11Z</time>
      </trkpt>
      <trkpt lat="37.2999231" lon="-109.8350389">
        <ele>1492.1035156</ele>
        <time>2012-09-19T20:45:16Z</time>
      </trkpt>
      <trkpt lat="37.2999114" lon="-109.8348561">
        <ele>1491.1420898</ele>
        <time>2012-09-19T20:45:21Z</time>
      </trkpt>
      <trkpt lat="37.2999113" lon="-109.8346511">
        <ele>1491.1420898</ele>
        <time>2012-09-19T20:45:26Z</time>
      </trkpt>
      <trkpt lat="37.2998875" lon="-109.8344369">
        <ele>1492.5842285</ele>
        <time>2012-09-19T20:45:30Z</time>
      </trkpt>
      <trkpt lat="37.2998710" lon="-109.8342544">
        <ele>1491.6228027</ele>
        <time>2012-09-19T20:45:33Z</time>
      </trkpt>
      <trkpt lat="37.2998445" lon="-109.8340371">
        <ele>1492.1035156</ele>
        <time>2012-09-19T20:45:36Z</time>
      </trkpt>
      <trkpt lat="37.2998228" lon="-109.8337928">
        <ele>1491.6228027</ele>
        <time>2012-09-19T20:45:39Z</time>
      </trkpt>
      <trkpt lat="37.2998067" lon="-109.8335356">
        <ele>1491.6228027</ele>
        <time>2012-09-19T20:45:42Z</time>
      </trkpt>
      <trkpt lat="37.2997813" lon="-109.8332720">
        <ele>1491.1420898</ele>
        <time>2012-09-19T20:45:45Z</time>
      </trkpt>
      <trkpt lat="37.2997699" lon="-109.8330156">
        <ele>1492.1035156</ele>
        <time>2012-09-19T20:45:48Z</time>
      </trkpt>
      <trkpt lat="37.2998013" lon="-109.8328073">
        <ele>1494.0261230</ele>
        <time>2012-09-19T20:45:51Z</time>
      </trkpt>
      <trkpt lat="37.2998357" lon="-109.8326026">
        <ele>1495.9487305</ele>
        <time>2012-09-19T20:45:54Z</time>
      </trkpt>
      <trkpt lat="37.2998381" lon="-109.8323797">
        <ele>1496.9099121</ele>
        <time>2012-09-19T20:45:57Z</time>
      </trkpt>
      <trkpt lat="37.2997414" lon="-109.8321569">
        <ele>1497.8713379</ele>
        <time>2012-09-19T20:46:00Z</time>
      </trkpt>
      <trkpt lat="37.2996304" lon="-109.8320297">
        <ele>1497.8713379</ele>
        <time>2012-09-19T20:46:02Z</time>
      </trkpt>
      <trkpt lat="37.2995043" lon="-109.8319076">
        <ele>1498.3518066</ele>
        <time>2012-09-19T20:46:04Z</time>
      </trkpt>
      <trkpt lat="37.2993853" lon="-109.8317862">
        <ele>1498.8325195</ele>
        <time>2012-09-19T20:46:06Z</time>
      </trkpt>
      <trkpt lat="37.2992591" lon="-109.8316623">
        <ele>1498.3518066</ele>
        <time>2012-09-19T20:46:08Z</time>
      </trkpt>
      <trkpt lat="37.2991192" lon="-109.8315283">
        <ele>1497.3906250</ele>
        <time>2012-09-19T20:46:10Z</time>
      </trkpt>
      <trkpt lat="37.2989712" lon="-109.8313946">
        <ele>1497.3906250</ele>
        <time>2012-09-19T20:46:12Z</time>
      </trkpt>
      <trkpt lat="37.2988197" lon="-109.8312610">
        <ele>1497.3906250</ele>
        <time>2012-09-19T20:46:14Z</time>
      </trkpt>
      <trkpt lat="37.2986733" lon="-109.8311268">
        <ele>1497.8713379</ele>
        <time>2012-09-19T20:46:16Z</time>
      </trkpt>
      <trkpt lat="37.2985406" lon="-109.8309868">
        <ele>1497.8713379</ele>
        <time>2012-09-19T20:46:18Z</time>
      </trkpt>
      <trkpt lat="37.2984199" lon="-109.8308383">
        <ele>1496.9099121</ele>
        <time>2012-09-19T20:46:20Z</time>
      </trkpt>
      <trkpt lat="37.2982999" lon="-109.8307055">
        <ele>1497.3906250</ele>
        <time>2012-09-19T20:46:22Z</time>
      </trkpt>
      <trkpt lat="37.2981870" lon="-109.8305633">
        <ele>1496.4294434</ele>
        <time>2012-09-19T20:46:24Z</time>
      </trkpt>
      <trkpt lat="37.2980936" lon="-109.8303814">
        <ele>1496.4294434</ele>
        <time>2012-09-19T20:46:26Z</time>
      </trkpt>
      <trkpt lat="37.2979905" lon="-109.8301861">
        <ele>1496.9099121</ele>
        <time>2012-09-19T20:46:28Z</time>
      </trkpt>
      <trkpt lat="37.2978782" lon="-109.8299987">
        <ele>1495.9487305</ele>
        <time>2012-09-19T20:46:30Z</time>
      </trkpt>
      <trkpt lat="37.2977849" lon="-109.8297951">
        <ele>1496.9099121</ele>
        <time>2012-09-19T20:46:32Z</time>
      </trkpt>
      <trkpt lat="37.2977192" lon="-109.8296022">
        <ele>1497.8713379</ele>
        <time>2012-09-19T20:46:34Z</time>
      </trkpt>
      <trkpt lat="37.2976719" lon="-109.8294138">
        <ele>1497.3906250</ele>
        <time>2012-09-19T20:46:36Z</time>
      </trkpt>
      <trkpt lat="37.2976212" lon="-109.8292181">
        <ele>1497.8713379</ele>
        <time>2012-09-19T20:46:38Z</time>
      </trkpt>
      <trkpt lat="37.2975726" lon="-109.8290201">
        <ele>1496.4294434</ele>
        <time>2012-09-19T20:46:40Z</time>
      </trkpt>
      <trkpt lat="37.2975233" lon="-109.8288262">
        <ele>1495.9487305</ele>
        <time>2012-09-19T20:46:42Z</time>
      </trkpt>
      <trkpt lat="37.2974736" lon="-109.8286314">
        <ele>1494.9873047</ele>
        <time>2012-09-19T20:46:44Z</time>
      </trkpt>
      <trkpt lat="37.2974222" lon="-109.8284368">
        <ele>1494.5065918</ele>
        <time>2012-09-19T20:46:46Z</time>
      </trkpt>
      <trkpt lat="37.2973716" lon="-109.8282404">
        <ele>1494.0261230</ele>
        <time>2012-09-19T20:46:48Z</time>
      </trkpt>
      <trkpt lat="37.2973170" lon="-109.8280359">
        <ele>1493.0646973</ele>
        <time>2012-09-19T20:46:50Z</time>
      </trkpt>
      <trkpt lat="37.2972649" lon="-109.8278287">
        <ele>1492.5842285</ele>
        <time>2012-09-19T20:46:52Z</time>
      </trkpt>
      <trkpt lat="37.2972146" lon="-109.8276255">
        <ele>1491.6228027</ele>
        <time>2012-09-19T20:46:54Z</time>
      </trkpt>
      <trkpt lat="37.2971514" lon="-109.8274261">
        <ele>1491.6228027</ele>
        <time>2012-09-19T20:46:56Z</time>
      </trkpt>
      <trkpt lat="37.2970906" lon="-109.8272272">
        <ele>1490.6613770</ele>
        <time>2012-09-19T20:46:58Z</time>
      </trkpt>
      <trkpt lat="37.2970316" lon="-109.8270234">
        <ele>1490.6613770</ele>
        <time>2012-09-19T20:47:00Z</time>
      </trkpt>
      <trkpt lat="37.2969755" lon="-109.8268092">
        <ele>1490.1809082</ele>
        <time>2012-09-19T20:47:02Z</time>
      </trkpt>
      <trkpt lat="37.2969201" lon="-109.8265911">
        <ele>1491.1420898</ele>
        <time>2012-09-19T20:47:04Z</time>
      </trkpt>
      <trkpt lat="37.2968653" lon="-109.8263763">
        <ele>1489.7001953</ele>
        <time>2012-09-19T20:47:06Z</time>
      </trkpt>
      <trkpt lat="37.2968065" lon="-109.8261669">
        <ele>1488.2583008</ele>
        <time>2012-09-19T20:47:08Z</time>
      </trkpt>
      <trkpt lat="37.2967467" lon="-109.8259527">
        <ele>1485.8549805</ele>
        <time>2012-09-19T20:47:10Z</time>
      </trkpt>
      <trkpt lat="37.2966860" lon="-109.8257223">
        <ele>1484.8937988</ele>
        <time>2012-09-19T20:47:12Z</time>
      </trkpt>
      <trkpt lat="37.2966336" lon="-109.8254806">
        <ele>1483.9321289</ele>
        <time>2012-09-19T20:47:14Z</time>
      </trkpt>
      <trkpt lat="37.2965832" lon="-109.8252329">
        <ele>1483.9321289</ele>
        <time>2012-09-19T20:47:16Z</time>
      </trkpt>
      <trkpt lat="37.2965340" lon="-109.8249813">
        <ele>1483.9321289</ele>
        <time>2012-09-19T20:47:18Z</time>
      </trkpt>
      <trkpt lat="37.2964883" lon="-109.8247342">
        <ele>1483.4514160</ele>
        <time>2012-09-19T20:47:20Z</time>
      </trkpt>
      <trkpt lat="37.2964475" lon="-109.8245156">
        <ele>1483.4514160</ele>
        <time>2012-09-19T20:47:22Z</time>
      </trkpt>
      <trkpt lat="37.2964090" lon="-109.8243330">
        <ele>1483.4514160</ele>
        <time>2012-09-19T20:47:24Z</time>
      </trkpt>
      <trkpt lat="37.2963638" lon="-109.8240891">
        <ele>1481.5288086</ele>
        <time>2012-09-19T20:47:27Z</time>
      </trkpt>
      <trkpt lat="37.2963241" lon="-109.8238855">
        <ele>1481.0483398</ele>
        <time>2012-09-19T20:47:30Z</time>
      </trkpt>
      <trkpt lat="37.2962783" lon="-109.8236628">
        <ele>1479.6062012</ele>
        <time>2012-09-19T20:47:33Z</time>
      </trkpt>
      <trkpt lat="37.2962164" lon="-109.8234401">
        <ele>1481.5288086</ele>
        <time>2012-09-19T20:47:36Z</time>
      </trkpt>
      <trkpt lat="37.2961713" lon="-109.8231959">
        <ele>1481.0483398</ele>
        <time>2012-09-19T20:47:39Z</time>
      </trkpt>
      <trkpt lat="37.2961210" lon="-109.8229511">
        <ele>1479.1254883</ele>
        <time>2012-09-19T20:47:42Z</time>
      </trkpt>
      <trkpt lat="37.2960874" lon="-109.8227325">
        <ele>1479.6062012</ele>
        <time>2012-09-19T20:47:45Z</time>
      </trkpt>
      <trkpt lat="37.2960382" lon="-109.8225314">
        <ele>1478.6450195</ele>
        <time>2012-09-19T20:47:48Z</time>
      </trkpt>
      <trkpt lat="37.2959573" lon="-109.8223201">
        <ele>1479.1254883</ele>
        <time>2012-09-19T20:47:51Z</time>
      </trkpt>
      <trkpt lat="37.2958723" lon="-109.8221606">
        <ele>1479.6062012</ele>
        <time>2012-09-19T20:47:53Z</time>
      </trkpt>
      <trkpt lat="37.2957786" lon="-109.8219854">
        <ele>1478.6450195</ele>
        <time>2012-09-19T20:47:55Z</time>
      </trkpt>
      <trkpt lat="37.2956920" lon="-109.8217998">
        <ele>1479.1254883</ele>
        <time>2012-09-19T20:47:57Z</time>
      </trkpt>
      <trkpt lat="37.2956098" lon="-109.8216036">
        <ele>1479.6062012</ele>
        <time>2012-09-19T20:47:59Z</time>
      </trkpt>
      <trkpt lat="37.2955239" lon="-109.8213996">
        <ele>1479.6062012</ele>
        <time>2012-09-19T20:48:01Z</time>
      </trkpt>
      <trkpt lat="37.2954360" lon="-109.8211946">
        <ele>1478.6450195</ele>
        <time>2012-09-19T20:48:03Z</time>
      </trkpt>
      <trkpt lat="37.2953537" lon="-109.8209950">
        <ele>1478.6450195</ele>
        <time>2012-09-19T20:48:05Z</time>
      </trkpt>
      <trkpt lat="37.2952828" lon="-109.8207998">
        <ele>1478.1643066</ele>
        <time>2012-09-19T20:48:07Z</time>
      </trkpt>
      <trkpt lat="37.2952151" lon="-109.8206193">
        <ele>1477.2031250</ele>
        <time>2012-09-19T20:48:09Z</time>
      </trkpt>
      <trkpt lat="37.2951213" lon="-109.8204772">
        <ele>1477.6835938</ele>
        <time>2012-09-19T20:48:11Z</time>
      </trkpt>
      <trkpt lat="37.2949912" lon="-109.8203782">
        <ele>1476.2416992</ele>
        <time>2012-09-19T20:48:13Z</time>
      </trkpt>
      <trkpt lat="37.2948346" lon="-109.8203070">
        <ele>1477.2031250</ele>
        <time>2012-09-19T20:48:15Z</time>
      </trkpt>
      <trkpt lat="37.2946664" lon="-109.8202282">
        <ele>1477.2031250</ele>
        <time>2012-09-19T20:48:17Z</time>
      </trkpt>
      <trkpt lat="37.2944837" lon="-109.8201450">
        <ele>1477.6835938</ele>
        <time>2012-09-19T20:48:19Z</time>
      </trkpt>
      <trkpt lat="37.2942993" lon="-109.8200513">
        <ele>1477.2031250</ele>
        <time>2012-09-19T20:48:21Z</time>
      </trkpt>
      <trkpt lat="37.2941265" lon="-109.8199423">
        <ele>1476.7224121</ele>
        <time>2012-09-19T20:48:23Z</time>
      </trkpt>
      <trkpt lat="37.2939814" lon="-109.8197952">
        <ele>1477.6835938</ele>
        <time>2012-09-19T20:48:25Z</time>
      </trkpt>
      <trkpt lat="37.2938459" lon="-109.8196181">
        <ele>1478.6450195</ele>
        <time>2012-09-19T20:48:27Z</time>
      </trkpt>
      <trkpt lat="37.2937202" lon="-109.8194347">
        <ele>1478.1643066</ele>
        <time>2012-09-19T20:48:29Z</time>
      </trkpt>
      <trkpt lat="37.2936077" lon="-109.8192436">
        <ele>1477.6835938</ele>
        <time>2012-09-19T20:48:31Z</time>
      </trkpt>
      <trkpt lat="37.2935045" lon="-109.8190388">
        <ele>1477.2031250</ele>
        <time>2012-09-19T20:48:33Z</time>
      </trkpt>
      <trkpt lat="37.2933953" lon="-109.8188270">
        <ele>1475.7609863</ele>
        <time>2012-09-19T20:48:35Z</time>
      </trkpt>
      <trkpt lat="37.2932829" lon="-109.8186074">
        <ele>1475.2802734</ele>
        <time>2012-09-19T20:48:37Z</time>
      </trkpt>
      <trkpt lat="37.2931705" lon="-109.8183898">
        <ele>1474.7998047</ele>
        <time>2012-09-19T20:48:39Z</time>
      </trkpt>
      <trkpt lat="37.2930723" lon="-109.8181842">
        <ele>1474.3190918</ele>
        <time>2012-09-19T20:48:41Z</time>
      </trkpt>
      <trkpt lat="37.2929770" lon="-109.8179927">
        <ele>1474.7998047</ele>
        <time>2012-09-19T20:48:43Z</time>
      </trkpt>
      <trkpt lat="37.2928684" lon="-109.8178336">
        <ele>1474.7998047</ele>
        <time>2012-09-19T20:48:45Z</time>
      </trkpt>
      <trkpt lat="37.2927405" lon="-109.8176877">
        <ele>1474.7998047</ele>
        <time>2012-09-19T20:48:47Z</time>
      </trkpt>
      <trkpt lat="37.2926036" lon="-109.8175405">
        <ele>1474.7998047</ele>
        <time>2012-09-19T20:48:49Z</time>
      </trkpt>
      <trkpt lat="37.2924691" lon="-109.8173812">
        <ele>1474.7998047</ele>
        <time>2012-09-19T20:48:51Z</time>
      </trkpt>
      <trkpt lat="37.2923337" lon="-109.8172099">
        <ele>1475.2802734</ele>
        <time>2012-09-19T20:48:53Z</time>
      </trkpt>
      <trkpt lat="37.2921976" lon="-109.8170279">
        <ele>1474.7998047</ele>
        <time>2012-09-19T20:48:55Z</time>
      </trkpt>
      <trkpt lat="37.2920862" lon="-109.8168042">
        <ele>1474.7998047</ele>
        <time>2012-09-19T20:48:57Z</time>
      </trkpt>
      <trkpt lat="37.2919930" lon="-109.8165827">
        <ele>1475.2802734</ele>
        <time>2012-09-19T20:48:59Z</time>
      </trkpt>
      <trkpt lat="37.2919122" lon="-109.8163620">
        <ele>1475.2802734</ele>
        <time>2012-09-19T20:49:01Z</time>
      </trkpt>
      <trkpt lat="37.2918136" lon="-109.8161399">
        <ele>1475.2802734</ele>
        <time>2012-09-19T20:49:03Z</time>
      </trkpt>
      <trkpt lat="37.2917122" lon="-109.8159178">
        <ele>1476.7224121</ele>
        <time>2012-09-19T20:49:05Z</time>
      </trkpt>
      <trkpt lat="37.2916090" lon="-109.8156892">
        <ele>1476.7224121</ele>
        <time>2012-09-19T20:49:07Z</time>
      </trkpt>
      <trkpt lat="37.2915116" lon="-109.8154734">
        <ele>1477.6835938</ele>
        <time>2012-09-19T20:49:09Z</time>
      </trkpt>
      <trkpt lat="37.2914334" lon="-109.8152731">
        <ele>1480.5676270</ele>
        <time>2012-09-19T20:49:11Z</time>
      </trkpt>
      <trkpt lat="37.2913583" lon="-109.8150566">
        <ele>1479.6062012</ele>
        <time>2012-09-19T20:49:13Z</time>
      </trkpt>
      <trkpt lat="37.2912598" lon="-109.8148334">
        <ele>1480.0869141</ele>
        <time>2012-09-19T20:49:15Z</time>
      </trkpt>
      <trkpt lat="37.2911573" lon="-109.8146177">
        <ele>1480.5676270</ele>
        <time>2012-09-19T20:49:17Z</time>
      </trkpt>
      <trkpt lat="37.2910537" lon="-109.8143981">
        <ele>1479.6062012</ele>
        <time>2012-09-19T20:49:19Z</time>
      </trkpt>
      <trkpt lat="37.2909351" lon="-109.8141769">
        <ele>1480.0869141</ele>
        <time>2012-09-19T20:49:21Z</time>
      </trkpt>
      <trkpt lat="37.2908037" lon="-109.8139631">
        <ele>1480.0869141</ele>
        <time>2012-09-19T20:49:23Z</time>
      </trkpt>
      <trkpt lat="37.2906680" lon="-109.8137541">
        <ele>1480.5676270</ele>
        <time>2012-09-19T20:49:25Z</time>
      </trkpt>
      <trkpt lat="37.2905258" lon="-109.8135513">
        <ele>1481.0483398</ele>
        <time>2012-09-19T20:49:27Z</time>
      </trkpt>
      <trkpt lat="37.2903882" lon="-109.8133829">
        <ele>1480.5676270</ele>
        <time>2012-09-19T20:49:29Z</time>
      </trkpt>
      <trkpt lat="37.2902534" lon="-109.8132259">
        <ele>1479.1254883</ele>
        <time>2012-09-19T20:49:31Z</time>
      </trkpt>
      <trkpt lat="37.2901147" lon="-109.8130736">
        <ele>1477.2031250</ele>
        <time>2012-09-19T20:49:33Z</time>
      </trkpt>
      <trkpt lat="37.2899694" lon="-109.8129157">
        <ele>1478.6450195</ele>
        <time>2012-09-19T20:49:35Z</time>
      </trkpt>
      <trkpt lat="37.2898183" lon="-109.8127490">
        <ele>1478.1643066</ele>
        <time>2012-09-19T20:49:37Z</time>
      </trkpt>
      <trkpt lat="37.2896630" lon="-109.8125752">
        <ele>1478.6450195</ele>
        <time>2012-09-19T20:49:39Z</time>
      </trkpt>
      <trkpt lat="37.2895008" lon="-109.8124038">
        <ele>1478.6450195</ele>
        <time>2012-09-19T20:49:41Z</time>
      </trkpt>
      <trkpt lat="37.2893572" lon="-109.8122458">
        <ele>1480.0869141</ele>
        <time>2012-09-19T20:49:43Z</time>
      </trkpt>
      <trkpt lat="37.2892123" lon="-109.8120868">
        <ele>1478.6450195</ele>
        <time>2012-09-19T20:49:45Z</time>
      </trkpt>
      <trkpt lat="37.2889341" lon="-109.8118007">
        <ele>1480.5676270</ele>
        <time>2012-09-19T20:49:49Z</time>
      </trkpt>
      <trkpt lat="37.2887309" lon="-109.8116552">
        <ele>1483.4514160</ele>
        <time>2012-09-19T20:49:52Z</time>
      </trkpt>
      <trkpt lat="37.2885767" lon="-109.8116200">
        <ele>1482.4902344</ele>
        <time>2012-09-19T20:49:54Z</time>
      </trkpt>
      <trkpt lat="37.2884009" lon="-109.8116320">
        <ele>1482.9707031</ele>
        <time>2012-09-19T20:49:56Z</time>
      </trkpt>
      <trkpt lat="37.2882113" lon="-109.8116557">
        <ele>1482.4902344</ele>
        <time>2012-09-19T20:49:58Z</time>
      </trkpt>
      <trkpt lat="37.2880088" lon="-109.8116764">
        <ele>1482.0095215</ele>
        <time>2012-09-19T20:50:00Z</time>
      </trkpt>
      <trkpt lat="37.2877965" lon="-109.8116989">
        <ele>1482.0095215</ele>
        <time>2012-09-19T20:50:02Z</time>
      </trkpt>
      <trkpt lat="37.2875852" lon="-109.8117199">
        <ele>1481.0483398</ele>
        <time>2012-09-19T20:50:04Z</time>
      </trkpt>
      <trkpt lat="37.2873830" lon="-109.8117383">
        <ele>1481.0483398</ele>
        <time>2012-09-19T20:50:06Z</time>
      </trkpt>
      <trkpt lat="37.2871971" lon="-109.8117547">
        <ele>1482.4902344</ele>
        <time>2012-09-19T20:50:08Z</time>
      </trkpt>
      <trkpt lat="37.2870213" lon="-109.8117729">
        <ele>1480.5676270</ele>
        <time>2012-09-19T20:50:10Z</time>
      </trkpt>
      <trkpt lat="37.2868491" lon="-109.8117968">
        <ele>1480.0869141</ele>
        <time>2012-09-19T20:50:12Z</time>
      </trkpt>
      <trkpt lat="37.2866869" lon="-109.8118136">
        <ele>1480.0869141</ele>
        <time>2012-09-19T20:50:14Z</time>
      </trkpt>
      <trkpt lat="37.2865321" lon="-109.8117859">
        <ele>1479.6062012</ele>
        <time>2012-09-19T20:50:16Z</time>
      </trkpt>
      <trkpt lat="37.2863756" lon="-109.8117067">
        <ele>1479.1254883</ele>
        <time>2012-09-19T20:50:18Z</time>
      </trkpt>
      <trkpt lat="37.2862147" lon="-109.8115894">
        <ele>1478.1643066</ele>
        <time>2012-09-19T20:50:20Z</time>
      </trkpt>
      <trkpt lat="37.2860364" lon="-109.8114835">
        <ele>1477.2031250</ele>
        <time>2012-09-19T20:50:22Z</time>
      </trkpt>
      <trkpt lat="37.2858383" lon="-109.8114025">
        <ele>1476.2416992</ele>
        <time>2012-09-19T20:50:24Z</time>
      </trkpt>
      <trkpt lat="37.2856218" lon="-109.8113480">
        <ele>1476.2416992</ele>
        <time>2012-09-19T20:50:26Z</time>
      </trkpt>
      <trkpt lat="37.2853980" lon="-109.8113055">
        <ele>1474.3190918</ele>
        <time>2012-09-19T20:50:28Z</time>
      </trkpt>
      <trkpt lat="37.2851784" lon="-109.8112667">
        <ele>1474.7998047</ele>
        <time>2012-09-19T20:50:30Z</time>
      </trkpt>
      <trkpt lat="37.2849735" lon="-109.8112217">
        <ele>1474.3190918</ele>
        <time>2012-09-19T20:50:32Z</time>
      </trkpt>
      <trkpt lat="37.2847790" lon="-109.8111776">
        <ele>1473.8383789</ele>
        <time>2012-09-19T20:50:34Z</time>
      </trkpt>
      <trkpt lat="37.2845912" lon="-109.8111268">
        <ele>1473.8383789</ele>
        <time>2012-09-19T20:50:36Z</time>
      </trkpt>
      <trkpt lat="37.2844000" lon="-109.8110720">
        <ele>1472.8771973</ele>
        <time>2012-09-19T20:50:38Z</time>
      </trkpt>
      <trkpt lat="37.2842123" lon="-109.8109834">
        <ele>1472.3964844</ele>
        <time>2012-09-19T20:50:40Z</time>
      </trkpt>
      <trkpt lat="37.2840307" lon="-109.8108535">
        <ele>1471.9157715</ele>
        <time>2012-09-19T20:50:42Z</time>
      </trkpt>
      <trkpt lat="37.2838464" lon="-109.8106947">
        <ele>1470.9545898</ele>
        <time>2012-09-19T20:50:44Z</time>
      </trkpt>
      <trkpt lat="37.2836568" lon="-109.8105293">
        <ele>1469.9931641</ele>
        <time>2012-09-19T20:50:46Z</time>
      </trkpt>
      <trkpt lat="37.2834608" lon="-109.8103467">
        <ele>1469.9931641</ele>
        <time>2012-09-19T20:50:48Z</time>
      </trkpt>
      <trkpt lat="37.2832650" lon="-109.8101596">
        <ele>1469.5126953</ele>
        <time>2012-09-19T20:50:50Z</time>
      </trkpt>
      <trkpt lat="37.2830857" lon="-109.8099868">
        <ele>1469.5126953</ele>
        <time>2012-09-19T20:50:52Z</time>
      </trkpt>
      <trkpt lat="37.2829210" lon="-109.8098221">
        <ele>1469.5126953</ele>
        <time>2012-09-19T20:50:54Z</time>
      </trkpt>
      <trkpt lat="37.2827622" lon="-109.8096569">
        <ele>1469.5126953</ele>
        <time>2012-09-19T20:50:56Z</time>
      </trkpt>
      <trkpt lat="37.2826010" lon="-109.8095114">
        <ele>1468.5512695</ele>
        <time>2012-09-19T20:50:58Z</time>
      </trkpt>
      <trkpt lat="37.2824290" lon="-109.8093853">
        <ele>1466.1477051</ele>
        <time>2012-09-19T20:51:00Z</time>
      </trkpt>
      <trkpt lat="37.2822440" lon="-109.8092547">
        <ele>1466.1477051</ele>
        <time>2012-09-19T20:51:02Z</time>
      </trkpt>
      <trkpt lat="37.2820478" lon="-109.8091159">
        <ele>1464.7058105</ele>
        <time>2012-09-19T20:51:04Z</time>
      </trkpt>
      <trkpt lat="37.2818379" lon="-109.8089803">
        <ele>1465.1865234</ele>
        <time>2012-09-19T20:51:06Z</time>
      </trkpt>
      <trkpt lat="37.2816161" lon="-109.8088405">
        <ele>1465.6672363</ele>
        <time>2012-09-19T20:51:08Z</time>
      </trkpt>
      <trkpt lat="37.2813873" lon="-109.8086919">
        <ele>1465.1865234</ele>
        <time>2012-09-19T20:51:10Z</time>
      </trkpt>
      <trkpt lat="37.2811526" lon="-109.8085358">
        <ele>1464.2250977</ele>
        <time>2012-09-19T20:51:12Z</time>
      </trkpt>
      <trkpt lat="37.2809133" lon="-109.8083749">
        <ele>1464.2250977</ele>
        <time>2012-09-19T20:51:14Z</time>
      </trkpt>
      <trkpt lat="37.2806682" lon="-109.8082096">
        <ele>1464.7058105</ele>
        <time>2012-09-19T20:51:16Z</time>
      </trkpt>
      <trkpt lat="37.2804215" lon="-109.8080464">
        <ele>1464.7058105</ele>
        <time>2012-09-19T20:51:18Z</time>
      </trkpt>
      <trkpt lat="37.2801811" lon="-109.8078821">
        <ele>1464.2250977</ele>
        <time>2012-09-19T20:51:20Z</time>
      </trkpt>
      <trkpt lat="37.2799410" lon="-109.8077231">
        <ele>1466.6284180</ele>
        <time>2012-09-19T20:51:22Z</time>
      </trkpt>
      <trkpt lat="37.2797013" lon="-109.8075662">
        <ele>1467.5895996</ele>
        <time>2012-09-19T20:51:24Z</time>
      </trkpt>
      <trkpt lat="37.2794629" lon="-109.8074040">
        <ele>1468.0705566</ele>
        <time>2012-09-19T20:51:26Z</time>
      </trkpt>
      <trkpt lat="37.2792169" lon="-109.8072444">
        <ele>1466.6284180</ele>
        <time>2012-09-19T20:51:28Z</time>
      </trkpt>
      <trkpt lat="37.2789676" lon="-109.8070772">
        <ele>1468.0705566</ele>
        <time>2012-09-19T20:51:30Z</time>
      </trkpt>
      <trkpt lat="37.2787212" lon="-109.8069108">
        <ele>1468.0705566</ele>
        <time>2012-09-19T20:51:32Z</time>
      </trkpt>
      <trkpt lat="37.2784998" lon="-109.8067595">
        <ele>1469.0319824</ele>
        <time>2012-09-19T20:51:34Z</time>
      </trkpt>
      <trkpt lat="37.2782831" lon="-109.8066332">
        <ele>1469.0319824</ele>
        <time>2012-09-19T20:51:36Z</time>
      </trkpt>
      <trkpt lat="37.2780625" lon="-109.8065369">
        <ele>1469.0319824</ele>
        <time>2012-09-19T20:51:38Z</time>
      </trkpt>
      <trkpt lat="37.2778340" lon="-109.8064720">
        <ele>1469.0319824</ele>
        <time>2012-09-19T20:51:40Z</time>
      </trkpt>
      <trkpt lat="37.2775978" lon="-109.8064302">
        <ele>1468.5512695</ele>
        <time>2012-09-19T20:51:42Z</time>
      </trkpt>
      <trkpt lat="37.2773560" lon="-109.8063893">
        <ele>1469.5126953</ele>
        <time>2012-09-19T20:51:44Z</time>
      </trkpt>
      <trkpt lat="37.2771073" lon="-109.8063481">
        <ele>1469.0319824</ele>
        <time>2012-09-19T20:51:46Z</time>
      </trkpt>
      <trkpt lat="37.2768520" lon="-109.8063042">
        <ele>1469.0319824</ele>
        <time>2012-09-19T20:51:48Z</time>
      </trkpt>
      <trkpt lat="37.2765913" lon="-109.8062592">
        <ele>1469.0319824</ele>
        <time>2012-09-19T20:51:50Z</time>
      </trkpt>
      <trkpt lat="37.2763282" lon="-109.8062145">
        <ele>1469.0319824</ele>
        <time>2012-09-19T20:51:52Z</time>
      </trkpt>
      <trkpt lat="37.2760616" lon="-109.8061656">
        <ele>1468.5512695</ele>
        <time>2012-09-19T20:51:54Z</time>
      </trkpt>
      <trkpt lat="37.2757863" lon="-109.8061190">
        <ele>1467.5895996</ele>
        <time>2012-09-19T20:51:56Z</time>
      </trkpt>
      <trkpt lat="37.2755085" lon="-109.8060722">
        <ele>1469.0319824</ele>
        <time>2012-09-19T20:51:58Z</time>
      </trkpt>
      <trkpt lat="37.2752333" lon="-109.8060272">
        <ele>1467.5895996</ele>
        <time>2012-09-19T20:52:00Z</time>
      </trkpt>
      <trkpt lat="37.2749660" lon="-109.8059799">
        <ele>1467.5895996</ele>
        <time>2012-09-19T20:52:02Z</time>
      </trkpt>
      <trkpt lat="37.2747118" lon="-109.8059287">
        <ele>1467.1091309</ele>
        <time>2012-09-19T20:52:04Z</time>
      </trkpt>
      <trkpt lat="37.2744677" lon="-109.8058863">
        <ele>1466.6284180</ele>
        <time>2012-09-19T20:52:06Z</time>
      </trkpt>
      <trkpt lat="37.2742337" lon="-109.8058495">
        <ele>1466.6284180</ele>
        <time>2012-09-19T20:52:08Z</time>
      </trkpt>
      <trkpt lat="37.2740210" lon="-109.8058187">
        <ele>1465.1865234</ele>
        <time>2012-09-19T20:52:10Z</time>
      </trkpt>
      <trkpt lat="37.2738273" lon="-109.8057967">
        <ele>1467.1091309</ele>
        <time>2012-09-19T20:52:12Z</time>
      </trkpt>
      <trkpt lat="37.2736611" lon="-109.8057744">
        <ele>1465.1865234</ele>
        <time>2012-09-19T20:52:14Z</time>
      </trkpt>
      <trkpt lat="37.2735147" lon="-109.8057459">
        <ele>1467.1091309</ele>
        <time>2012-09-19T20:52:16Z</time>
      </trkpt>
      <trkpt lat="37.2733593" lon="-109.8057089">
        <ele>1465.6672363</ele>
        <time>2012-09-19T20:52:18Z</time>
      </trkpt>
      <trkpt lat="37.2731965" lon="-109.8056654">
        <ele>1465.6672363</ele>
        <time>2012-09-19T20:52:20Z</time>
      </trkpt>
      <trkpt lat="37.2730184" lon="-109.8056219">
        <ele>1465.1865234</ele>
        <time>2012-09-19T20:52:22Z</time>
      </trkpt>
      <trkpt lat="37.2728354" lon="-109.8055766">
        <ele>1465.6672363</ele>
        <time>2012-09-19T20:52:24Z</time>
      </trkpt>
      <trkpt lat="37.2726532" lon="-109.8055380">
        <ele>1465.6672363</ele>
        <time>2012-09-19T20:52:26Z</time>
      </trkpt>
      <trkpt lat="37.2724802" lon="-109.8054951">
        <ele>1464.2250977</ele>
        <time>2012-09-19T20:52:28Z</time>
      </trkpt>
      <trkpt lat="37.2723196" lon="-109.8054391">
        <ele>1466.6284180</ele>
        <time>2012-09-19T20:52:30Z</time>
      </trkpt>
      <trkpt lat="37.2721594" lon="-109.8053771">
        <ele>1467.5895996</ele>
        <time>2012-09-19T20:52:32Z</time>
      </trkpt>
      <trkpt lat="37.2720020" lon="-109.8053075">
        <ele>1466.6284180</ele>
        <time>2012-09-19T20:52:34Z</time>
      </trkpt>
      <trkpt lat="37.2718414" lon="-109.8052433">
        <ele>1465.6672363</ele>
        <time>2012-09-19T20:52:36Z</time>
      </trkpt>
      <trkpt lat="37.2716785" lon="-109.8052109">
        <ele>1465.6672363</ele>
        <time>2012-09-19T20:52:38Z</time>
      </trkpt>
      <trkpt lat="37.2715196" lon="-109.8052049">
        <ele>1466.6284180</ele>
        <time>2012-09-19T20:52:40Z</time>
      </trkpt>
      <trkpt lat="37.2713560" lon="-109.8052028">
        <ele>1466.6284180</ele>
        <time>2012-09-19T20:52:42Z</time>
      </trkpt>
      <trkpt lat="37.2711909" lon="-109.8052267">
        <ele>1467.5895996</ele>
        <time>2012-09-19T20:52:44Z</time>
      </trkpt>
      <trkpt lat="37.2710322" lon="-109.8052735">
        <ele>1466.1477051</ele>
        <time>2012-09-19T20:52:46Z</time>
      </trkpt>
      <trkpt lat="37.2708880" lon="-109.8053175">
        <ele>1466.6284180</ele>
        <time>2012-09-19T20:52:48Z</time>
      </trkpt>
      <trkpt lat="37.2707105" lon="-109.8054553">
        <ele>1467.5895996</ele>
        <time>2012-09-19T20:52:51Z</time>
      </trkpt>
      <trkpt lat="37.2705868" lon="-109.8055618">
        <ele>1466.1477051</ele>
        <time>2012-09-19T20:52:53Z</time>
      </trkpt>
      <trkpt lat="37.2704329" lon="-109.8056127">
        <ele>1464.2250977</ele>
        <time>2012-09-19T20:52:55Z</time>
      </trkpt>
      <trkpt lat="37.2702820" lon="-109.8056639">
        <ele>1463.7443848</ele>
        <time>2012-09-19T20:52:57Z</time>
      </trkpt>
      <trkpt lat="37.2701421" lon="-109.8057619">
        <ele>1462.7832031</ele>
        <time>2012-09-19T20:52:59Z</time>
      </trkpt>
      <trkpt lat="37.2700235" lon="-109.8058998">
        <ele>1464.2250977</ele>
        <time>2012-09-19T20:53:01Z</time>
      </trkpt>
      <trkpt lat="37.2699176" lon="-109.8060557">
        <ele>1462.7832031</ele>
        <time>2012-09-19T20:53:03Z</time>
      </trkpt>
      <trkpt lat="37.2697860" lon="-109.8061803">
        <ele>1462.7832031</ele>
        <time>2012-09-19T20:53:05Z</time>
      </trkpt>
      <trkpt lat="37.2696171" lon="-109.8062507">
        <ele>1463.7443848</ele>
        <time>2012-09-19T20:53:07Z</time>
      </trkpt>
      <trkpt lat="37.2694314" lon="-109.8062493">
        <ele>1462.3024902</ele>
        <time>2012-09-19T20:53:09Z</time>
      </trkpt>
      <trkpt lat="37.2692436" lon="-109.8062319">
        <ele>1461.8220215</ele>
        <time>2012-09-19T20:53:11Z</time>
      </trkpt>
      <trkpt lat="37.2690590" lon="-109.8062292">
        <ele>1461.8220215</ele>
        <time>2012-09-19T20:53:13Z</time>
      </trkpt>
      <trkpt lat="37.2688841" lon="-109.8062494">
        <ele>1462.3024902</ele>
        <time>2012-09-19T20:53:15Z</time>
      </trkpt>
      <trkpt lat="37.2687176" lon="-109.8062168">
        <ele>1461.3413086</ele>
        <time>2012-09-19T20:53:17Z</time>
      </trkpt>
      <trkpt lat="37.2685673" lon="-109.8061090">
        <ele>1461.3413086</ele>
        <time>2012-09-19T20:53:19Z</time>
      </trkpt>
      <trkpt lat="37.2684384" lon="-109.8059899">
        <ele>1461.8220215</ele>
        <time>2012-09-19T20:53:21Z</time>
      </trkpt>
      <trkpt lat="37.2682930" lon="-109.8058991">
        <ele>1462.3024902</ele>
        <time>2012-09-19T20:53:23Z</time>
      </trkpt>
      <trkpt lat="37.2681232" lon="-109.8058431">
        <ele>1462.3024902</ele>
        <time>2012-09-19T20:53:25Z</time>
      </trkpt>
      <trkpt lat="37.2679386" lon="-109.8058137">
        <ele>1461.8220215</ele>
        <time>2012-09-19T20:53:27Z</time>
      </trkpt>
      <trkpt lat="37.2677434" lon="-109.8058030">
        <ele>1461.8220215</ele>
        <time>2012-09-19T20:53:29Z</time>
      </trkpt>
      <trkpt lat="37.2675507" lon="-109.8058298">
        <ele>1461.3413086</ele>
        <time>2012-09-19T20:53:31Z</time>
      </trkpt>
      <trkpt lat="37.2673807" lon="-109.8058992">
        <ele>1460.3798828</ele>
        <time>2012-09-19T20:53:33Z</time>
      </trkpt>
      <trkpt lat="37.2672372" lon="-109.8060008">
        <ele>1459.8991699</ele>
        <time>2012-09-19T20:53:35Z</time>
      </trkpt>
      <trkpt lat="37.2671321" lon="-109.8062028">
        <ele>1459.8991699</ele>
        <time>2012-09-19T20:53:38Z</time>
      </trkpt>
      <trkpt lat="37.2671402" lon="-109.8064525">
        <ele>1460.3798828</ele>
        <time>2012-09-19T20:53:41Z</time>
      </trkpt>
      <trkpt lat="37.2671617" lon="-109.8066369">
        <ele>1459.4187012</ele>
        <time>2012-09-19T20:53:43Z</time>
      </trkpt>
      <trkpt lat="37.2671761" lon="-109.8068294">
        <ele>1459.8991699</ele>
        <time>2012-09-19T20:53:45Z</time>
      </trkpt>
      <trkpt lat="37.2671653" lon="-109.8070221">
        <ele>1458.9379883</ele>
        <time>2012-09-19T20:53:47Z</time>
      </trkpt>
      <trkpt lat="37.2671361" lon="-109.8072078">
        <ele>1457.0153809</ele>
        <time>2012-09-19T20:53:49Z</time>
      </trkpt>
      <trkpt lat="37.2670757" lon="-109.8074684">
        <ele>1457.4960938</ele>
        <time>2012-09-19T20:53:52Z</time>
      </trkpt>
      <trkpt lat="37.2670140" lon="-109.8077240">
        <ele>1456.0539551</ele>
        <time>2012-09-19T20:53:55Z</time>
      </trkpt>
      <trkpt lat="37.2669688" lon="-109.8079732">
        <ele>1456.0539551</ele>
        <time>2012-09-19T20:53:58Z</time>
      </trkpt>
      <trkpt lat="37.2669701" lon="-109.8082318">
        <ele>1456.5346680</ele>
        <time>2012-09-19T20:54:01Z</time>
      </trkpt>
      <trkpt lat="37.2669882" lon="-109.8084274">
        <ele>1455.0927734</ele>
        <time>2012-09-19T20:54:03Z</time>
      </trkpt>
      <trkpt lat="37.2670038" lon="-109.8086203">
        <ele>1454.1315918</ele>
        <time>2012-09-19T20:54:05Z</time>
      </trkpt>
      <trkpt lat="37.2670107" lon="-109.8088182">
        <ele>1452.2087402</ele>
        <time>2012-09-19T20:54:07Z</time>
      </trkpt>
      <trkpt lat="37.2670027" lon="-109.8090216">
        <ele>1451.7280273</ele>
        <time>2012-09-19T20:54:09Z</time>
      </trkpt>
      <trkpt lat="37.2669624" lon="-109.8092167">
        <ele>1450.7666016</ele>
        <time>2012-09-19T20:54:11Z</time>
      </trkpt>
      <trkpt lat="37.2668794" lon="-109.8094009">
        <ele>1449.8054199</ele>
        <time>2012-09-19T20:54:13Z</time>
      </trkpt>
      <trkpt lat="37.2667567" lon="-109.8095682">
        <ele>1448.3632813</ele>
        <time>2012-09-19T20:54:15Z</time>
      </trkpt>
      <trkpt lat="37.2666157" lon="-109.8097325">
        <ele>1448.8439941</ele>
        <time>2012-09-19T20:54:17Z</time>
      </trkpt>
      <trkpt lat="37.2664684" lon="-109.8099101">
        <ele>1447.8828125</ele>
        <time>2012-09-19T20:54:19Z</time>
      </trkpt>
      <trkpt lat="37.2663216" lon="-109.8100847">
        <ele>1447.4020996</ele>
        <time>2012-09-19T20:54:21Z</time>
      </trkpt>
      <trkpt lat="37.2661713" lon="-109.8102401">
        <ele>1447.4020996</ele>
        <time>2012-09-19T20:54:23Z</time>
      </trkpt>
      <trkpt lat="37.2660029" lon="-109.8103544">
        <ele>1447.4020996</ele>
        <time>2012-09-19T20:54:25Z</time>
      </trkpt>
      <trkpt lat="37.2658144" lon="-109.8104397">
        <ele>1445.4794922</ele>
        <time>2012-09-19T20:54:27Z</time>
      </trkpt>
      <trkpt lat="37.2656052" lon="-109.8105305">
        <ele>1443.0761719</ele>
        <time>2012-09-19T20:54:29Z</time>
      </trkpt>
      <trkpt lat="37.2653951" lon="-109.8106285">
        <ele>1442.5957031</ele>
        <time>2012-09-19T20:54:31Z</time>
      </trkpt>
      <trkpt lat="37.2651871" lon="-109.8107317">
        <ele>1442.1149902</ele>
        <time>2012-09-19T20:54:33Z</time>
      </trkpt>
      <trkpt lat="37.2649792" lon="-109.8108346">
        <ele>1441.1535645</ele>
        <time>2012-09-19T20:54:35Z</time>
      </trkpt>
      <trkpt lat="37.2647774" lon="-109.8109296">
        <ele>1441.1535645</ele>
        <time>2012-09-19T20:54:37Z</time>
      </trkpt>
      <trkpt lat="37.2645679" lon="-109.8110286">
        <ele>1440.1923828</ele>
        <time>2012-09-19T20:54:39Z</time>
      </trkpt>
      <trkpt lat="37.2643617" lon="-109.8111306">
        <ele>1440.1923828</ele>
        <time>2012-09-19T20:54:41Z</time>
      </trkpt>
      <trkpt lat="37.2641617" lon="-109.8112295">
        <ele>1439.7116699</ele>
        <time>2012-09-19T20:54:43Z</time>
      </trkpt>
      <trkpt lat="37.2639654" lon="-109.8113215">
        <ele>1439.7116699</ele>
        <time>2012-09-19T20:54:45Z</time>
      </trkpt>
      <trkpt lat="37.2637811" lon="-109.8114000">
        <ele>1438.7504883</ele>
        <time>2012-09-19T20:54:47Z</time>
      </trkpt>
      <trkpt lat="37.2636081" lon="-109.8114532">
        <ele>1438.7504883</ele>
        <time>2012-09-19T20:54:49Z</time>
      </trkpt>
      <trkpt lat="37.2634484" lon="-109.8114793">
        <ele>1437.7890625</ele>
        <time>2012-09-19T20:54:51Z</time>
      </trkpt>
      <trkpt lat="37.2632443" lon="-109.8115379">
        <ele>1437.7890625</ele>
        <time>2012-09-19T20:54:54Z</time>
      </trkpt>
      <trkpt lat="37.2630725" lon="-109.8116538">
        <ele>1435.8662109</ele>
        <time>2012-09-19T20:54:57Z</time>
      </trkpt>
      <trkpt lat="37.2629496" lon="-109.8117681">
        <ele>1432.9821777</ele>
        <time>2012-09-19T20:54:59Z</time>
      </trkpt>
      <trkpt lat="37.2628086" lon="-109.8118849">
        <ele>1431.5402832</ele>
        <time>2012-09-19T20:55:01Z</time>
      </trkpt>
      <trkpt lat="37.2626613" lon="-109.8119895">
        <ele>1431.5402832</ele>
        <time>2012-09-19T20:55:03Z</time>
      </trkpt>
      <trkpt lat="37.2625237" lon="-109.8120625">
        <ele>1435.3854980</ele>
        <time>2012-09-19T20:55:05Z</time>
      </trkpt>
      <trkpt lat="37.2623172" lon="-109.8120799">
        <ele>1434.9050293</ele>
        <time>2012-09-19T20:55:08Z</time>
      </trkpt>
      <trkpt lat="37.2621515" lon="-109.8121111">
        <ele>1433.9436035</ele>
        <time>2012-09-19T20:55:10Z</time>
      </trkpt>
      <trkpt lat="37.2620069" lon="-109.8121987">
        <ele>1434.4243164</ele>
        <time>2012-09-19T20:55:12Z</time>
      </trkpt>
      <trkpt lat="37.2618893" lon="-109.8123380">
        <ele>1432.9821777</ele>
        <time>2012-09-19T20:55:14Z</time>
      </trkpt>
      <trkpt lat="37.2617874" lon="-109.8125220">
        <ele>1432.9821777</ele>
        <time>2012-09-19T20:55:16Z</time>
      </trkpt>
      <trkpt lat="37.2616975" lon="-109.8127284">
        <ele>1432.9821777</ele>
        <time>2012-09-19T20:55:18Z</time>
      </trkpt>
      <trkpt lat="37.2616092" lon="-109.8129097">
        <ele>1433.4628906</ele>
        <time>2012-09-19T20:55:20Z</time>
      </trkpt>
      <trkpt lat="37.2615183" lon="-109.8130627">
        <ele>1434.4243164</ele>
        <time>2012-09-19T20:55:22Z</time>
      </trkpt>
      <trkpt lat="37.2613789" lon="-109.8132632">
        <ele>1434.4243164</ele>
        <time>2012-09-19T20:55:25Z</time>
      </trkpt>
      <trkpt lat="37.2611978" lon="-109.8134079">
        <ele>1434.9050293</ele>
        <time>2012-09-19T20:55:28Z</time>
      </trkpt>
      <trkpt lat="37.2610403" lon="-109.8134711">
        <ele>1434.4243164</ele>
        <time>2012-09-19T20:55:30Z</time>
      </trkpt>
      <trkpt lat="37.2608648" lon="-109.8135180">
        <ele>1432.5017090</ele>
        <time>2012-09-19T20:55:32Z</time>
      </trkpt>
      <trkpt lat="37.2606735" lon="-109.8135646">
        <ele>1431.5402832</ele>
        <time>2012-09-19T20:55:34Z</time>
      </trkpt>
      <trkpt lat="37.2604716" lon="-109.8136150">
        <ele>1431.5402832</ele>
        <time>2012-09-19T20:55:36Z</time>
      </trkpt>
      <trkpt lat="37.2602688" lon="-109.8136640">
        <ele>1431.5402832</ele>
        <time>2012-09-19T20:55:38Z</time>
      </trkpt>
      <trkpt lat="37.2600711" lon="-109.8137088">
        <ele>1431.0598145</ele>
        <time>2012-09-19T20:55:40Z</time>
      </trkpt>
      <trkpt lat="37.2598779" lon="-109.8137572">
        <ele>1431.0598145</ele>
        <time>2012-09-19T20:55:42Z</time>
      </trkpt>
      <trkpt lat="37.2596832" lon="-109.8138118">
        <ele>1430.5791016</ele>
        <time>2012-09-19T20:55:44Z</time>
      </trkpt>
      <trkpt lat="37.2594874" lon="-109.8138836">
        <ele>1429.6176758</ele>
        <time>2012-09-19T20:55:46Z</time>
      </trkpt>
      <trkpt lat="37.2592944" lon="-109.8139855">
        <ele>1429.1369629</ele>
        <time>2012-09-19T20:55:48Z</time>
      </trkpt>
      <trkpt lat="37.2591005" lon="-109.8141044">
        <ele>1428.1757813</ele>
        <time>2012-09-19T20:55:50Z</time>
      </trkpt>
      <trkpt lat="37.2589044" lon="-109.8142324">
        <ele>1427.2145996</ele>
        <time>2012-09-19T20:55:52Z</time>
      </trkpt>
      <trkpt lat="37.2587030" lon="-109.8143650">
        <ele>1426.2531738</ele>
        <time>2012-09-19T20:55:54Z</time>
      </trkpt>
      <trkpt lat="37.2585021" lon="-109.8144946">
        <ele>1426.2531738</ele>
        <time>2012-09-19T20:55:56Z</time>
      </trkpt>
      <trkpt lat="37.2582980" lon="-109.8146189">
        <ele>1425.2917480</ele>
        <time>2012-09-19T20:55:58Z</time>
      </trkpt>
      <trkpt lat="37.2580908" lon="-109.8147440">
        <ele>1424.3305664</ele>
        <time>2012-09-19T20:56:00Z</time>
      </trkpt>
      <trkpt lat="37.2578846" lon="-109.8148699">
        <ele>1423.3693848</ele>
        <time>2012-09-19T20:56:02Z</time>
      </trkpt>
      <trkpt lat="37.2576917" lon="-109.8149932">
        <ele>1422.8886719</ele>
        <time>2012-09-19T20:56:04Z</time>
      </trkpt>
      <trkpt lat="37.2575170" lon="-109.8151144">
        <ele>1422.4079590</ele>
        <time>2012-09-19T20:56:06Z</time>
      </trkpt>
      <trkpt lat="37.2573612" lon="-109.8152181">
        <ele>1422.8886719</ele>
        <time>2012-09-19T20:56:08Z</time>
      </trkpt>
      <trkpt lat="37.2572167" lon="-109.8152975">
        <ele>1424.3305664</ele>
        <time>2012-09-19T20:56:10Z</time>
      </trkpt>
      <trkpt lat="37.2570744" lon="-109.8153394">
        <ele>1425.7724609</ele>
        <time>2012-09-19T20:56:12Z</time>
      </trkpt>
      <trkpt lat="37.2568593" lon="-109.8153442">
        <ele>1425.7724609</ele>
        <time>2012-09-19T20:56:15Z</time>
      </trkpt>
      <trkpt lat="37.2566931" lon="-109.8153315">
        <ele>1423.3693848</ele>
        <time>2012-09-19T20:56:17Z</time>
      </trkpt>
      <trkpt lat="37.2565011" lon="-109.8152931">
        <ele>1422.4079590</ele>
        <time>2012-09-19T20:56:19Z</time>
      </trkpt>
      <trkpt lat="37.2562926" lon="-109.8152502">
        <ele>1420.9660645</ele>
        <time>2012-09-19T20:56:21Z</time>
      </trkpt>
      <trkpt lat="37.2560776" lon="-109.8152224">
        <ele>1419.5239258</ele>
        <time>2012-09-19T20:56:23Z</time>
      </trkpt>
      <trkpt lat="37.2558581" lon="-109.8152059">
        <ele>1418.0817871</ele>
        <time>2012-09-19T20:56:25Z</time>
      </trkpt>
      <trkpt lat="37.2556463" lon="-109.8152042">
        <ele>1417.6010742</ele>
        <time>2012-09-19T20:56:27Z</time>
      </trkpt>
      <trkpt lat="37.2554448" lon="-109.8152051">
        <ele>1417.6010742</ele>
        <time>2012-09-19T20:56:29Z</time>
      </trkpt>
      <trkpt lat="37.2552537" lon="-109.8152222">
        <ele>1417.6010742</ele>
        <time>2012-09-19T20:56:31Z</time>
      </trkpt>
      <trkpt lat="37.2550713" lon="-109.8152709">
        <ele>1417.6010742</ele>
        <time>2012-09-19T20:56:33Z</time>
      </trkpt>
      <trkpt lat="37.2548977" lon="-109.8153656">
        <ele>1416.1591797</ele>
        <time>2012-09-19T20:56:35Z</time>
      </trkpt>
      <trkpt lat="37.2547301" lon="-109.8154902">
        <ele>1416.1591797</ele>
        <time>2012-09-19T20:56:37Z</time>
      </trkpt>
      <trkpt lat="37.2545658" lon="-109.8156347">
        <ele>1415.6787109</ele>
        <time>2012-09-19T20:56:39Z</time>
      </trkpt>
      <trkpt lat="37.2543985" lon="-109.8157781">
        <ele>1414.7172852</ele>
        <time>2012-09-19T20:56:41Z</time>
      </trkpt>
      <trkpt lat="37.2542151" lon="-109.8158963">
        <ele>1414.2365723</ele>
        <time>2012-09-19T20:56:43Z</time>
      </trkpt>
      <trkpt lat="37.2540099" lon="-109.8159863">
        <ele>1413.7558594</ele>
        <time>2012-09-19T20:56:45Z</time>
      </trkpt>
      <trkpt lat="37.2537871" lon="-109.8160378">
        <ele>1413.2753906</ele>
        <time>2012-09-19T20:56:47Z</time>
      </trkpt>
      <trkpt lat="37.2535546" lon="-109.8160655">
        <ele>1412.7946777</ele>
        <time>2012-09-19T20:56:49Z</time>
      </trkpt>
      <trkpt lat="37.2533249" lon="-109.8160885">
        <ele>1411.8334961</ele>
        <time>2012-09-19T20:56:51Z</time>
      </trkpt>
      <trkpt lat="37.2530991" lon="-109.8160901">
        <ele>1410.8720703</ele>
        <time>2012-09-19T20:56:53Z</time>
      </trkpt>
      <trkpt lat="37.2528745" lon="-109.8160767">
        <ele>1410.3913574</ele>
        <time>2012-09-19T20:56:55Z</time>
      </trkpt>
      <trkpt lat="37.2526548" lon="-109.8160494">
        <ele>1409.4301758</ele>
        <time>2012-09-19T20:56:57Z</time>
      </trkpt>
      <trkpt lat="37.2524394" lon="-109.8160087">
        <ele>1409.4301758</ele>
        <time>2012-09-19T20:56:59Z</time>
      </trkpt>
      <trkpt lat="37.2522210" lon="-109.8159627">
        <ele>1408.9494629</ele>
        <time>2012-09-19T20:57:01Z</time>
      </trkpt>
      <trkpt lat="37.2520078" lon="-109.8159005">
        <ele>1408.9494629</ele>
        <time>2012-09-19T20:57:03Z</time>
      </trkpt>
      <trkpt lat="37.2517975" lon="-109.8158358">
        <ele>1408.9494629</ele>
        <time>2012-09-19T20:57:05Z</time>
      </trkpt>
      <trkpt lat="37.2515856" lon="-109.8157682">
        <ele>1408.4687500</ele>
        <time>2012-09-19T20:57:07Z</time>
      </trkpt>
      <trkpt lat="37.2513711" lon="-109.8157006">
        <ele>1408.4687500</ele>
        <time>2012-09-19T20:57:09Z</time>
      </trkpt>
      <trkpt lat="37.2511530" lon="-109.8156352">
        <ele>1408.4687500</ele>
        <time>2012-09-19T20:57:11Z</time>
      </trkpt>
      <trkpt lat="37.2509301" lon="-109.8155687">
        <ele>1408.4687500</ele>
        <time>2012-09-19T20:57:13Z</time>
      </trkpt>
      <trkpt lat="37.2507290" lon="-109.8155062">
        <ele>1407.9882813</ele>
        <time>2012-09-19T20:57:15Z</time>
      </trkpt>
      <trkpt lat="37.2505600" lon="-109.8154518">
        <ele>1408.4687500</ele>
        <time>2012-09-19T20:57:17Z</time>
      </trkpt>
      <trkpt lat="37.2503759" lon="-109.8153995">
        <ele>1404.1430664</ele>
        <time>2012-09-19T20:57:19Z</time>
      </trkpt>
      <trkpt lat="37.2501633" lon="-109.8153519">
        <ele>1402.7006836</ele>
        <time>2012-09-19T20:57:21Z</time>
      </trkpt>
      <trkpt lat="37.2499591" lon="-109.8153032">
        <ele>1405.1042480</ele>
        <time>2012-09-19T20:57:23Z</time>
      </trkpt>
      <trkpt lat="37.2497685" lon="-109.8152629">
        <ele>1407.9882813</ele>
        <time>2012-09-19T20:57:25Z</time>
      </trkpt>
      <trkpt lat="37.2495659" lon="-109.8152430">
        <ele>1407.9882813</ele>
        <time>2012-09-19T20:57:27Z</time>
      </trkpt>
      <trkpt lat="37.2493435" lon="-109.8152339">
        <ele>1405.5849609</ele>
        <time>2012-09-19T20:57:29Z</time>
      </trkpt>
      <trkpt lat="37.2491052" lon="-109.8152395">
        <ele>1403.6621094</ele>
        <time>2012-09-19T20:57:31Z</time>
      </trkpt>
      <trkpt lat="37.2488672" lon="-109.8152778">
        <ele>1402.7006836</ele>
        <time>2012-09-19T20:57:33Z</time>
      </trkpt>
      <trkpt lat="37.2486352" lon="-109.8153353">
        <ele>1403.1813965</ele>
        <time>2012-09-19T20:57:35Z</time>
      </trkpt>
      <trkpt lat="37.2484012" lon="-109.8153939">
        <ele>1402.2199707</ele>
        <time>2012-09-19T20:57:37Z</time>
      </trkpt>
      <trkpt lat="37.2481626" lon="-109.8154533">
        <ele>1401.7395020</ele>
        <time>2012-09-19T20:57:39Z</time>
      </trkpt>
      <trkpt lat="37.2479226" lon="-109.8155119">
        <ele>1401.7395020</ele>
        <time>2012-09-19T20:57:41Z</time>
      </trkpt>
      <trkpt lat="37.2476864" lon="-109.8155663">
        <ele>1400.7780762</ele>
        <time>2012-09-19T20:57:43Z</time>
      </trkpt>
      <trkpt lat="37.2474545" lon="-109.8156264">
        <ele>1399.8168945</ele>
        <time>2012-09-19T20:57:45Z</time>
      </trkpt>
      <trkpt lat="37.2472321" lon="-109.8156899">
        <ele>1399.3361816</ele>
        <time>2012-09-19T20:57:47Z</time>
      </trkpt>
      <trkpt lat="37.2470068" lon="-109.8157487">
        <ele>1398.3747559</ele>
        <time>2012-09-19T20:57:49Z</time>
      </trkpt>
      <trkpt lat="37.2467845" lon="-109.8158000">
        <ele>1397.8942871</ele>
        <time>2012-09-19T20:57:51Z</time>
      </trkpt>
      <trkpt lat="37.2465713" lon="-109.8158455">
        <ele>1395.4909668</ele>
        <time>2012-09-19T20:57:53Z</time>
      </trkpt>
      <trkpt lat="37.2463662" lon="-109.8158750">
        <ele>1397.4135742</ele>
        <time>2012-09-19T20:57:55Z</time>
      </trkpt>
      <trkpt lat="37.2461595" lon="-109.8158609">
        <ele>1397.4135742</ele>
        <time>2012-09-19T20:57:57Z</time>
      </trkpt>
      <trkpt lat="37.2459661" lon="-109.8158047">
        <ele>1397.4135742</ele>
        <time>2012-09-19T20:57:59Z</time>
      </trkpt>
      <trkpt lat="37.2457832" lon="-109.8157225">
        <ele>1397.4135742</ele>
        <time>2012-09-19T20:58:01Z</time>
      </trkpt>
      <trkpt lat="37.2455977" lon="-109.8156457">
        <ele>1395.0102539</ele>
        <time>2012-09-19T20:58:03Z</time>
      </trkpt>
      <trkpt lat="37.2454162" lon="-109.8155680">
        <ele>1395.0102539</ele>
        <time>2012-09-19T20:58:05Z</time>
      </trkpt>
      <trkpt lat="37.2452447" lon="-109.8154742">
        <ele>1394.5295410</ele>
        <time>2012-09-19T20:58:07Z</time>
      </trkpt>
      <trkpt lat="37.2450918" lon="-109.8153460">
        <ele>1395.0102539</ele>
        <time>2012-09-19T20:58:09Z</time>
      </trkpt>
      <trkpt lat="37.2449541" lon="-109.8152011">
        <ele>1394.5295410</ele>
        <time>2012-09-19T20:58:11Z</time>
      </trkpt>
      <trkpt lat="37.2448158" lon="-109.8150820">
        <ele>1394.5295410</ele>
        <time>2012-09-19T20:58:13Z</time>
      </trkpt>
      <trkpt lat="37.2446660" lon="-109.8149984">
        <ele>1395.0102539</ele>
        <time>2012-09-19T20:58:15Z</time>
      </trkpt>
      <trkpt lat="37.2445330" lon="-109.8148972">
        <ele>1395.0102539</ele>
        <time>2012-09-19T20:58:17Z</time>
      </trkpt>
      <trkpt lat="37.2443687" lon="-109.8147713">
        <ele>1395.0102539</ele>
        <time>2012-09-19T20:58:20Z</time>
      </trkpt>
      <trkpt lat="37.2442392" lon="-109.8146446">
        <ele>1395.4909668</ele>
        <time>2012-09-19T20:58:23Z</time>
      </trkpt>
      <trkpt lat="37.2441677" lon="-109.8144589">
        <ele>1395.0102539</ele>
        <time>2012-09-19T20:58:26Z</time>
      </trkpt>
      <trkpt lat="37.2440434" lon="-109.8143551">
        <ele>1395.0102539</ele>
        <time>2012-09-19T20:58:29Z</time>
      </trkpt>
      <trkpt lat="37.2438569" lon="-109.8143740">
        <ele>1395.0102539</ele>
        <time>2012-09-19T20:58:32Z</time>
      </trkpt>
      <trkpt lat="37.2436756" lon="-109.8144470">
        <ele>1397.4135742</ele>
        <time>2012-09-19T20:58:35Z</time>
      </trkpt>
      <trkpt lat="37.2435376" lon="-109.8145088">
        <ele>1397.8942871</ele>
        <time>2012-09-19T20:58:37Z</time>
      </trkpt>
      <trkpt lat="37.2433719" lon="-109.8145912">
        <ele>1395.9716797</ele>
        <time>2012-09-19T20:58:39Z</time>
      </trkpt>
      <trkpt lat="37.2431888" lon="-109.8146904">
        <ele>1395.0102539</ele>
        <time>2012-09-19T20:58:41Z</time>
      </trkpt>
      <trkpt lat="37.2429986" lon="-109.8147997">
        <ele>1395.0102539</ele>
        <time>2012-09-19T20:58:43Z</time>
      </trkpt>
      <trkpt lat="37.2428116" lon="-109.8149327">
        <ele>1394.0490723</ele>
        <time>2012-09-19T20:58:45Z</time>
      </trkpt>
      <trkpt lat="37.2426246" lon="-109.8150809">
        <ele>1393.5683594</ele>
        <time>2012-09-19T20:58:47Z</time>
      </trkpt>
      <trkpt lat="37.2424391" lon="-109.8152400">
        <ele>1393.0876465</ele>
        <time>2012-09-19T20:58:49Z</time>
      </trkpt>
      <trkpt lat="37.2422552" lon="-109.8154010">
        <ele>1393.0876465</ele>
        <time>2012-09-19T20:58:51Z</time>
      </trkpt>
      <trkpt lat="37.2420755" lon="-109.8155542">
        <ele>1392.1264648</ele>
        <time>2012-09-19T20:58:53Z</time>
      </trkpt>
      <trkpt lat="37.2418971" lon="-109.8156798">
        <ele>1391.1650391</ele>
        <time>2012-09-19T20:58:55Z</time>
      </trkpt>
      <trkpt lat="37.2417134" lon="-109.8157585">
        <ele>1391.6457520</ele>
        <time>2012-09-19T20:58:57Z</time>
      </trkpt>
      <trkpt lat="37.2415114" lon="-109.8158028">
        <ele>1391.1650391</ele>
        <time>2012-09-19T20:58:59Z</time>
      </trkpt>
      <trkpt lat="37.2413078" lon="-109.8158296">
        <ele>1390.6843262</ele>
        <time>2012-09-19T20:59:01Z</time>
      </trkpt>
      <trkpt lat="37.2411125" lon="-109.8158552">
        <ele>1390.2038574</ele>
        <time>2012-09-19T20:59:03Z</time>
      </trkpt>
      <trkpt lat="37.2409281" lon="-109.8158772">
        <ele>1391.6457520</ele>
        <time>2012-09-19T20:59:05Z</time>
      </trkpt>
      <trkpt lat="37.2407383" lon="-109.8158994">
        <ele>1391.1650391</ele>
        <time>2012-09-19T20:59:07Z</time>
      </trkpt>
      <trkpt lat="37.2405411" lon="-109.8159275">
        <ele>1390.6843262</ele>
        <time>2012-09-19T20:59:09Z</time>
      </trkpt>
      <trkpt lat="37.2403513" lon="-109.8159541">
        <ele>1389.7231445</ele>
        <time>2012-09-19T20:59:11Z</time>
      </trkpt>
      <trkpt lat="37.2401830" lon="-109.8159698">
        <ele>1389.2424316</ele>
        <time>2012-09-19T20:59:13Z</time>
      </trkpt>
      <trkpt lat="37.2400323" lon="-109.8159702">
        <ele>1388.2812500</ele>
        <time>2012-09-19T20:59:15Z</time>
      </trkpt>
      <trkpt lat="37.2398842" lon="-109.8159423">
        <ele>1387.8002930</ele>
        <time>2012-09-19T20:59:17Z</time>
      </trkpt>
      <trkpt lat="37.2397334" lon="-109.8158817">
        <ele>1386.8388672</ele>
        <time>2012-09-19T20:59:19Z</time>
      </trkpt>
      <trkpt lat="37.2395843" lon="-109.8157813">
        <ele>1386.3583984</ele>
        <time>2012-09-19T20:59:21Z</time>
      </trkpt>
      <trkpt lat="37.2394342" lon="-109.8156687">
        <ele>1385.8776855</ele>
        <time>2012-09-19T20:59:23Z</time>
      </trkpt>
      <trkpt lat="37.2392872" lon="-109.8155502">
        <ele>1385.3969727</ele>
        <time>2012-09-19T20:59:25Z</time>
      </trkpt>
      <trkpt lat="37.2391549" lon="-109.8154397">
        <ele>1385.8776855</ele>
        <time>2012-09-19T20:59:27Z</time>
      </trkpt>
      <trkpt lat="37.2390001" lon="-109.8153058">
        <ele>1386.8388672</ele>
        <time>2012-09-19T20:59:30Z</time>
      </trkpt>
      <trkpt lat="37.2388602" lon="-109.8152022">
        <ele>1386.3583984</ele>
        <time>2012-09-19T20:59:33Z</time>
      </trkpt>
      <trkpt lat="37.2387305" lon="-109.8150659">
        <ele>1386.3583984</ele>
        <time>2012-09-19T20:59:36Z</time>
      </trkpt>
      <trkpt lat="37.2386551" lon="-109.8148806">
        <ele>1386.8388672</ele>
        <time>2012-09-19T20:59:39Z</time>
      </trkpt>
      <trkpt lat="37.2385707" lon="-109.8147147">
        <ele>1387.8002930</ele>
        <time>2012-09-19T20:59:42Z</time>
      </trkpt>
      <trkpt lat="37.2384193" lon="-109.8145946">
        <ele>1387.8002930</ele>
        <time>2012-09-19T20:59:46Z</time>
      </trkpt>
      <trkpt lat="37.2382415" lon="-109.8145726">
        <ele>1386.8388672</ele>
        <time>2012-09-19T20:59:50Z</time>
      </trkpt>
      <trkpt lat="37.2380604" lon="-109.8145696">
        <ele>1384.4357910</ele>
        <time>2012-09-19T20:59:54Z</time>
      </trkpt>
      <trkpt lat="37.2379030" lon="-109.8145898">
        <ele>1380.5905762</ele>
        <time>2012-09-19T20:59:57Z</time>
      </trkpt>
      <trkpt lat="37.2377158" lon="-109.8146391">
        <ele>1380.1098633</ele>
        <time>2012-09-19T21:00:00Z</time>
      </trkpt>
      <trkpt lat="37.2375541" lon="-109.8146767">
        <ele>1380.1098633</ele>
        <time>2012-09-19T21:00:03Z</time>
      </trkpt>
      <trkpt lat="37.2374020" lon="-109.8147204">
        <ele>1380.1098633</ele>
        <time>2012-09-19T21:00:06Z</time>
      </trkpt>
      <trkpt lat="37.2372039" lon="-109.8148028">
        <ele>1377.2260742</ele>
        <time>2012-09-19T21:00:09Z</time>
      </trkpt>
      <trkpt lat="37.2370525" lon="-109.8148818">
        <ele>1375.3032227</ele>
        <time>2012-09-19T21:00:11Z</time>
      </trkpt>
      <trkpt lat="37.2368964" lon="-109.8149650">
        <ele>1373.8613281</ele>
        <time>2012-09-19T21:00:13Z</time>
      </trkpt>
      <trkpt lat="37.2367393" lon="-109.8150554">
        <ele>1372.9001465</ele>
        <time>2012-09-19T21:00:15Z</time>
      </trkpt>
      <trkpt lat="37.2365867" lon="-109.8151391">
        <ele>1371.4577637</ele>
        <time>2012-09-19T21:00:17Z</time>
      </trkpt>
      <trkpt lat="37.2364464" lon="-109.8152015">
        <ele>1371.4577637</ele>
        <time>2012-09-19T21:00:19Z</time>
      </trkpt>
      <trkpt lat="37.2362427" lon="-109.8152597">
        <ele>1371.4577637</ele>
        <time>2012-09-19T21:00:22Z</time>
      </trkpt>
      <trkpt lat="37.2360573" lon="-109.8152651">
        <ele>1370.4965820</ele>
        <time>2012-09-19T21:00:25Z</time>
      </trkpt>
      <trkpt lat="37.2359034" lon="-109.8152393">
        <ele>1370.0158691</ele>
        <time>2012-09-19T21:00:28Z</time>
      </trkpt>
      <trkpt lat="37.2357308" lon="-109.8151887">
        <ele>1369.5354004</ele>
        <time>2012-09-19T21:00:32Z</time>
      </trkpt>
      <trkpt lat="37.2355750" lon="-109.8151291">
        <ele>1369.0546875</ele>
        <time>2012-09-19T21:00:37Z</time>
      </trkpt>
      <trkpt lat="37.2354055" lon="-109.8151211">
        <ele>1369.5354004</ele>
        <time>2012-09-19T21:00:43Z</time>
      </trkpt>
      <trkpt lat="37.2352371" lon="-109.8151023">
        <ele>1369.5354004</ele>
        <time>2012-09-19T21:00:47Z</time>
      </trkpt>
      <trkpt lat="37.2351383" lon="-109.8149556">
        <ele>1370.9772949</ele>
        <time>2012-09-19T21:00:50Z</time>
      </trkpt>
      <trkpt lat="37.2350668" lon="-109.8147575">
        <ele>1372.4194336</ele>
        <time>2012-09-19T21:00:53Z</time>
      </trkpt>
      <trkpt lat="37.2350088" lon="-109.8145597">
        <ele>1375.3032227</ele>
        <time>2012-09-19T21:00:56Z</time>
      </trkpt>
      <trkpt lat="37.2349476" lon="-109.8143843">
        <ele>1378.1872559</ele>
        <time>2012-09-19T21:00:59Z</time>
      </trkpt>
      <trkpt lat="37.2348851" lon="-109.8142615">
        <ele>1378.6679688</ele>
        <time>2012-09-19T21:01:13Z</time>
      </trkpt>
    </trkseg>
  </trk>

  <trk>
    <name>Track</name>
    <extensions>
      <gpxx:TrackExtension xmlns:gpxx="http://www.garmin.com/xmlschemas/GpxExtensions/v3">
        <gpxx:DisplayColor>Red</gpxx:DisplayColor>
      </gpxx:TrackExtension>
    </extensions>
    <trkseg>
      <trkpt lat="37.2348851" lon="-109.8142615">
        <ele>1378.6679688</ele>
        <time>2012-09-19T21:01:13Z</time>
      </trkpt>
      <trkpt lat="37.2349901" lon="-109.8144268">
        <ele>1378.1872559</ele>
        <time>2012-09-19T21:01:26Z</time>
      </trkpt>
      <trkpt lat="37.2350474" lon="-109.8146054">
        <ele>1374.8227539</ele>
        <time>2012-09-19T21:01:30Z</time>
      </trkpt>
      <trkpt lat="37.2351087" lon="-109.8147981">
        <ele>1371.9384766</ele>
        <time>2012-09-19T21:01:34Z</time>
      </trkpt>
      <trkpt lat="37.2351927" lon="-109.8150041">
        <ele>1370.9772949</ele>
        <time>2012-09-19T21:01:39Z</time>
      </trkpt>
      <trkpt lat="37.2353243" lon="-109.8151225">
        <ele>1369.5354004</ele>
        <time>2012-09-19T21:01:44Z</time>
      </trkpt>
      <trkpt lat="37.2354707" lon="-109.8151097">
        <ele>1368.5739746</ele>
        <time>2012-09-19T21:01:50Z</time>
      </trkpt>
      <trkpt lat="37.2356383" lon="-109.8151467">
        <ele>1368.0932617</ele>
        <time>2012-09-19T21:01:55Z</time>
      </trkpt>
      <trkpt lat="37.2358257" lon="-109.8151928">
        <ele>1369.5354004</ele>
        <time>2012-09-19T21:01:58Z</time>
      </trkpt>
      <trkpt lat="37.2359759" lon="-109.8152268">
        <ele>1369.5354004</ele>
        <time>2012-09-19T21:02:00Z</time>
      </trkpt>
      <trkpt lat="37.2361392" lon="-109.8152447">
        <ele>1370.0158691</ele>
        <time>2012-09-19T21:02:02Z</time>
      </trkpt>
      <trkpt lat="37.2364042" lon="-109.8152056">
        <ele>1370.0158691</ele>
        <time>2012-09-19T21:02:05Z</time>
      </trkpt>
      <trkpt lat="37.2366675" lon="-109.8150943">
        <ele>1371.4577637</ele>
        <time>2012-09-19T21:02:08Z</time>
      </trkpt>
      <trkpt lat="37.2368368" lon="-109.8150018">
        <ele>1372.9001465</ele>
        <time>2012-09-19T21:02:10Z</time>
      </trkpt>
      <trkpt lat="37.2370037" lon="-109.8149134">
        <ele>1375.3032227</ele>
        <time>2012-09-19T21:02:12Z</time>
      </trkpt>
      <trkpt lat="37.2371689" lon="-109.8148267">
        <ele>1376.2646484</ele>
        <time>2012-09-19T21:02:14Z</time>
      </trkpt>
      <trkpt lat="37.2373207" lon="-109.8147530">
        <ele>1376.7453613</ele>
        <time>2012-09-19T21:02:16Z</time>
      </trkpt>
      <trkpt lat="37.2374637" lon="-109.8146998">
        <ele>1378.6679688</ele>
        <time>2012-09-19T21:02:18Z</time>
      </trkpt>
      <trkpt lat="37.2376062" lon="-109.8146628">
        <ele>1380.1098633</ele>
        <time>2012-09-19T21:02:20Z</time>
      </trkpt>
      <trkpt lat="37.2377563" lon="-109.8146283">
        <ele>1381.0712891</ele>
        <time>2012-09-19T21:02:22Z</time>
      </trkpt>
      <trkpt lat="37.2379112" lon="-109.8145910">
        <ele>1382.0324707</ele>
        <time>2012-09-19T21:02:24Z</time>
      </trkpt>
      <trkpt lat="37.2380634" lon="-109.8145602">
        <ele>1382.9936523</ele>
        <time>2012-09-19T21:02:26Z</time>
      </trkpt>
      <trkpt lat="37.2382112" lon="-109.8145501">
        <ele>1383.9550781</ele>
        <time>2012-09-19T21:02:28Z</time>
      </trkpt>
      <trkpt lat="37.2383865" lon="-109.8145488">
        <ele>1386.8388672</ele>
        <time>2012-09-19T21:02:31Z</time>
      </trkpt>
      <trkpt lat="37.2385342" lon="-109.8144439">
        <ele>1386.3583984</ele>
        <time>2012-09-19T21:02:35Z</time>
      </trkpt>
      <trkpt lat="37.2386373" lon="-109.8142880">
        <ele>1387.3195801</ele>
        <time>2012-09-19T21:02:40Z</time>
      </trkpt>
      <trkpt lat="37.2387751" lon="-109.8141739">
        <ele>1387.3195801</ele>
        <time>2012-09-19T21:02:50Z</time>
      </trkpt>
      <trkpt lat="37.2388826" lon="-109.8142581">
        <ele>1388.2812500</ele>
        <time>2012-09-19T21:02:55Z</time>
      </trkpt>
      <trkpt lat="37.2387804" lon="-109.8144091">
        <ele>1386.8388672</ele>
        <time>2012-09-19T21:03:00Z</time>
      </trkpt>
      <trkpt lat="37.2386261" lon="-109.8145168">
        <ele>1386.3583984</ele>
        <time>2012-09-19T21:03:05Z</time>
      </trkpt>
      <trkpt lat="37.2385322" lon="-109.8144023">
        <ele>1386.8388672</ele>
        <time>2012-09-19T21:03:11Z</time>
      </trkpt>
      <trkpt lat="37.2386417" lon="-109.8142841">
        <ele>1386.8388672</ele>
        <time>2012-09-19T21:03:17Z</time>
      </trkpt>
      <trkpt lat="37.2387782" lon="-109.8141832">
        <ele>1387.3195801</ele>
        <time>2012-09-19T21:03:22Z</time>
      </trkpt>
      <trkpt lat="37.2388662" lon="-109.8142981">
        <ele>1387.8002930</ele>
        <time>2012-09-19T21:03:27Z</time>
      </trkpt>
      <trkpt lat="37.2387421" lon="-109.8144249">
        <ele>1386.3583984</ele>
        <time>2012-09-19T21:03:32Z</time>
      </trkpt>
      <trkpt lat="37.2386021" lon="-109.8145593">
        <ele>1386.3583984</ele>
        <time>2012-09-19T21:03:37Z</time>
      </trkpt>
      <trkpt lat="37.2385080" lon="-109.8144540">
        <ele>1386.3583984</ele>
        <time>2012-09-19T21:03:42Z</time>
      </trkpt>
      <trkpt lat="37.2386297" lon="-109.8142996">
        <ele>1387.3195801</ele>
        <time>2012-09-19T21:03:48Z</time>
      </trkpt>
      <trkpt lat="37.2387653" lon="-109.8141815">
        <ele>1387.3195801</ele>
        <time>2012-09-19T21:03:53Z</time>
      </trkpt>
      <trkpt lat="37.2388522" lon="-109.8143214">
        <ele>1386.8388672</ele>
        <time>2012-09-19T21:03:58Z</time>
      </trkpt>
      <trkpt lat="37.2387084" lon="-109.8144058">
        <ele>1387.3195801</ele>
        <time>2012-09-19T21:04:03Z</time>
      </trkpt>
      <trkpt lat="37.2386200" lon="-109.8142739">
        <ele>1386.8388672</ele>
        <time>2012-09-19T21:04:10Z</time>
      </trkpt>
      <trkpt lat="37.2386737" lon="-109.8142330">
        <ele>1385.8776855</ele>
        <time>2012-09-19T21:06:31Z</time>
      </trkpt>
    </trkseg>
  </trk>

</gpx>
